Dirección General De Aeronáutica Civil

Dirección Meteorológica de Chile - Servicios Climáticos

Informe General de Control de Calidad de la Estación

Listado de niveles de control de calidad para algunos parámetros
Estación El Belloto Ad. (330003)
Fecha de Revisión de los datos :

Elementos

Registros Niveles de Control Total
Nivel 0 Nivel 1 Nivel 2 Nivel 3 Errores Porcentaje
01 Temperatura del Aire Seco 174.901 0 . 1.034 0.59 % 0 . 0 . 1.034 0.59 %
02 Temperatura de Rocío 165.419 1 0.00 % 0 . 0 . 0 . 1 0.00 %
03 Humedad Relativa del Aire 162.018 0 . 0 . 0 . 0 . 0 0.00 %
04 Temperatura Máxima PM 12.529 0 . 0 . 700 5.59 % 0 . 700 5.59 %
05 Temperatura Mínima AM 12.745 0 . 0 . 575 4.51 % 0 . 575 4.51 %
06 Viento a 10 m. de Altura 175.463 0 . 8 0.00 % 10 0.01 % 0 . 18 0.01 %
07 Agua Caida, Acumulada 6 Horas 41.198 0 . 94 0.23 % 0 . 0 . 94 0.23 %
08 Presión Atm. a Nivel de Estación (QFE) 157.272 0 . 0 . 0 . 0 . 0 0.00 %
09 Presión Atm. a Nivel Medio del Mar (QFF) 160.884 0 . 0 . 0 . 0 . 0 0.00 %
10 Presión Atm. Estándar OACI (QNH) 86.750 0 . 0 . 0 . 0 . 0 0.00 %
11 Tiempo Pasado Sinóptico 76.054 0 . 0 . 0 . 0 . 0 0.00 %
12 Tiempo Presente Sinóptico 89.908 0 . 24 0.03 % 0 . 0 . 24 0.03 %

Totales

1.315.141 . 0.0001 % . 0.0882 % . 0.0977 % . 0.0000 % 2,446 0.1860 %

Detalle de Errores Encontrados

Nivel Fecha del Dato Descripción Información Error Fecha Ingreso
0 1975-06-03 12:00:00 Td (Temperatura Del Punto de Rocio) debe ser numérico, entre -50.0 y 50.0 -50.2
Errores del Nivel 1
Nivel Fecha del Dato Descripción Información Error Fecha Ingreso
1 1953-08-17 14:00:00 Viento calma fue mal ingresado. dd = 0 - ff = 4 2013-12-10 15:36:00
1 1953-08-19 18:00:00 Viento calma fue mal ingresado. dd = 0 - ff = 8 2013-12-10 17:41:00
1 1953-10-15 14:00:00 Viento calma fue mal ingresado. dd = 0 - ff = 6 2013-12-13 18:31:00
1 1953-10-15 15:00:00 Viento calma fue mal ingresado. dd = 0 - ff = 4 2013-12-13 18:31:00
1 1953-11-20 10:00:00 Viento calma fue mal ingresado. dd = 360 - ff = 0 2013-12-19 20:25:00
1 1953-12-03 10:00:00 ff < 19kt y ((ww >= 31 y ww <= 35) o (ww == 37 o ww == 39 o ww >= 98))) 2013-12-23 18:27:00
1 1955-02-28 21:00:00 ff < 19kt y ((ww >= 31 y ww <= 35) o (ww == 37 o ww == 39 o ww >= 98))) 2013-05-09 04:20:00
1 1978-07-21 03:00:00 ff < 19kt y ((ww >= 31 y ww <= 35) o (ww == 37 o ww == 39 o ww >= 98))) 2013-05-09 05:25:00
1 1953-07-19 10:00:00 HR (Humedad Relativa) es igual a 100% y Ts <> Td -4.5 - -7.0 2013-12-09 14:07:00
1 1953-07-19 11:00:00 HR (Humedad Relativa) es igual a 100% y Ts <> Td -4.5 - -7.0 2013-12-09 14:07:00
1 1953-07-20 10:00:00 HR (Humedad Relativa) es igual a 100% y Ts <> Td 1.3 - 0.8 2013-12-09 14:31:00
1 1953-07-20 11:00:00 HR (Humedad Relativa) es igual a 100% y Ts <> Td 1.3 - 0.8 2013-12-09 14:31:00
1 1953-07-29 14:00:00 Ts debe ser mayor o igual a Td Ts=3.8 - Td=5.7 2013-12-09 18:21:00
1 1953-08-07 15:00:00 Ts debe ser mayor o igual a Td Ts=7.0 - Td=12.0 2013-12-09 20:38:00
1 1953-08-20 17:00:00 Ts debe ser mayor o igual a Td Ts=1.5 - Td=10.6 2013-12-10 17:57:00
1 1953-08-22 17:00:00 Ts debe ser mayor o igual a Td Ts=2.0 - Td=8.3 2013-12-10 18:24:00
1 1953-08-23 12:00:00 Ts debe ser mayor o igual a Td Ts=2.0 - Td=8.0 2013-12-10 18:35:00
1 1953-08-25 10:00:00 HR (Humedad Relativa) es igual a 100% y Ts <> Td 3.7 - 3.1 2013-12-10 18:55:00
1 1953-08-25 11:00:00 HR (Humedad Relativa) es igual a 100% y Ts <> Td 3.7 - 3.1 2013-12-10 18:55:00
1 1953-08-31 23:00:00 Ts debe ser mayor o igual a Td Ts=12.0 - Td=12.2 2013-12-10 20:15:00
1 1953-09-04 11:00:00 HR (Humedad Relativa) es igual a 100% y Ts <> Td 10.5 - 9.6 2013-12-11 15:34:00
1 1953-09-04 12:00:00 HR (Humedad Relativa) es igual a 100% y Ts <> Td 10.4 - 9.6 2013-12-11 15:34:00
1 1953-09-04 19:00:00 HR (Humedad Relativa) es igual a 100% y Ts <> Td 13.1 - 12.2 2013-12-11 15:34:00
1 1953-09-04 20:00:00 HR (Humedad Relativa) es igual a 100% y Ts <> Td 12.5 - 12.0 2013-12-11 15:34:00
1 1953-09-10 13:00:00 HR (Humedad Relativa) es igual a 100% y Ts <> Td 8.0 - 7.6 2013-12-11 19:58:00
1 1953-09-13 23:00:00 HR (Humedad Relativa) es igual a 100% y Ts <> Td 12.2 - 11.8 2013-12-12 13:50:00
1 1953-09-18 15:00:00 HR (Humedad Relativa) es igual a 100% y Ts <> Td 12.5 - 11.6 2013-12-12 15:34:00
1 1953-09-18 16:00:00 HR (Humedad Relativa) es igual a 100% y Ts <> Td 12.0 - 11.6 2013-12-12 15:35:00
1 1953-09-18 17:00:00 HR (Humedad Relativa) es igual a 100% y Ts <> Td 12.0 - 11.6 2013-12-12 15:35:00
1 1953-09-18 21:00:00 HR (Humedad Relativa) es igual a 100% y Ts <> Td 12.6 - 12.1 2013-12-12 15:35:00
1 1953-09-20 12:00:00 HR (Humedad Relativa) es igual a 100% y Ts <> Td 9.5 - 8.6 2013-12-12 17:35:00
1 1953-09-21 14:00:00 HR (Humedad Relativa) es igual a 100% y Ts <> Td 11.3 - 10.8 2013-12-12 17:51:00
1 1953-09-24 12:00:00 HR (Humedad Relativa) es igual a 100% y Ts <> Td 12.2 - 11.8 2013-12-12 18:48:00
1 1953-09-30 21:00:00 Ts debe ser mayor o igual a Td Ts=16.5 - Td=18.4 2013-12-12 20:02:00
1 1953-10-16 23:00:00 Ts debe ser mayor o igual a Td Ts=11.6 - Td=11.8 2013-12-17 12:38:00
1 1953-11-07 12:00:00 HR (Humedad Relativa) es igual a 100% y Ts <> Td 12.0 - 11.1 2013-12-19 13:49:00
1 1953-11-21 22:00:00 Ts debe ser mayor o igual a Td Ts=13.8 - Td=17.2 2013-12-23 12:29:00
1 1953-11-25 10:00:00 Ts debe ser mayor o igual a Td Ts=9.3 - Td=11.1 2013-12-23 13:58:00
1 1953-11-25 11:00:00 Ts debe ser mayor o igual a Td Ts=9.3 - Td=11.1 2013-12-23 13:58:00
1 1953-11-25 12:00:00 Ts debe ser mayor o igual a Td Ts=11.5 - Td=13.8 2013-12-23 13:58:00
1 1953-12-06 12:00:00 HR (Humedad Relativa) es igual a 100% y Ts <> Td 14.5 - 13.7 2013-12-24 12:49:00
1 1953-12-18 11:00:00 HR (Humedad Relativa) es igual a 100% y Ts <> Td 15.0 - 14.0 2013-12-26 13:58:00
1 1957-02-06 21:00:00 Ts debe ser mayor o igual a Td Ts=19.9 - Td=28.0 2013-05-08 14:55:00
1 1957-05-27 18:00:00 Ts debe ser mayor o igual a Td Ts=4.0 - Td=14.0 2013-05-08 14:56:00
1 1957-07-02 12:00:00 Ts debe ser mayor o igual a Td Ts=0.0 - Td=0.2 2013-05-08 14:56:00
1 1957-07-05 18:00:00 Ts debe ser mayor o igual a Td Ts=13.8 - Td=40.9 2013-05-08 14:56:00
1 1957-08-01 18:00:00 Ts debe ser mayor o igual a Td Ts=14.0 - Td=15.6 2013-05-08 14:56:00
1 1957-08-29 12:00:00 Ts debe ser mayor o igual a Td Ts=18.0 - Td=40.9 2013-05-08 14:56:00
1 1957-09-07 18:00:00 Ts debe ser mayor o igual a Td Ts=15.1 - Td=40.9 2013-05-08 14:56:00
1 1957-11-05 12:00:00 Ts debe ser mayor o igual a Td Ts=10.8 - Td=22.7 2013-05-08 14:56:00
1 1958-01-22 18:00:00 Ts debe ser mayor o igual a Td Ts=21.8 - Td=27.4 2013-05-08 14:56:00
1 1958-03-13 12:00:00 Ts debe ser mayor o igual a Td Ts=7.8 - Td=8.2 2013-05-08 14:56:00
1 1958-04-14 18:00:00 Ts debe ser mayor o igual a Td Ts=16.0 - Td=18.7 2013-05-08 14:57:00
1 1958-05-12 12:00:00 Ts debe ser mayor o igual a Td Ts=4.0 - Td=12.1 2013-05-08 14:57:00
1 1958-05-12 21:00:00 Ts debe ser mayor o igual a Td Ts=14.5 - Td=21.1 2013-05-08 14:57:00
1 1958-05-16 12:00:00 Ts debe ser mayor o igual a Td Ts=8.0 - Td=8.9 2013-05-08 14:57:00
1 1958-06-11 12:00:00 Ts debe ser mayor o igual a Td Ts=10.0 - Td=40.9 2013-05-08 14:57:00
1 1958-06-13 12:00:00 Ts debe ser mayor o igual a Td Ts=-5.1 - Td=4.5 2013-05-08 14:57:00
1 1958-07-19 18:00:00 Ts debe ser mayor o igual a Td Ts=17.0 - Td=20.0 2013-05-08 14:57:00
1 1958-08-27 12:00:00 Ts debe ser mayor o igual a Td Ts=0.9 - Td=14.9 2013-05-08 14:57:00
1 1958-08-28 12:00:00 Ts debe ser mayor o igual a Td Ts=0.1 - Td=1.5 2013-05-08 14:57:00
1 1958-09-02 15:00:00 Ts debe ser mayor o igual a Td Ts=12.5 - Td=23.2 2013-05-08 14:57:00
1 1958-09-03 12:00:00 Ts debe ser mayor o igual a Td Ts=11.0 - Td=12.7 2013-05-08 14:57:00
1 1958-09-07 18:00:00 Ts debe ser mayor o igual a Td Ts=13.0 - Td=13.8 2013-05-08 14:57:00
1 1958-09-09 12:00:00 Ts debe ser mayor o igual a Td Ts=12.0 - Td=40.9 2013-05-08 14:57:00
1 1958-09-20 12:00:00 Ts debe ser mayor o igual a Td Ts=8.6 - Td=11.1 2013-05-08 14:57:00
1 1958-09-21 12:00:00 Ts debe ser mayor o igual a Td Ts=4.0 - Td=12.1 2013-05-08 14:57:00
1 1958-09-21 18:00:00 Ts debe ser mayor o igual a Td Ts=23.0 - Td=40.9 2013-05-08 14:57:00
1 1958-09-24 12:00:00 Ts debe ser mayor o igual a Td Ts=9.0 - Td=10.8 2013-05-08 14:57:00
1 1958-10-01 18:00:00 Ts debe ser mayor o igual a Td Ts=8.5 - Td=13.6 2013-05-08 14:57:00
1 1958-10-02 12:00:00 Ts debe ser mayor o igual a Td Ts=0.2 - Td=4.2 2013-05-08 14:57:00
1 1958-11-11 12:00:00 Ts debe ser mayor o igual a Td Ts=0.8 - Td=12.9 2013-05-08 14:57:00
1 1958-11-14 21:00:00 Ts debe ser mayor o igual a Td Ts=5.0 - Td=16.5 2013-05-08 14:57:00
1 1958-11-17 12:00:00 Ts debe ser mayor o igual a Td Ts=10.0 - Td=23.0 2013-05-08 14:57:00
1 1958-12-02 12:00:00 Ts debe ser mayor o igual a Td Ts=0.7 - Td=10.7 2013-05-08 14:57:00
1 1958-12-11 12:00:00 Ts debe ser mayor o igual a Td Ts=0.8 - Td=13.3 2013-05-08 14:57:00
1 1958-12-14 12:00:00 Ts debe ser mayor o igual a Td Ts=0.9 - Td=26.1 2013-05-08 14:57:00
1 1958-12-15 12:00:00 Ts debe ser mayor o igual a Td Ts=0.9 - Td=14.2 2013-05-08 14:57:00
1 1959-03-07 12:00:00 Ts debe ser mayor o igual a Td Ts=9.0 - Td=12.5 2013-05-08 14:58:00
1 1959-04-12 15:00:00 Ts debe ser mayor o igual a Td Ts=15.0 - Td=40.9 2013-05-08 14:58:00
1 1959-04-13 15:00:00 Ts debe ser mayor o igual a Td Ts=1.5 - Td=19.5 2013-05-08 14:58:00
1 1959-05-28 18:00:00 Ts debe ser mayor o igual a Td Ts=17.0 - Td=40.9 2013-05-08 14:58:00
1 1959-06-22 12:00:00 Ts debe ser mayor o igual a Td Ts=0.1 - Td=2.2 2013-05-08 14:58:00
1 1959-06-27 12:00:00 Ts debe ser mayor o igual a Td Ts=3.0 - Td=3.7 2013-05-08 14:58:00
1 1959-07-05 12:00:00 Ts debe ser mayor o igual a Td Ts=3.5 - Td=9.3 2013-05-08 14:58:00
1 1959-07-10 12:00:00 Ts debe ser mayor o igual a Td Ts=0.5 - Td=9.3 2013-05-08 14:58:00
1 1959-08-01 12:00:00 Ts debe ser mayor o igual a Td Ts=14.0 - Td=40.9 2013-05-08 14:58:00
1 1959-08-17 12:00:00 Ts debe ser mayor o igual a Td Ts=0.3 - Td=6.0 2013-05-08 14:58:00
1 1962-04-11 12:00:00 Ts debe ser mayor o igual a Td Ts=6.6 - Td=7.0 2013-05-08 14:58:00
1 1962-06-03 12:00:00 Ts debe ser mayor o igual a Td Ts=-0.7 - Td=-0.4 2013-05-08 14:58:00
1 1962-06-07 15:00:00 Ts debe ser mayor o igual a Td Ts=9.0 - Td=9.4 2013-05-08 14:58:00
1 1962-08-06 18:00:00 Ts debe ser mayor o igual a Td Ts=10.3 - Td=11.0 2013-05-08 14:59:00
1 1962-08-06 21:00:00 Ts debe ser mayor o igual a Td Ts=10.8 - Td=11.2 2013-05-08 14:59:00
1 1962-12-02 18:00:00 Ts debe ser mayor o igual a Td Ts=15.0 - Td=21.4 2013-05-08 14:59:00
1 1963-03-05 18:00:00 Ts debe ser mayor o igual a Td Ts=13.0 - Td=18.8 2013-05-08 14:59:00
1 1963-05-10 15:00:00 Ts debe ser mayor o igual a Td Ts=8.8 - Td=10.8 2013-05-08 14:59:00
1 1963-05-13 12:00:00 Ts debe ser mayor o igual a Td Ts=1.4 - Td=18.4 2013-05-08 14:59:00
1 1963-06-19 12:00:00 Ts debe ser mayor o igual a Td Ts=1.0 - Td=1.9 2013-05-08 15:00:00
1 1963-06-21 18:00:00 Ts debe ser mayor o igual a Td Ts=1.5 - Td=12.4 2013-05-08 15:00:00
1 1963-08-05 15:00:00 Ts debe ser mayor o igual a Td Ts=2.3 - Td=7.2 2013-05-08 15:00:00
1 1963-08-15 21:00:00 Ts debe ser mayor o igual a Td Ts=13.2 - Td=17.8 2013-05-08 15:00:00
1 1963-08-30 18:00:00 Ts debe ser mayor o igual a Td Ts=0.2 - Td=24.5 2013-05-08 15:00:00
1 1963-09-29 18:00:00 Ts debe ser mayor o igual a Td Ts=1.6 - Td=19.5 2013-05-08 15:00:00
1 1963-10-06 18:00:00 Ts debe ser mayor o igual a Td Ts=15.6 - Td=17.8 2013-05-08 15:00:00
1 1963-10-10 12:00:00 Ts debe ser mayor o igual a Td Ts=3.4 - Td=9.7 2013-05-08 15:00:00
1 1963-12-20 15:00:00 Ts debe ser mayor o igual a Td Ts=15.0 - Td=18.9 2013-05-08 15:00:00
1 1964-06-18 12:00:00 Ts debe ser mayor o igual a Td Ts=14.0 - Td=40.9 2013-05-08 15:01:00
1 1965-04-28 12:00:00 Ts debe ser mayor o igual a Td Ts=1.2 - Td=18.6 2013-05-08 15:01:00
1 1965-04-30 12:00:00 Ts debe ser mayor o igual a Td Ts=12.4 - Td=40.9 2013-05-08 15:01:00
1 1965-04-30 15:00:00 Ts debe ser mayor o igual a Td Ts=15.1 - Td=40.9 2013-05-08 15:01:00
1 1965-05-01 15:00:00 Ts debe ser mayor o igual a Td Ts=12.3 - Td=18.0 2013-05-08 15:01:00
1 1965-06-24 15:00:00 Ts debe ser mayor o igual a Td Ts=13.4 - Td=40.9 2013-05-08 15:01:00
1 1965-08-24 18:00:00 Ts debe ser mayor o igual a Td Ts=11.8 - Td=12.5 2013-05-08 15:02:00
1 1965-09-21 21:00:00 Ts debe ser mayor o igual a Td Ts=9.4 - Td=12.2 2013-05-08 15:02:00
1 1965-10-16 15:00:00 Ts debe ser mayor o igual a Td Ts=13.4 - Td=40.9 2013-05-08 15:02:00
1 1965-10-30 00:00:00 Ts debe ser mayor o igual a Td Ts=14.0 - Td=40.9 2013-05-08 15:02:00
1 1965-12-04 15:00:00 Ts debe ser mayor o igual a Td Ts=23.8 - Td=40.9 2013-05-08 15:02:00
1 1965-12-05 18:00:00 Ts debe ser mayor o igual a Td Ts=28.6 - Td=40.9 2013-05-08 15:02:00
1 1966-01-03 12:00:00 Ts debe ser mayor o igual a Td Ts=15.8 - Td=18.8 2013-05-08 15:02:00
1 1966-04-03 18:00:00 Ts debe ser mayor o igual a Td Ts=4.4 - Td=22.6 2013-05-08 15:02:00
1 1966-04-17 21:00:00 Ts debe ser mayor o igual a Td Ts=11.2 - Td=16.0 2013-05-08 15:02:00
1 1966-05-10 15:00:00 Ts debe ser mayor o igual a Td Ts=9.0 - Td=9.7 2013-05-08 15:03:00
1 1966-05-27 21:00:00 Ts debe ser mayor o igual a Td Ts=13.2 - Td=14.5 2013-05-08 15:03:00
1 1966-07-16 12:00:00 Ts debe ser mayor o igual a Td Ts=1.0 - Td=16.1 2013-05-08 15:03:00
1 1966-07-17 15:00:00 Ts debe ser mayor o igual a Td Ts=6.5 - Td=7.5 2013-05-08 15:03:00
1 1966-07-21 15:00:00 Ts debe ser mayor o igual a Td Ts=9.4 - Td=9.9 2013-05-08 15:03:00
1 1966-07-23 12:00:00 Ts debe ser mayor o igual a Td Ts=1.4 - Td=1.6 2013-05-08 15:03:00
1 1966-08-07 21:00:00 Ts debe ser mayor o igual a Td Ts=12.6 - Td=14.2 2013-05-08 15:03:00
1 1966-08-30 00:00:00 Ts debe ser mayor o igual a Td Ts=14.2 - Td=18.5 2013-05-08 15:03:00
1 1966-09-05 21:00:00 Ts debe ser mayor o igual a Td Ts=12.8 - Td=14.8 2013-05-08 15:03:00
1 1966-09-25 00:00:00 Ts debe ser mayor o igual a Td Ts=14.4 - Td=15.0 2013-05-08 15:03:00
1 1966-12-07 00:00:00 Ts debe ser mayor o igual a Td Ts=13.7 - Td=15.8 2013-05-08 15:03:00
1 1966-12-14 21:00:00 Ts debe ser mayor o igual a Td Ts=11.3 - Td=18.5 2013-05-08 15:03:00
1 1966-12-20 21:00:00 Ts debe ser mayor o igual a Td Ts=12.3 - Td=18.3 2013-05-08 15:03:00
1 1967-10-16 21:00:00 Ts debe ser mayor o igual a Td Ts=13.2 - Td=40.9 2013-05-08 15:05:00
1 1967-10-25 00:00:00 Ts debe ser mayor o igual a Td Ts=9.8 - Td=10.2 2013-05-08 15:05:00
1 1967-10-31 15:00:00 Ts debe ser mayor o igual a Td Ts=15.0 - Td=40.9 2013-05-08 15:05:00
1 1967-11-01 00:00:00 Ts debe ser mayor o igual a Td Ts=13.6 - Td=40.9 2013-05-08 15:05:00
1 1967-11-03 12:00:00 Ts debe ser mayor o igual a Td Ts=12.0 - Td=13.7 2013-05-08 15:05:00
1 1967-11-24 15:00:00 Ts debe ser mayor o igual a Td Ts=14.2 - Td=40.9 2013-05-08 15:05:00
1 1967-11-27 12:00:00 Ts debe ser mayor o igual a Td Ts=10.0 - Td=13.4 2013-05-08 15:05:00
1 1967-11-28 12:00:00 Ts debe ser mayor o igual a Td Ts=11.0 - Td=25.0 2013-05-08 15:05:00
1 1967-12-05 21:00:00 Ts debe ser mayor o igual a Td Ts=16.2 - Td=18.6 2013-05-08 15:05:00
1 1967-12-12 12:00:00 Ts debe ser mayor o igual a Td Ts=15.2 - Td=16.3 2013-05-08 15:05:00
1 1967-12-19 15:00:00 Ts debe ser mayor o igual a Td Ts=9.6 - Td=20.7 2013-05-08 15:05:00
1 1967-12-31 12:00:00 Ts debe ser mayor o igual a Td Ts=15.2 - Td=40.9 2013-05-08 15:05:00
1 1970-07-01 12:00:00 Ts debe ser mayor o igual a Td Ts=-0.8 - Td=-0.3 2013-05-08 15:13:00
1 1970-07-03 15:00:00 Ts debe ser mayor o igual a Td Ts=8.1 - Td=8.7 2013-05-08 15:13:00
1 1970-07-05 12:00:00 Ts debe ser mayor o igual a Td Ts=-1.0 - Td=10.7 2013-05-08 15:13:00
1 1970-07-05 12:00:00 HR (Humedad Relativa) es igual a 100% y Ts <> Td -1.0 - 10.7 2013-05-08 17:17:00
1 1970-07-07 13:00:00 Ts debe ser mayor o igual a Td Ts=-2.6 - Td=-1.0 2013-05-08 15:13:00
1 1970-07-10 12:00:00 Ts debe ser mayor o igual a Td Ts=0.0 - Td=16.7 2013-05-08 15:13:00
1 1970-07-10 12:00:00 HR (Humedad Relativa) es igual a 100% y Ts <> Td 0.0 - 16.7 2013-05-08 17:17:00
1 1970-07-26 13:00:00 Ts debe ser mayor o igual a Td Ts=2.0 - Td=2.5 2013-05-08 15:13:00
1 1970-07-27 06:00:00 Ts debe ser mayor o igual a Td Ts=6.4 - Td=12.1 2013-05-08 15:13:00
1 1970-08-03 17:00:00 Ts debe ser mayor o igual a Td Ts=14.8 - Td=17.7 2013-05-08 15:13:00
1 1970-08-15 18:00:00 Ts debe ser mayor o igual a Td Ts=13.0 - Td=16.5 2013-05-08 15:13:00
1 1970-08-21 12:00:00 Ts debe ser mayor o igual a Td Ts=0.0 - Td=1.4 2013-05-08 15:13:00
1 1970-09-20 23:00:00 Ts debe ser mayor o igual a Td Ts=2.1 - Td=20.7 2013-05-08 15:13:00
1 1970-09-28 23:00:00 Ts debe ser mayor o igual a Td Ts=12.1 - Td=22.6 2013-05-08 15:14:00
1 1970-10-01 15:00:00 Ts debe ser mayor o igual a Td Ts=1.3 - Td=15.9 2013-05-08 15:14:00
1 1970-10-02 06:00:00 Ts debe ser mayor o igual a Td Ts=0.7 - Td=11.9 2013-05-08 15:14:00
1 1970-10-04 06:00:00 Ts debe ser mayor o igual a Td Ts=1.0 - Td=14.5 2013-05-08 15:14:00
1 1970-10-09 00:00:00 Ts debe ser mayor o igual a Td Ts=15.4 - Td=17.0 2013-05-08 15:14:00
1 1970-10-12 12:00:00 Ts debe ser mayor o igual a Td Ts=6.4 - Td=19.6 2013-05-08 15:14:00
1 1970-10-14 13:00:00 Ts debe ser mayor o igual a Td Ts=10.2 - Td=13.3 2013-05-08 15:14:00
1 1970-10-25 11:00:00 Ts debe ser mayor o igual a Td Ts=12.0 - Td=19.0 2013-05-08 15:14:00
1 1970-11-05 21:00:00 Ts debe ser mayor o igual a Td Ts=10.0 - Td=17.8 2013-05-08 15:14:00
1 1970-11-15 16:00:00 Ts debe ser mayor o igual a Td Ts=2.0 - Td=19.6 2013-05-08 15:14:00
1 1970-11-27 15:00:00 Ts debe ser mayor o igual a Td Ts=11.0 - Td=17.3 2013-05-08 15:14:00
1 1970-12-26 00:00:00 Ts debe ser mayor o igual a Td Ts=19.0 - Td=19.6 2013-05-08 15:15:00
1 1970-12-26 00:00:00 HR (Humedad Relativa) es igual a 100% y Ts <> Td 19.0 - 19.6 2013-05-08 17:19:00
1 1970-12-28 12:00:00 Ts debe ser mayor o igual a Td Ts=11.4 - Td=21.7 2013-05-08 15:15:00
1 1971-01-03 15:00:00 Ts debe ser mayor o igual a Td Ts=2.5 - Td=22.5 2013-05-08 15:15:00
1 1971-01-03 18:00:00 Ts debe ser mayor o igual a Td Ts=2.7 - Td=23.5 2013-05-08 15:15:00
1 1971-01-04 00:00:00 Ts debe ser mayor o igual a Td Ts=2.0 - Td=18.8 2013-05-08 15:15:00
1 1971-01-04 12:00:00 Ts debe ser mayor o igual a Td Ts=13.0 - Td=13.3 2013-05-08 15:15:00
1 1971-01-05 00:00:00 Ts debe ser mayor o igual a Td Ts=1.8 - Td=18.2 2013-05-08 15:15:00
1 1971-02-21 06:00:00 Ts debe ser mayor o igual a Td Ts=11.0 - Td=12.7 2013-05-08 15:15:00
1 1971-02-21 12:00:00 Ts debe ser mayor o igual a Td Ts=13.8 - Td=19.8 2013-05-08 15:15:00
1 1971-02-22 06:00:00 Ts debe ser mayor o igual a Td Ts=13.0 - Td=15.3 2013-05-08 15:15:00
1 1971-02-26 15:00:00 Ts debe ser mayor o igual a Td Ts=16.2 - Td=21.4 2013-05-08 15:15:00
1 1971-02-26 17:00:00 Ts debe ser mayor o igual a Td Ts=12.4 - Td=17.7 2013-05-08 15:15:00
1 1971-03-21 12:00:00 Ts debe ser mayor o igual a Td Ts=0.7 - Td=11.3 2013-05-08 15:16:00
1 1971-03-23 00:00:00 Ts debe ser mayor o igual a Td Ts=2.0 - Td=19.3 2013-05-08 15:16:00
1 1971-03-25 12:00:00 Ts debe ser mayor o igual a Td Ts=0.6 - Td=9.2 2013-05-08 15:16:00
1 1971-03-30 12:00:00 Ts debe ser mayor o igual a Td Ts=0.8 - Td=12.4 2013-05-08 15:16:00
1 1971-03-31 12:00:00 Ts debe ser mayor o igual a Td Ts=0.6 - Td=9.2 2013-05-08 15:16:00
1 1971-04-02 12:00:00 Ts debe ser mayor o igual a Td Ts=0.5 - Td=7.6 2013-05-08 15:16:00
1 1971-04-04 12:00:00 Ts debe ser mayor o igual a Td Ts=0.6 - Td=9.5 2013-05-08 15:16:00
1 1971-04-09 06:00:00 Ts debe ser mayor o igual a Td Ts=0.9 - Td=13.5 2013-05-08 15:16:00
1 1971-04-10 13:00:00 Ts debe ser mayor o igual a Td Ts=6.6 - Td=19.0 2013-05-08 15:16:00
1 1971-04-15 06:00:00 Ts debe ser mayor o igual a Td Ts=12.0 - Td=18.5 2013-05-08 15:16:00
1 1971-04-18 13:00:00 Ts debe ser mayor o igual a Td Ts=0.3 - Td=0.5 2013-05-08 15:16:00
1 1971-04-21 06:00:00 Ts debe ser mayor o igual a Td Ts=11.9 - Td=12.1 2013-05-08 15:16:00
1 1971-04-24 12:00:00 Ts debe ser mayor o igual a Td Ts=4.0 - Td=4.4 2013-05-08 15:16:00
1 1971-05-02 00:00:00 Ts debe ser mayor o igual a Td Ts=10.0 - Td=11.1 2013-05-08 15:16:00
1 1971-05-02 00:00:00 HR (Humedad Relativa) es igual a 100% y Ts <> Td 10.0 - 11.1 2013-05-08 17:21:00
1 1971-05-02 13:00:00 Ts debe ser mayor o igual a Td Ts=4.2 - Td=4.6 2013-05-08 15:16:00
1 1971-05-24 12:00:00 Ts debe ser mayor o igual a Td Ts=2.2 - Td=27.9 2013-05-08 15:16:00
1 1971-05-24 13:00:00 Ts debe ser mayor o igual a Td Ts=1.8 - Td=2.3 2013-05-08 15:16:00
1 1971-06-03 12:00:00 Ts debe ser mayor o igual a Td Ts=13.0 - Td=22.8 2013-05-08 15:17:00
1 1971-06-13 00:00:00 Ts debe ser mayor o igual a Td Ts=10.0 - Td=21.7 2013-05-08 15:17:00
1 1971-06-13 09:00:00 Ts debe ser mayor o igual a Td Ts=-0.2 - Td=1.7 2013-05-08 15:17:00
1 1971-06-13 13:00:00 Ts debe ser mayor o igual a Td Ts=-1.2 - Td=-0.7 2013-05-08 15:17:00
1 1971-07-02 12:00:00 Ts debe ser mayor o igual a Td Ts=0.8 - Td=13.3 2013-05-08 15:17:00
1 1971-07-02 18:00:00 Ts debe ser mayor o igual a Td Ts=1.1 - Td=16.8 2013-05-08 15:17:00
1 1971-07-06 15:00:00 Ts debe ser mayor o igual a Td Ts=0.8 - Td=12.7 2013-05-08 15:17:00
1 1971-07-06 21:00:00 Ts debe ser mayor o igual a Td Ts=1.9 - Td=19.6 2013-05-08 15:17:00
1 1971-07-07 00:00:00 Ts debe ser mayor o igual a Td Ts=1.2 - Td=16.8 2013-05-08 15:17:00
1 1971-07-07 12:00:00 Ts debe ser mayor o igual a Td Ts=1.0 - Td=11.9 2013-05-08 15:17:00
1 1971-07-07 15:00:00 Ts debe ser mayor o igual a Td Ts=0.7 - Td=10.7 2013-05-08 15:17:00
1 1971-07-07 21:00:00 Ts debe ser mayor o igual a Td Ts=2.0 - Td=18.1 2013-05-08 15:17:00
1 1971-07-08 06:00:00 Ts debe ser mayor o igual a Td Ts=0.4 - Td=7.0 2013-05-08 15:17:00
1 1971-07-08 14:00:00 Ts debe ser mayor o igual a Td Ts=0.3 - Td=4.1 2013-05-08 15:17:00
1 1971-07-08 15:00:00 Ts debe ser mayor o igual a Td Ts=0.7 - Td=9.1 2013-05-08 15:17:00
1 1971-07-09 06:00:00 Ts debe ser mayor o igual a Td Ts=0.4 - Td=7.7 2013-05-08 15:17:00
1 1971-07-09 18:00:00 Ts debe ser mayor o igual a Td Ts=1.6 - Td=17.0 2013-05-08 15:17:00
1 1971-07-10 15:00:00 Ts debe ser mayor o igual a Td Ts=8.2 - Td=10.9 2013-05-08 15:17:00
1 1971-07-12 12:00:00 Ts debe ser mayor o igual a Td Ts=5.2 - Td=13.4 2013-05-08 15:17:00
1 1971-07-13 12:00:00 Ts debe ser mayor o igual a Td Ts=1.6 - Td=11.0 2013-05-08 15:17:00
1 1971-07-13 12:00:00 HR (Humedad Relativa) es igual a 100% y Ts <> Td 1.6 - 11.0 2013-05-08 17:22:00
1 1971-07-15 09:00:00 Ts debe ser mayor o igual a Td Ts=1.1 - Td=16.8 2013-05-08 15:17:00
1 1971-07-15 12:00:00 Ts debe ser mayor o igual a Td Ts=1.1 - Td=16.8 2013-05-08 15:17:00
1 1971-07-17 00:00:00 Ts debe ser mayor o igual a Td Ts=1.1 - Td=14.8 2013-05-08 15:17:00
1 1971-07-18 14:00:00 Ts debe ser mayor o igual a Td Ts=0.5 - Td=8.7 2013-05-08 15:17:00
1 1971-07-18 21:00:00 Ts debe ser mayor o igual a Td Ts=1.4 - Td=18.4 2013-05-08 15:17:00
1 1971-07-19 00:00:00 Ts debe ser mayor o igual a Td Ts=1.1 - Td=16.1 2013-05-08 15:17:00
1 1971-07-19 06:00:00 Ts debe ser mayor o igual a Td Ts=1.0 - Td=15.9 2013-05-08 15:17:00
1 1971-07-19 15:00:00 Ts debe ser mayor o igual a Td Ts=1.0 - Td=15.7 2013-05-08 15:17:00
1 1971-07-22 14:00:00 Ts debe ser mayor o igual a Td Ts=0.8 - Td=12.7 2013-05-08 15:17:00
1 1971-07-27 00:00:00 Ts debe ser mayor o igual a Td Ts=1.3 - Td=18.9 2013-05-08 15:17:00
1 1971-07-27 06:00:00 Ts debe ser mayor o igual a Td Ts=1.0 - Td=15.3 2013-05-08 15:17:00
1 1971-07-29 09:00:00 Ts debe ser mayor o igual a Td Ts=1.0 - Td=17.4 2013-05-08 15:17:00
1 1971-07-29 14:00:00 Ts debe ser mayor o igual a Td Ts=10.0 - Td=10.7 2013-05-08 15:17:00
1 1971-07-30 14:00:00 Ts debe ser mayor o igual a Td Ts=0.7 - Td=11.9 2013-05-08 15:17:00
1 1971-08-03 21:00:00 Ts debe ser mayor o igual a Td Ts=1.4 - Td=15.9 2013-05-08 15:17:00
1 1971-08-04 09:00:00 Ts debe ser mayor o igual a Td Ts=0.6 - Td=10.0 2013-05-08 15:17:00
1 1971-08-04 15:00:00 Ts debe ser mayor o igual a Td Ts=1.0 - Td=13.5 2013-05-08 15:17:00
1 1971-08-04 16:00:00 Ts debe ser mayor o igual a Td Ts=1.2 - Td=14.7 2013-05-08 15:17:00
1 1971-08-08 18:00:00 Ts debe ser mayor o igual a Td Ts=11.0 - Td=12.7 2013-05-08 15:17:00
1 1971-08-15 12:00:00 Ts debe ser mayor o igual a Td Ts=2.4 - Td=28.9 2013-05-08 15:17:00
1 1971-08-18 00:00:00 Ts debe ser mayor o igual a Td Ts=1.0 - Td=14.0 2013-05-08 15:17:00
1 1971-08-21 09:00:00 Ts debe ser mayor o igual a Td Ts=1.0 - Td=13.5 2013-05-08 15:18:00
1 1971-08-21 11:00:00 Ts debe ser mayor o igual a Td Ts=0.1 - Td=1.3 2013-05-08 15:18:00
1 1971-08-21 12:00:00 Ts debe ser mayor o igual a Td Ts=1.0 - Td=13.5 2013-05-08 15:18:00
1 1971-08-23 18:00:00 Ts debe ser mayor o igual a Td Ts=2.1 - Td=20.4 2013-05-08 15:18:00
1 1971-08-24 18:00:00 Ts debe ser mayor o igual a Td Ts=2.6 - Td=22.5 2013-05-08 15:18:00
1 1971-08-27 21:00:00 Ts debe ser mayor o igual a Td Ts=1.4 - Td=17.2 2013-05-08 15:18:00
1 1971-08-31 21:00:00 Ts debe ser mayor o igual a Td Ts=2.2 - Td=23.7 2013-05-08 15:18:00
1 1971-09-01 12:00:00 Ts debe ser mayor o igual a Td Ts=8.8 - Td=9.2 2013-05-08 15:18:00
1 1971-09-01 12:00:00 HR (Humedad Relativa) es igual a 100% y Ts <> Td 8.8 - 9.2 2013-05-08 17:22:00
1 1971-09-01 14:00:00 Ts debe ser mayor o igual a Td Ts=8.6 - Td=9.0 2013-05-08 15:18:00
1 1971-09-05 00:00:00 Ts debe ser mayor o igual a Td Ts=1.0 - Td=13.5 2013-05-08 15:18:00
1 1971-09-06 21:00:00 Ts debe ser mayor o igual a Td Ts=2.0 - Td=21.7 2013-05-08 15:18:00
1 1971-09-12 18:00:00 Ts debe ser mayor o igual a Td Ts=1.8 - Td=22.1 2013-05-08 15:18:00
1 1971-09-15 19:00:00 Ts debe ser mayor o igual a Td Ts=2.2 - Td=21.5 2013-05-08 15:18:00
1 1971-09-17 06:00:00 Ts debe ser mayor o igual a Td Ts=1.0 - Td=15.6 2013-05-08 15:18:00
1 1971-09-17 12:00:00 Ts debe ser mayor o igual a Td Ts=1.0 - Td=16.0 2013-05-08 15:18:00
1 1971-09-19 00:00:00 Ts debe ser mayor o igual a Td Ts=1.2 - Td=16.0 2013-05-08 15:18:00
1 1971-09-20 09:00:00 Ts debe ser mayor o igual a Td Ts=5.0 - Td=5.4 2013-05-08 15:18:00
1 1971-09-20 09:00:00 HR (Humedad Relativa) es igual a 100% y Ts <> Td 5.0 - 5.4 2013-05-08 17:22:00
1 1971-09-24 21:00:00 Ts debe ser mayor o igual a Td Ts=2.1 - Td=21.6 2013-05-08 15:18:00
1 1971-09-25 21:00:00 Ts debe ser mayor o igual a Td Ts=2.0 - Td=21.6 2013-05-08 15:18:00
1 1971-09-28 12:00:00 Ts debe ser mayor o igual a Td Ts=7.0 - Td=11.6 2013-05-08 15:18:00
1 1971-09-29 06:00:00 Ts debe ser mayor o igual a Td Ts=1.1 - Td=16.7 2013-05-08 15:18:00
1 1971-09-29 12:00:00 Ts debe ser mayor o igual a Td Ts=1.1 - Td=17.3 2013-05-08 15:18:00
1 1971-09-29 12:00:00 HR (Humedad Relativa) es igual a 100% y Ts <> Td 1.1 - 17.3 2013-05-08 17:23:00
1 1971-10-02 06:00:00 Ts debe ser mayor o igual a Td Ts=0.6 - Td=10.7 2013-05-08 15:18:00
1 1971-10-02 15:00:00 Ts debe ser mayor o igual a Td Ts=1.4 - Td=17.2 2013-05-08 15:18:00
1 1971-10-05 06:00:00 Ts debe ser mayor o igual a Td Ts=6.8 - Td=12.4 2013-05-08 15:18:00
1 1971-10-05 06:00:00 HR (Humedad Relativa) es igual a 100% y Ts <> Td 6.8 - 12.4 2013-05-08 17:23:00
1 1971-10-08 09:00:00 Ts debe ser mayor o igual a Td Ts=0.4 - Td=7.2 2013-05-08 15:18:00
1 1971-10-10 17:00:00 Ts debe ser mayor o igual a Td Ts=11.4 - Td=15.6 2013-05-08 15:18:00
1 1971-10-11 09:00:00 Ts debe ser mayor o igual a Td Ts=0.5 - Td=8.7 2013-05-08 15:18:00
1 1971-10-22 11:00:00 Ts debe ser mayor o igual a Td Ts=9.0 - Td=24.5 2013-05-08 15:18:00
1 1971-10-24 06:00:00 Ts debe ser mayor o igual a Td Ts=8.8 - Td=10.1 2013-05-08 15:18:00
1 1971-10-25 21:00:00 Ts debe ser mayor o igual a Td Ts=12.6 - Td=13.6 2013-05-08 15:18:00
1 1971-10-27 09:00:00 Ts debe ser mayor o igual a Td Ts=7.0 - Td=7.8 2013-05-08 15:18:00
1 1971-10-30 09:00:00 Ts debe ser mayor o igual a Td Ts=9.0 - Td=11.0 2013-05-08 15:18:00
1 1971-11-02 00:00:00 Ts debe ser mayor o igual a Td Ts=12.0 - Td=12.3 2013-05-08 15:18:00
1 1971-11-20 11:00:00 Ts debe ser mayor o igual a Td Ts=12.2 - Td=12.5 2013-05-08 15:19:00
1 1971-12-10 06:00:00 Ts debe ser mayor o igual a Td Ts=11.5 - Td=12.4 2013-05-08 15:19:00
1 1971-12-13 09:00:00 Ts debe ser mayor o igual a Td Ts=7.2 - Td=9.8 2013-05-08 15:19:00
1 1972-01-23 15:00:00 Ts debe ser mayor o igual a Td Ts=9.6 - Td=19.9 2013-05-08 15:20:00
1 1972-02-01 12:00:00 Ts debe ser mayor o igual a Td Ts=1.5 - Td=19.5 2013-05-08 15:20:00
1 1972-02-08 09:00:00 Ts debe ser mayor o igual a Td Ts=10.0 - Td=23.0 2013-05-08 15:20:00
1 1972-02-13 06:00:00 Ts debe ser mayor o igual a Td Ts=10.0 - Td=16.4 2013-05-08 15:20:00
1 1972-02-15 09:00:00 Ts debe ser mayor o igual a Td Ts=11.0 - Td=15.8 2013-05-08 15:20:00
1 1972-03-02 18:00:00 Ts debe ser mayor o igual a Td Ts=16.1 - Td=20.4 2013-05-08 15:20:00
1 1972-03-19 17:00:00 Ts debe ser mayor o igual a Td Ts=14.0 - Td=20.0 2013-05-08 15:20:00
1 1972-03-20 11:00:00 Ts debe ser mayor o igual a Td Ts=9.6 - Td=10.3 2013-05-08 15:20:00
1 1972-03-22 09:00:00 Ts debe ser mayor o igual a Td Ts=9.4 - Td=9.8 2013-05-08 15:20:00
1 1972-03-22 11:00:00 Ts debe ser mayor o igual a Td Ts=8.2 - Td=11.1 2013-05-08 15:20:00
1 1972-03-23 22:00:00 Ts debe ser mayor o igual a Td Ts=18.0 - Td=18.8 2013-05-08 15:20:00
1 1972-03-27 21:00:00 Ts debe ser mayor o igual a Td Ts=12.6 - Td=16.1 2013-05-08 15:20:00
1 1972-03-31 13:00:00 Ts debe ser mayor o igual a Td Ts=7.6 - Td=10.9 2013-05-08 15:20:00
1 1972-04-03 12:00:00 Ts debe ser mayor o igual a Td Ts=0.9 - Td=13.5 2013-05-08 15:20:00
1 1972-04-03 15:00:00 Ts debe ser mayor o igual a Td Ts=2.2 - Td=23.5 2013-05-08 15:20:00
1 1972-04-05 06:00:00 Ts debe ser mayor o igual a Td Ts=0.9 - Td=14.8 2013-05-08 15:20:00
1 1972-04-05 06:00:00 HR (Humedad Relativa) es igual a 100% y Ts <> Td 0.9 - 14.8 2013-05-08 17:25:00
1 1972-04-12 20:00:00 Ts debe ser mayor o igual a Td Ts=6.8 - Td=18.1 2013-05-08 15:21:00
1 1972-04-25 11:00:00 Ts debe ser mayor o igual a Td Ts=1.0 - Td=13.4 2013-05-08 15:21:00
1 1972-04-27 09:00:00 Ts debe ser mayor o igual a Td Ts=0.4 - Td=6.8 2013-05-08 15:21:00
1 1972-05-02 11:00:00 Ts debe ser mayor o igual a Td Ts=1.5 - Td=3.5 2013-05-08 15:21:00
1 1972-05-04 09:00:00 Ts debe ser mayor o igual a Td Ts=0.4 - Td=5.9 2013-05-08 15:21:00
1 1972-05-05 06:00:00 Ts debe ser mayor o igual a Td Ts=0.5 - Td=8.5 2013-05-08 15:21:00
1 1972-05-18 09:00:00 Ts debe ser mayor o igual a Td Ts=6.5 - Td=7.5 2013-05-08 15:21:00
1 1972-05-18 09:00:00 HR (Humedad Relativa) es igual a 100% y Ts <> Td 6.5 - 7.5 2013-05-08 17:26:00
1 1972-05-18 12:00:00 Ts debe ser mayor o igual a Td Ts=7.0 - Td=12.3 2013-05-08 15:21:00
1 1972-05-18 12:00:00 HR (Humedad Relativa) es igual a 100% y Ts <> Td 7.0 - 12.3 2013-05-08 17:26:00
1 1972-05-18 15:00:00 Ts debe ser mayor o igual a Td Ts=11.0 - Td=17.9 2013-05-08 15:21:00
1 1972-06-05 11:00:00 Ts debe ser mayor o igual a Td Ts=0.8 - Td=13.5 2013-05-08 15:21:00
1 1972-06-06 22:00:00 Ts debe ser mayor o igual a Td Ts=13.0 - Td=13.3 2013-05-08 15:21:00
1 1972-06-07 15:00:00 Ts debe ser mayor o igual a Td Ts=14.2 - Td=14.7 2013-05-08 15:21:00
1 1972-06-17 11:00:00 Ts debe ser mayor o igual a Td Ts=5.8 - Td=6.2 2013-05-08 15:21:00
1 1972-06-19 14:00:00 Ts debe ser mayor o igual a Td Ts=8.6 - Td=8.8 2013-05-08 15:21:00
1 1972-06-19 18:00:00 Ts debe ser mayor o igual a Td Ts=2.0 - Td=23.8 2013-05-08 15:21:00
1 1972-06-19 21:00:00 Ts debe ser mayor o igual a Td Ts=2.1 - Td=24.9 2013-05-08 15:21:00
1 1972-06-20 09:00:00 Ts debe ser mayor o igual a Td Ts=0.5 - Td=8.5 2013-05-08 15:21:00
1 1972-06-22 12:00:00 Ts debe ser mayor o igual a Td Ts=0.6 - Td=10.7 2013-05-08 15:21:00
1 1972-06-23 06:00:00 Ts debe ser mayor o igual a Td Ts=0.7 - Td=11.9 2013-05-08 15:21:00
1 1972-06-23 12:00:00 Ts debe ser mayor o igual a Td Ts=5.4 - Td=6.4 2013-05-08 15:21:00
1 1972-06-23 13:00:00 Ts debe ser mayor o igual a Td Ts=0.5 - Td=10.9 2013-05-08 15:22:00
1 1972-06-23 16:00:00 Ts debe ser mayor o igual a Td Ts=10.4 - Td=13.1 2013-05-08 15:22:00
1 1972-06-23 17:00:00 Ts debe ser mayor o igual a Td Ts=15.3 - Td=17.9 2013-05-08 15:22:00
1 1972-06-27 12:00:00 Ts debe ser mayor o igual a Td Ts=0.9 - Td=14.3 2013-05-08 15:22:00
1 1972-07-01 09:00:00 Ts debe ser mayor o igual a Td Ts=0.7 - Td=11.9 2013-05-08 15:22:00
1 1972-07-01 21:00:00 Ts debe ser mayor o igual a Td Ts=1.4 - Td=19.6 2013-05-08 15:22:00
1 1972-07-03 11:00:00 Ts debe ser mayor o igual a Td Ts=0.3 - Td=15.5 2013-05-08 15:22:00
1 1972-07-03 13:00:00 Ts debe ser mayor o igual a Td Ts=0.0 - Td=0.5 2013-05-08 15:22:00
1 1972-07-04 09:00:00 Ts debe ser mayor o igual a Td Ts=0.7 - Td=9.1 2013-05-08 15:22:00
1 1972-07-04 11:00:00 Ts debe ser mayor o igual a Td Ts=-0.5 - Td=-0.2 2013-05-08 15:22:00
1 1972-07-04 13:00:00 Ts debe ser mayor o igual a Td Ts=-0.5 - Td=0.5 2013-05-08 15:22:00
1 1972-07-04 14:00:00 Ts debe ser mayor o igual a Td Ts=2.4 - Td=21.5 2013-05-08 15:22:00
1 1972-07-04 21:00:00 Ts debe ser mayor o igual a Td Ts=1.7 - Td=20.6 2013-05-08 15:22:00
1 1972-07-05 12:00:00 Ts debe ser mayor o igual a Td Ts=5.5 - Td=6.5 2013-05-08 15:22:00
1 1972-07-05 12:00:00 HR (Humedad Relativa) es igual a 100% y Ts <> Td 5.5 - 6.5 2013-05-08 17:26:00
1 1972-07-06 06:00:00 Ts debe ser mayor o igual a Td Ts=0.6 - Td=10.0 2013-05-08 15:22:00
1 1972-07-06 09:00:00 Ts debe ser mayor o igual a Td Ts=0.8 - Td=12.2 2013-05-08 15:22:00
1 1972-07-06 15:00:00 Ts debe ser mayor o igual a Td Ts=0.7 - Td=11.7 2013-05-08 15:22:00
1 1972-07-06 17:00:00 Ts debe ser mayor o igual a Td Ts=2.0 - Td=15.3 2013-05-08 15:22:00
1 1972-07-07 15:00:00 Ts debe ser mayor o igual a Td Ts=0.6 - Td=8.3 2013-05-08 15:22:00
1 1972-07-08 11:00:00 Ts debe ser mayor o igual a Td Ts=-0.2 - Td=1.5 2013-05-08 15:22:00
1 1972-07-09 00:00:00 Ts debe ser mayor o igual a Td Ts=1.1 - Td=15.0 2013-05-08 15:22:00
1 1972-07-09 06:00:00 Ts debe ser mayor o igual a Td Ts=0.4 - Td=7.7 2013-05-08 15:22:00
1 1972-07-09 06:00:00 HR (Humedad Relativa) es igual a 100% y Ts <> Td 0.4 - 7.7 2013-05-08 17:26:00
1 1972-07-09 18:00:00 Ts debe ser mayor o igual a Td Ts=1.3 - Td=19.6 2013-05-08 15:22:00
1 1972-07-09 21:00:00 Ts debe ser mayor o igual a Td Ts=1.6 - Td=20.6 2013-05-08 15:22:00
1 1972-07-11 21:00:00 Ts debe ser mayor o igual a Td Ts=1.3 - Td=17.2 2013-05-08 15:22:00
1 1972-07-12 12:00:00 Ts debe ser mayor o igual a Td Ts=5.5 - Td=6.3 2013-05-08 15:22:00
1 1972-07-13 00:00:00 Ts debe ser mayor o igual a Td Ts=1.1 - Td=16.1 2013-05-08 15:22:00
1 1972-07-13 18:00:00 Ts debe ser mayor o igual a Td Ts=1.5 - Td=19.5 2013-05-08 15:22:00
1 1972-07-13 21:00:00 Ts debe ser mayor o igual a Td Ts=1.7 - Td=22.3 2013-05-08 15:22:00
1 1972-07-14 00:00:00 Ts debe ser mayor o igual a Td Ts=1.1 - Td=16.0 2013-05-08 15:22:00
1 1972-07-15 06:00:00 Ts debe ser mayor o igual a Td Ts=0.5 - Td=9.3 2013-05-08 15:22:00
1 1972-07-15 06:00:00 HR (Humedad Relativa) es igual a 100% y Ts <> Td 0.5 - 9.3 2013-05-08 17:26:00
1 1972-07-15 11:00:00 Ts debe ser mayor o igual a Td Ts=11.8 - Td=21.0 2013-05-08 15:22:00
1 1972-07-15 15:00:00 Ts debe ser mayor o igual a Td Ts=0.8 - Td=12.9 2013-05-08 15:22:00
1 1972-07-15 18:00:00 Ts debe ser mayor o igual a Td Ts=1.7 - Td=20.0 2013-05-08 15:22:00
1 1972-07-17 18:00:00 Ts debe ser mayor o igual a Td Ts=1.5 - Td=19.5 2013-05-08 15:22:00
1 1972-07-17 21:00:00 Ts debe ser mayor o igual a Td Ts=0.3 - Td=20.1 2013-05-08 15:22:00
1 1972-07-21 09:00:00 Ts debe ser mayor o igual a Td Ts=0.0 - Td=9.9 2013-05-08 15:22:00
1 1972-07-21 12:00:00 Ts debe ser mayor o igual a Td Ts=-0.8 - Td=10.6 2013-05-08 15:22:00
1 1972-07-21 13:00:00 Ts debe ser mayor o igual a Td Ts=-0.5 - Td=0.7 2013-05-08 15:22:00
1 1972-07-22 09:00:00 Ts debe ser mayor o igual a Td Ts=1.6 - Td=22.9 2013-05-08 15:22:00
1 1972-07-22 09:00:00 HR (Humedad Relativa) es igual a 100% y Ts <> Td 1.6 - 22.9 2013-05-08 17:26:00
1 1972-07-23 06:00:00 Ts debe ser mayor o igual a Td Ts=0.4 - Td=5.5 2013-05-08 15:22:00
1 1972-07-23 15:00:00 Ts debe ser mayor o igual a Td Ts=0.8 - Td=12.7 2013-05-08 15:22:00
1 1972-07-24 13:00:00 Ts debe ser mayor o igual a Td Ts=6.9 - Td=7.1 2013-05-08 15:22:00
1 1972-07-24 18:00:00 Ts debe ser mayor o igual a Td Ts=1.1 - Td=16.0 2013-05-08 15:22:00
1 1972-07-25 06:00:00 Ts debe ser mayor o igual a Td Ts=0.9 - Td=13.2 2013-05-08 15:22:00
1 1972-07-25 09:00:00 Ts debe ser mayor o igual a Td Ts=0.9 - Td=14.9 2013-05-08 15:22:00
1 1972-07-25 09:00:00 HR (Humedad Relativa) es igual a 100% y Ts <> Td 0.9 - 14.9 2013-05-08 17:26:00
1 1972-07-25 18:00:00 Ts debe ser mayor o igual a Td Ts=1.1 - Td=16.3 2013-05-08 15:22:00
1 1972-07-28 09:00:00 Ts debe ser mayor o igual a Td Ts=1.1 - Td=16.9 2013-05-08 15:22:00
1 1972-07-28 12:00:00 Ts debe ser mayor o igual a Td Ts=1.0 - Td=16.0 2013-05-08 15:22:00
1 1972-07-28 13:00:00 Ts debe ser mayor o igual a Td Ts=9.6 - Td=10.3 2013-05-08 15:22:00
1 1972-07-31 06:00:00 Ts debe ser mayor o igual a Td Ts=1.1 - Td=17.1 2013-05-08 15:22:00
1 1972-07-31 12:00:00 Ts debe ser mayor o igual a Td Ts=1.1 - Td=16.8 2013-05-08 15:22:00
1 1972-08-01 09:00:00 Ts debe ser mayor o igual a Td Ts=1.2 - Td=18.5 2013-05-08 15:22:00
1 1972-08-01 09:00:00 HR (Humedad Relativa) es igual a 100% y Ts <> Td 1.2 - 18.5 2013-05-08 17:26:00
1 1972-08-02 00:00:00 Ts debe ser mayor o igual a Td Ts=1.2 - Td=17.3 2013-05-08 15:22:00
1 1972-08-03 06:00:00 Ts debe ser mayor o igual a Td Ts=0.5 - Td=9.3 2013-05-08 15:22:00
1 1972-08-03 06:00:00 HR (Humedad Relativa) es igual a 100% y Ts <> Td 0.5 - 9.3 2013-05-08 17:27:00
1 1972-08-03 09:00:00 Ts debe ser mayor o igual a Td Ts=0.6 - Td=10.8 2013-05-08 15:22:00
1 1972-08-03 09:00:00 HR (Humedad Relativa) es igual a 100% y Ts <> Td 0.6 - 10.8 2013-05-08 17:27:00
1 1972-08-08 06:00:00 Ts debe ser mayor o igual a Td Ts=1.1 - Td=16.0 2013-05-08 15:22:00
1 1972-08-08 09:00:00 Ts debe ser mayor o igual a Td Ts=1.1 - Td=16.8 2013-05-08 15:22:00
1 1972-08-08 15:00:00 Ts debe ser mayor o igual a Td Ts=1.5 - Td=21.6 2013-05-08 15:22:00
1 1972-08-22 12:00:00 Ts debe ser mayor o igual a Td Ts=3.0 - Td=10.5 2013-05-08 15:22:00
1 1972-08-22 12:00:00 HR (Humedad Relativa) es igual a 100% y Ts <> Td 3.0 - 10.5 2013-05-08 17:27:00
1 1972-08-26 00:00:00 Ts debe ser mayor o igual a Td Ts=1.0 - Td=14.8 2013-05-08 15:22:00
1 1972-08-26 06:00:00 Ts debe ser mayor o igual a Td Ts=6.0 - Td=6.4 2013-05-08 15:22:00
1 1972-08-28 06:00:00 Ts debe ser mayor o igual a Td Ts=1.0 - Td=15.2 2013-05-08 15:22:00
1 1972-08-28 12:00:00 Ts debe ser mayor o igual a Td Ts=0.5 - Td=9.0 2013-05-08 15:22:00
1 1972-08-28 15:00:00 Ts debe ser mayor o igual a Td Ts=1.3 - Td=16.0 2013-05-08 15:22:00
1 1972-08-30 09:00:00 Ts debe ser mayor o igual a Td Ts=0.2 - Td=4.2 2013-05-08 15:22:00
1 1972-08-30 09:00:00 HR (Humedad Relativa) es igual a 100% y Ts <> Td 0.2 - 4.2 2013-05-08 17:27:00
1 1972-08-30 12:00:00 Ts debe ser mayor o igual a Td Ts=0.1 - Td=2.2 2013-05-08 15:22:00
1 1972-08-30 12:00:00 HR (Humedad Relativa) es igual a 100% y Ts <> Td 0.1 - 2.2 2013-05-08 17:27:00
1 1972-08-30 15:00:00 Ts debe ser mayor o igual a Td Ts=1.4 - Td=15.9 2013-05-08 15:22:00
1 1972-09-02 09:00:00 Ts debe ser mayor o igual a Td Ts=6.9 - Td=7.1 2013-05-08 15:22:00
1 1972-09-03 09:00:00 Ts debe ser mayor o igual a Td Ts=1.0 - Td=16.1 2013-05-08 15:22:00
1 1972-09-03 09:00:00 HR (Humedad Relativa) es igual a 100% y Ts <> Td 1.0 - 16.1 2013-05-08 17:27:00
1 1972-09-04 09:00:00 Ts debe ser mayor o igual a Td Ts=10.8 - Td=11.2 2013-05-08 15:22:00
1 1972-09-05 21:00:00 Ts debe ser mayor o igual a Td Ts=1.4 - Td=19.5 2013-05-08 15:23:00
1 1972-09-06 18:00:00 Ts debe ser mayor o igual a Td Ts=13.5 - Td=15.9 2013-05-08 15:23:00
1 1972-09-07 06:00:00 Ts debe ser mayor o igual a Td Ts=1.0 - Td=14.8 2013-05-08 15:23:00
1 1972-09-07 09:00:00 Ts debe ser mayor o igual a Td Ts=0.8 - Td=12.9 2013-05-08 15:23:00
1 1972-09-07 12:00:00 Ts debe ser mayor o igual a Td Ts=1.0 - Td=16.1 2013-05-08 15:23:00
1 1972-09-07 12:00:00 HR (Humedad Relativa) es igual a 100% y Ts <> Td 1.0 - 16.1 2013-05-08 17:27:00
1 1972-09-15 09:00:00 Ts debe ser mayor o igual a Td Ts=1.0 - Td=16.1 2013-05-08 15:23:00
1 1972-09-15 09:00:00 HR (Humedad Relativa) es igual a 100% y Ts <> Td 1.0 - 16.1 2013-05-08 17:27:00
1 1972-09-15 12:00:00 Ts debe ser mayor o igual a Td Ts=1.0 - Td=16.1 2013-05-08 15:23:00
1 1972-09-15 12:00:00 HR (Humedad Relativa) es igual a 100% y Ts <> Td 1.0 - 16.1 2013-05-08 17:27:00
1 1972-09-15 21:00:00 Ts debe ser mayor o igual a Td Ts=1.2 - Td=18.2 2013-05-08 15:23:00
1 1972-09-20 14:00:00 Ts debe ser mayor o igual a Td Ts=9.8 - Td=11.9 2013-05-08 15:23:00
1 1972-09-21 18:00:00 Ts debe ser mayor o igual a Td Ts=2.4 - Td=25.8 2013-05-08 15:23:00
1 1972-09-21 21:00:00 Ts debe ser mayor o igual a Td Ts=2.3 - Td=25.3 2013-05-08 15:23:00
1 1972-09-23 06:00:00 Ts debe ser mayor o igual a Td Ts=1.1 - Td=17.3 2013-05-08 15:23:00
1 1972-09-23 06:00:00 HR (Humedad Relativa) es igual a 100% y Ts <> Td 1.1 - 17.3 2013-05-08 17:27:00
1 1972-09-23 12:00:00 Ts debe ser mayor o igual a Td Ts=1.1 - Td=16.7 2013-05-08 15:23:00
1 1972-09-23 18:00:00 Ts debe ser mayor o igual a Td Ts=1.9 - Td=22.0 2013-05-08 15:23:00
1 1972-09-23 21:00:00 Ts debe ser mayor o igual a Td Ts=1.7 - Td=22.3 2013-05-08 15:23:00
1 1972-09-30 12:00:00 Ts debe ser mayor o igual a Td Ts=0.1 - Td=16.4 2013-05-08 15:23:00
1 1972-09-30 15:00:00 Ts debe ser mayor o igual a Td Ts=1.3 - Td=18.5 2013-05-08 15:23:00
1 1972-09-30 18:00:00 Ts debe ser mayor o igual a Td Ts=1.4 - Td=18.4 2013-05-08 15:23:00
1 1972-09-30 21:00:00 Ts debe ser mayor o igual a Td Ts=1.6 - Td=20.6 2013-05-08 15:23:00
1 1972-10-02 06:00:00 Ts debe ser mayor o igual a Td Ts=0.9 - Td=13.5 2013-05-08 15:23:00
1 1972-10-08 12:00:00 Ts debe ser mayor o igual a Td Ts=7.4 - Td=8.5 2013-05-08 15:23:00
1 1972-10-22 06:00:00 Ts debe ser mayor o igual a Td Ts=9.4 - Td=9.8 2013-05-08 15:23:00
1 1972-10-22 06:00:00 HR (Humedad Relativa) es igual a 100% y Ts <> Td 9.4 - 9.8 2013-05-08 17:27:00
1 1972-11-10 17:00:00 Ts debe ser mayor o igual a Td Ts=10.0 - Td=17.1 2013-05-08 15:23:00
1 1972-11-10 19:00:00 Ts debe ser mayor o igual a Td Ts=14.5 - Td=18.3 2013-05-08 15:23:00
1 1972-11-10 20:00:00 Ts debe ser mayor o igual a Td Ts=14.6 - Td=18.0 2013-05-08 15:23:00
1 1972-11-10 22:00:00 Ts debe ser mayor o igual a Td Ts=13.7 - Td=15.8 2013-05-08 15:23:00
1 1972-11-10 23:00:00 Ts debe ser mayor o igual a Td Ts=13.7 - Td=15.8 2013-05-08 15:23:00
1 1972-11-14 20:00:00 Ts debe ser mayor o igual a Td Ts=16.6 - Td=17.8 2013-05-08 15:23:00
1 1972-11-27 09:00:00 Ts debe ser mayor o igual a Td Ts=9.8 - Td=10.2 2013-05-08 15:24:00
1 1972-12-01 06:00:00 Ts debe ser mayor o igual a Td Ts=14.0 - Td=18.6 2013-05-08 15:24:00
1 1972-12-15 18:00:00 Ts debe ser mayor o igual a Td Ts=23.5 - Td=24.2 2013-05-08 15:24:00
1 1972-12-16 23:00:00 Ts debe ser mayor o igual a Td Ts=2.0 - Td=25.9 2013-05-08 15:24:00
1 1973-01-24 09:00:00 Ts debe ser mayor o igual a Td Ts=8.8 - Td=33.6 2013-05-08 15:24:00
1 1973-01-26 12:00:00 Ts debe ser mayor o igual a Td Ts=11.5 - Td=12.4 2013-05-08 15:24:00
1 1973-01-28 06:00:00 Ts debe ser mayor o igual a Td Ts=13.6 - Td=14.3 2013-05-08 15:24:00
1 1973-02-03 16:00:00 Ts debe ser mayor o igual a Td Ts=15.5 - Td=24.5 2013-05-08 15:24:00
1 1973-02-12 18:00:00 Ts debe ser mayor o igual a Td Ts=2.3 - Td=26.3 2013-05-08 15:25:00
1 1973-02-18 14:00:00 Ts debe ser mayor o igual a Td Ts=14.5 - Td=15.0 2013-05-08 15:25:00
1 1973-03-31 15:00:00 Ts debe ser mayor o igual a Td Ts=18.3 - Td=19.3 2013-05-08 15:25:00
1 1973-04-04 15:00:00 Ts debe ser mayor o igual a Td Ts=7.0 - Td=19.3 2013-05-08 15:25:00
1 1973-04-05 06:00:00 Ts debe ser mayor o igual a Td Ts=13.0 - Td=14.0 2013-05-08 15:25:00
1 1973-04-12 12:00:00 Ts debe ser mayor o igual a Td Ts=0.5 - Td=9.3 2013-05-08 15:25:00
1 1973-04-12 12:00:00 HR (Humedad Relativa) es igual a 100% y Ts <> Td 0.5 - 9.3 2013-05-08 17:30:00
1 1973-04-17 12:00:00 Ts debe ser mayor o igual a Td Ts=11.0 - Td=15.9 2013-05-08 15:25:00
1 1973-04-17 12:00:00 HR (Humedad Relativa) es igual a 100% y Ts <> Td 11.0 - 15.9 2013-05-08 17:30:00
1 1973-04-22 18:00:00 Ts debe ser mayor o igual a Td Ts=8.5 - Td=17.2 2013-05-08 15:25:00
1 1973-04-25 09:00:00 Ts debe ser mayor o igual a Td Ts=5.0 - Td=6.0 2013-05-08 15:25:00
1 1973-04-28 13:00:00 Ts debe ser mayor o igual a Td Ts=5.4 - Td=5.8 2013-05-08 15:25:00
1 1973-05-04 09:00:00 Ts debe ser mayor o igual a Td Ts=6.8 - Td=10.0 2013-05-08 15:25:00
1 1973-05-11 16:00:00 Ts debe ser mayor o igual a Td Ts=8.7 - Td=9.3 2013-05-08 15:26:00
1 1973-05-22 00:00:00 Ts debe ser mayor o igual a Td Ts=13.8 - Td=14.1 2013-05-08 15:26:00
1 1973-05-22 13:00:00 Ts debe ser mayor o igual a Td Ts=8.0 - Td=8.9 2013-05-08 15:26:00
1 1973-05-29 15:00:00 Ts debe ser mayor o igual a Td Ts=9.5 - Td=19.4 2013-05-08 15:26:00
1 1973-06-01 15:00:00 Ts debe ser mayor o igual a Td Ts=9.5 - Td=9.7 2013-05-08 15:26:00
1 1973-06-02 15:00:00 Ts debe ser mayor o igual a Td Ts=16.0 - Td=19.0 2013-05-08 15:26:00
1 1973-06-03 13:00:00 Ts debe ser mayor o igual a Td Ts=6.2 - Td=9.6 2013-05-08 15:26:00
1 1973-06-21 19:00:00 Ts debe ser mayor o igual a Td Ts=7.0 - Td=18.1 2013-05-08 15:26:00
1 1973-06-23 11:00:00 Ts debe ser mayor o igual a Td Ts=7.0 - Td=7.4 2013-05-08 15:26:00
1 1973-07-03 23:00:00 Ts debe ser mayor o igual a Td Ts=9.5 - Td=9.7 2013-05-08 15:26:00
1 1973-07-08 06:00:00 Ts debe ser mayor o igual a Td Ts=16.5 - Td=18.8 2013-05-08 15:26:00
1 1973-07-08 09:00:00 Ts debe ser mayor o igual a Td Ts=12.5 - Td=13.3 2013-05-08 15:26:00
1 1973-07-08 20:00:00 Ts debe ser mayor o igual a Td Ts=13.0 - Td=13.7 2013-05-08 15:26:00
1 1973-07-14 12:00:00 Ts debe ser mayor o igual a Td Ts=1.0 - Td=16.1 2013-05-08 15:26:00
1 1973-07-14 12:00:00 HR (Humedad Relativa) es igual a 100% y Ts <> Td 1.0 - 16.1 2013-05-08 17:31:00
1 1973-07-16 12:00:00 Ts debe ser mayor o igual a Td Ts=1.5 - Td=21.9 2013-05-08 15:26:00
1 1973-07-16 16:00:00 Ts debe ser mayor o igual a Td Ts=1.0 - Td=13.5 2013-05-08 15:26:00
1 1973-07-17 09:00:00 Ts debe ser mayor o igual a Td Ts=0.4 - Td=7.7 2013-05-08 15:26:00
1 1973-07-17 09:00:00 HR (Humedad Relativa) es igual a 100% y Ts <> Td 0.4 - 7.7 2013-05-08 17:31:00
1 1973-07-22 12:00:00 Ts debe ser mayor o igual a Td Ts=1.3 - Td=19.7 2013-05-08 15:27:00
1 1973-07-22 12:00:00 HR (Humedad Relativa) es igual a 100% y Ts <> Td 1.3 - 19.7 2013-05-08 17:31:00
1 1973-07-27 14:00:00 Ts debe ser mayor o igual a Td Ts=4.5 - Td=5.5 2013-05-08 15:27:00
1 1973-07-28 15:00:00 Ts debe ser mayor o igual a Td Ts=0.8 - Td=13.3 2013-05-08 15:27:00
1 1973-07-30 12:00:00 Ts debe ser mayor o igual a Td Ts=8.8 - Td=9.2 2013-05-08 15:27:00
1 1973-07-30 12:00:00 HR (Humedad Relativa) es igual a 100% y Ts <> Td 8.8 - 9.2 2013-05-08 17:31:00
1 1974-01-07 15:00:00 Ts debe ser mayor o igual a Td Ts=2.5 - Td=23.6 2013-05-08 15:27:00
1 1974-01-22 14:00:00 Ts debe ser mayor o igual a Td Ts=10.6 - Td=18.1 2013-05-08 15:27:00
1 1974-03-14 13:00:00 Ts debe ser mayor o igual a Td Ts=1.4 - Td=15.5 2013-05-08 15:27:00
1 1974-04-06 18:00:00 Ts debe ser mayor o igual a Td Ts=0.2 - Td=25.9 2013-05-08 15:28:00
1 1974-04-11 00:00:00 Ts debe ser mayor o igual a Td Ts=15.2 - Td=21.9 2013-05-08 15:28:00
1 1974-04-12 09:00:00 Ts debe ser mayor o igual a Td Ts=13.4 - Td=34.2 2013-05-08 15:28:00
1 1974-04-23 06:00:00 Ts debe ser mayor o igual a Td Ts=1.0 - Td=14.8 2013-05-08 15:28:00
1 1974-05-25 11:00:00 Ts debe ser mayor o igual a Td Ts=4.0 - Td=6.1 2013-05-08 15:28:00
1 1974-05-26 12:00:00 Ts debe ser mayor o igual a Td Ts=1.8 - Td=25.0 2013-05-08 15:28:00
1 1974-05-26 12:00:00 HR (Humedad Relativa) es igual a 100% y Ts <> Td 1.8 - 25.0 2013-05-08 17:33:00
1 1974-05-30 14:00:00 Ts debe ser mayor o igual a Td Ts=10.0 - Td=22.4 2013-05-08 15:28:00
1 1974-05-31 09:00:00 Ts debe ser mayor o igual a Td Ts=5.0 - Td=19.8 2013-05-08 15:28:00
1 1974-05-31 12:00:00 Ts debe ser mayor o igual a Td Ts=2.0 - Td=9.7 2013-05-08 15:28:00
1 1974-06-04 11:00:00 Ts debe ser mayor o igual a Td Ts=1.4 - Td=18.4 2013-05-08 15:28:00
1 1974-06-04 13:00:00 Ts debe ser mayor o igual a Td Ts=1.2 - Td=16.0 2013-05-08 15:28:00
1 1974-06-06 09:00:00 Ts debe ser mayor o igual a Td Ts=5.0 - Td=8.8 2013-05-08 15:28:00
1 1974-06-17 13:00:00 Ts debe ser mayor o igual a Td Ts=8.6 - Td=9.3 2013-05-08 15:29:00
1 1974-06-24 16:00:00 Ts debe ser mayor o igual a Td Ts=11.3 - Td=22.1 2013-05-08 15:29:00
1 1974-07-06 06:00:00 Ts debe ser mayor o igual a Td Ts=5.0 - Td=13.6 2013-05-08 15:29:00
1 1974-07-06 06:00:00 HR (Humedad Relativa) es igual a 100% y Ts <> Td 5.0 - 13.6 2013-05-08 17:33:00
1 1974-07-07 06:00:00 Ts debe ser mayor o igual a Td Ts=7.5 - Td=11.9 2013-05-08 15:29:00
1 1974-07-09 15:00:00 Ts debe ser mayor o igual a Td Ts=6.3 - Td=12.1 2013-05-08 15:29:00
1 1974-07-13 21:00:00 Ts debe ser mayor o igual a Td Ts=13.2 - Td=23.0 2013-05-08 15:29:00
1 1974-07-14 13:00:00 Ts debe ser mayor o igual a Td Ts=0.6 - Td=5.7 2013-05-08 15:29:00
1 1974-07-18 09:00:00 Ts debe ser mayor o igual a Td Ts=4.0 - Td=19.6 2013-05-08 15:29:00
1 1974-07-18 09:00:00 HR (Humedad Relativa) es igual a 100% y Ts <> Td 4.0 - 19.6 2013-05-08 17:34:00
1 1974-07-19 09:00:00 Ts debe ser mayor o igual a Td Ts=1.6 - Td=17.8 2013-05-08 15:29:00
1 1974-07-20 14:00:00 Ts debe ser mayor o igual a Td Ts=0.4 - Td=2.3 2013-05-08 15:29:00
1 1974-07-21 09:00:00 Ts debe ser mayor o igual a Td Ts=-1.4 - Td=-0.4 2013-05-08 15:29:00
1 1974-07-21 15:00:00 Ts debe ser mayor o igual a Td Ts=6.0 - Td=10.8 2013-05-08 15:29:00
1 1974-07-23 13:00:00 Ts debe ser mayor o igual a Td Ts=-2.2 - Td=2.2 2013-05-08 15:29:00
1 1974-07-23 14:00:00 Ts debe ser mayor o igual a Td Ts=0.1 - Td=0.3 2013-05-08 15:29:00
1 1974-07-24 11:00:00 Ts debe ser mayor o igual a Td Ts=-1.5 - Td=5.9 2013-05-08 15:29:00
1 1974-07-24 13:00:00 Ts debe ser mayor o igual a Td Ts=-1.3 - Td=19.7 2013-05-08 15:29:00
1 1974-07-25 11:00:00 Ts debe ser mayor o igual a Td Ts=-0.5 - Td=1.9 2013-05-08 15:29:00
1 1974-07-29 17:00:00 Ts debe ser mayor o igual a Td Ts=2.0 - Td=18.1 2013-05-08 15:29:00
1 1974-08-07 00:00:00 Ts debe ser mayor o igual a Td Ts=11.0 - Td=21.3 2013-05-08 15:29:00
1 1974-08-07 14:00:00 Ts debe ser mayor o igual a Td Ts=0.4 - Td=9.7 2013-05-08 15:29:00
1 1974-08-07 18:00:00 Ts debe ser mayor o igual a Td Ts=2.6 - Td=15.2 2013-05-08 15:29:00
1 1974-08-10 21:00:00 Ts debe ser mayor o igual a Td Ts=8.0 - Td=12.5 2013-05-08 15:29:00
1 1974-08-12 11:00:00 Ts debe ser mayor o igual a Td Ts=2.0 - Td=4.2 2013-05-08 15:29:00
1 1974-08-14 18:00:00 Ts debe ser mayor o igual a Td Ts=12.0 - Td=19.0 2013-05-08 15:29:00
1 1974-08-19 06:00:00 Ts debe ser mayor o igual a Td Ts=9.6 - Td=10.0 2013-05-08 15:29:00
1 1974-08-24 12:00:00 Ts debe ser mayor o igual a Td Ts=6.0 - Td=6.4 2013-05-08 15:29:00
1 1974-08-26 11:00:00 Ts debe ser mayor o igual a Td Ts=6.0 - Td=6.4 2013-05-08 15:29:00
1 1974-08-27 06:00:00 Ts debe ser mayor o igual a Td Ts=4.0 - Td=14.3 2013-05-08 15:29:00
1 1974-08-27 06:00:00 HR (Humedad Relativa) es igual a 100% y Ts <> Td 4.0 - 14.3 2013-05-08 17:34:00
1 1974-09-02 12:00:00 Ts debe ser mayor o igual a Td Ts=-1.5 - Td=2.1 2013-05-08 15:30:00
1 1974-09-08 11:00:00 Ts debe ser mayor o igual a Td Ts=2.5 - Td=5.7 2013-05-08 15:30:00
1 1974-09-08 20:00:00 Ts debe ser mayor o igual a Td Ts=10.8 - Td=15.4 2013-05-08 15:30:00
1 1974-09-19 09:00:00 Ts debe ser mayor o igual a Td Ts=7.3 - Td=9.2 2013-05-08 15:30:00
1 1974-09-19 09:00:00 HR (Humedad Relativa) es igual a 100% y Ts <> Td 7.3 - 9.2 2013-05-08 17:34:00
1 1974-10-04 06:00:00 Ts debe ser mayor o igual a Td Ts=7.6 - Td=10.5 2013-05-08 15:30:00
1 1974-10-04 09:00:00 Ts debe ser mayor o igual a Td Ts=0.5 - Td=8.5 2013-05-08 15:30:00
1 1974-10-04 12:00:00 Ts debe ser mayor o igual a Td Ts=0.6 - Td=9.2 2013-05-08 15:30:00
1 1974-10-05 15:00:00 Ts debe ser mayor o igual a Td Ts=2.2 - Td=19.2 2013-05-08 15:30:00
1 1974-10-05 16:00:00 Ts debe ser mayor o igual a Td Ts=2.5 - Td=21.4 2013-05-08 15:30:00
1 1974-10-05 17:00:00 Ts debe ser mayor o igual a Td Ts=2.7 - Td=21.3 2013-05-08 15:30:00
1 1974-10-05 18:00:00 Ts debe ser mayor o igual a Td Ts=2.8 - Td=22.4 2013-05-08 15:30:00
1 1974-10-05 19:00:00 Ts debe ser mayor o igual a Td Ts=2.8 - Td=22.4 2013-05-08 15:30:00
1 1974-10-06 09:00:00 Ts debe ser mayor o igual a Td Ts=0.6 - Td=11.8 2013-05-08 15:30:00
1 1974-10-06 12:00:00 Ts debe ser mayor o igual a Td Ts=0.6 - Td=9.2 2013-05-08 15:30:00
1 1974-10-09 09:00:00 Ts debe ser mayor o igual a Td Ts=0.9 - Td=12.7 2013-05-08 15:30:00
1 1974-10-13 18:00:00 Ts debe ser mayor o igual a Td Ts=1.5 - Td=18.3 2013-05-08 15:30:00
1 1974-10-15 06:00:00 Ts debe ser mayor o igual a Td Ts=1.0 - Td=15.5 2013-05-08 15:30:00
1 1974-10-16 14:00:00 Ts debe ser mayor o igual a Td Ts=14.7 - Td=19.6 2013-05-08 15:30:00
1 1974-10-18 06:00:00 Ts debe ser mayor o igual a Td Ts=12.4 - Td=15.0 2013-05-08 15:30:00
1 1974-10-18 15:00:00 Ts debe ser mayor o igual a Td Ts=13.2 - Td=14.5 2013-05-08 15:30:00
1 1974-10-20 09:00:00 Ts debe ser mayor o igual a Td Ts=5.4 - Td=7.8 2013-05-08 15:30:00
1 1974-10-20 12:00:00 Ts debe ser mayor o igual a Td Ts=9.2 - Td=16.6 2013-05-08 15:30:00
1 1974-10-22 06:00:00 Ts debe ser mayor o igual a Td Ts=1.0 - Td=17.1 2013-05-08 15:30:00
1 1974-10-22 11:00:00 Ts debe ser mayor o igual a Td Ts=0.6 - Td=10.2 2013-05-08 15:30:00
1 1974-10-28 15:00:00 Ts debe ser mayor o igual a Td Ts=2.0 - Td=21.4 2013-05-08 15:30:00
1 1974-11-10 21:00:00 Ts debe ser mayor o igual a Td Ts=1.6 - Td=8.6 2013-05-08 15:30:00
1 1974-11-14 18:00:00 Ts debe ser mayor o igual a Td Ts=2.5 - Td=23.3 2013-05-08 15:30:00
1 1974-11-15 00:00:00 Ts debe ser mayor o igual a Td Ts=1.9 - Td=20.5 2013-05-08 15:31:00
1 1974-11-15 18:00:00 Ts debe ser mayor o igual a Td Ts=2.9 - Td=11.1 2013-05-08 15:31:00
1 1974-11-15 21:00:00 Ts debe ser mayor o igual a Td Ts=2.4 - Td=8.4 2013-05-08 15:31:00
1 1974-11-16 00:00:00 Ts debe ser mayor o igual a Td Ts=1.7 - Td=11.9 2013-05-08 15:31:00
1 1974-11-16 09:00:00 Ts debe ser mayor o igual a Td Ts=7.0 - Td=8.9 2013-05-08 15:31:00
1 1974-11-18 06:00:00 Ts debe ser mayor o igual a Td Ts=1.1 - Td=16.1 2013-05-08 15:31:00
1 1974-11-18 12:00:00 Ts debe ser mayor o igual a Td Ts=1.3 - Td=15.4 2013-05-08 15:31:00
1 1974-11-18 21:00:00 Ts debe ser mayor o igual a Td Ts=0.3 - Td=8.8 2013-05-08 15:31:00
1 1974-11-19 15:00:00 Ts debe ser mayor o igual a Td Ts=0.2 - Td=21.0 2013-05-08 15:31:00
1 1974-11-19 18:00:00 Ts debe ser mayor o igual a Td Ts=2.3 - Td=20.3 2013-05-08 15:31:00
1 1974-11-22 09:00:00 Ts debe ser mayor o igual a Td Ts=9.2 - Td=9.9 2013-05-08 15:31:00
1 1974-11-22 18:00:00 Ts debe ser mayor o igual a Td Ts=1.9 - Td=10.4 2013-05-08 15:31:00
1 1974-11-23 00:00:00 Ts debe ser mayor o igual a Td Ts=1.4 - Td=12.2 2013-05-08 15:31:00
1 1974-11-25 15:00:00 Ts debe ser mayor o igual a Td Ts=2.0 - Td=19.5 2013-05-08 15:31:00
1 1974-11-26 18:00:00 Ts debe ser mayor o igual a Td Ts=2.5 - Td=21.4 2013-05-08 15:31:00
1 1974-11-26 21:00:00 Ts debe ser mayor o igual a Td Ts=2.1 - Td=21.6 2013-05-08 15:31:00
1 1974-11-27 12:00:00 Ts debe ser mayor o igual a Td Ts=1.2 - Td=14.7 2013-05-08 15:31:00
1 1974-11-28 12:00:00 Ts debe ser mayor o igual a Td Ts=1.2 - Td=17.2 2013-05-08 15:31:00
1 1974-11-29 00:00:00 Ts debe ser mayor o igual a Td Ts=1.5 - Td=18.1 2013-05-08 15:31:00
1 1974-12-01 06:00:00 Ts debe ser mayor o igual a Td Ts=1.0 - Td=14.8 2013-05-08 15:31:00
1 1974-12-01 21:00:00 Ts debe ser mayor o igual a Td Ts=2.0 - Td=19.1 2013-05-08 15:31:00
1 1974-12-06 23:00:00 Ts debe ser mayor o igual a Td Ts=4.8 - Td=16.8 2013-05-08 15:31:00
1 1974-12-09 21:00:00 Ts debe ser mayor o igual a Td Ts=2.0 - Td=20.4 2013-05-08 15:31:00
1 1974-12-11 14:00:00 Ts debe ser mayor o igual a Td Ts=2.3 - Td=19.4 2013-05-08 15:31:00
1 1974-12-16 09:00:00 Ts debe ser mayor o igual a Td Ts=0.9 - Td=13.5 2013-05-08 15:31:00
1 1974-12-16 11:00:00 Ts debe ser mayor o igual a Td Ts=0.9 - Td=14.2 2013-05-08 15:31:00
1 1974-12-16 21:00:00 Ts debe ser mayor o igual a Td Ts=2.0 - Td=22.5 2013-05-08 15:31:00
1 1974-12-28 18:00:00 Ts debe ser mayor o igual a Td Ts=16.5 - Td=16.7 2013-05-08 15:31:00
1 1974-12-29 06:00:00 Ts debe ser mayor o igual a Td Ts=1.0 - Td=14.3 2013-05-08 15:31:00
1 1974-12-31 09:00:00 Ts debe ser mayor o igual a Td Ts=11.2 - Td=12.6 2013-05-08 15:31:00
1 1975-01-05 15:00:00 Ts debe ser mayor o igual a Td Ts=2.0 - Td=22.1 2013-05-08 15:31:00
1 1975-01-11 00:00:00 Ts debe ser mayor o igual a Td Ts=1.0 - Td=21.6 2013-05-08 15:31:00
1 1975-01-16 21:00:00 Ts debe ser mayor o igual a Td Ts=15.0 - Td=17.8 2013-05-08 15:31:00
1 1975-01-19 15:00:00 Ts debe ser mayor o igual a Td Ts=13.0 - Td=16.0 2013-05-08 15:31:00
1 1975-01-19 20:00:00 Ts debe ser mayor o igual a Td Ts=12.4 - Td=19.1 2013-05-08 15:31:00
1 1975-01-27 22:00:00 Ts debe ser mayor o igual a Td Ts=3.0 - Td=24.5 2013-05-08 15:31:00
1 1975-02-07 09:00:00 Ts debe ser mayor o igual a Td Ts=9.2 - Td=9.6 2013-05-08 15:32:00
1 1975-02-07 12:00:00 Ts debe ser mayor o igual a Td Ts=11.0 - Td=18.7 2013-05-08 15:32:00
1 1975-02-12 13:00:00 Ts debe ser mayor o igual a Td Ts=13.0 - Td=14.6 2013-05-08 15:32:00
1 1975-02-17 12:00:00 Ts debe ser mayor o igual a Td Ts=12.0 - Td=18.9 2013-05-08 15:32:00
1 1975-02-18 11:00:00 Ts debe ser mayor o igual a Td Ts=10.6 - Td=11.3 2013-05-08 15:32:00
1 1975-02-19 12:00:00 Ts debe ser mayor o igual a Td Ts=12.2 - Td=16.0 2013-05-08 15:32:00
1 1975-02-23 15:00:00 Ts debe ser mayor o igual a Td Ts=10.0 - Td=17.1 2013-05-08 15:32:00
1 1975-02-26 15:00:00 Ts debe ser mayor o igual a Td Ts=17.7 - Td=19.6 2013-05-08 15:32:00
1 1975-03-02 21:00:00 Ts debe ser mayor o igual a Td Ts=12.0 - Td=17.9 2013-05-08 15:32:00
1 1975-03-10 12:00:00 Ts debe ser mayor o igual a Td Ts=1.0 - Td=14.5 2013-05-08 15:32:00
1 1975-03-14 09:00:00 Ts debe ser mayor o igual a Td Ts=8.0 - Td=8.2 2013-05-08 15:32:00
1 1975-03-30 09:00:00 Ts debe ser mayor o igual a Td Ts=7.0 - Td=7.4 2013-05-08 15:32:00
1 1975-04-01 11:00:00 Ts debe ser mayor o igual a Td Ts=0.5 - Td=7.6 2013-05-08 15:32:00
1 1975-04-01 13:00:00 Ts debe ser mayor o igual a Td Ts=0.9 - Td=13.2 2013-05-08 15:32:00
1 1975-04-05 13:00:00 Ts debe ser mayor o igual a Td Ts=2.0 - Td=9.7 2013-05-08 15:32:00
1 1975-04-06 13:00:00 Ts debe ser mayor o igual a Td Ts=7.4 - Td=20.4 2013-05-08 15:32:00
1 1975-04-07 12:00:00 Ts debe ser mayor o igual a Td Ts=0.9 - Td=13.5 2013-05-08 15:32:00
1 1975-04-08 15:00:00 Ts debe ser mayor o igual a Td Ts=2.0 - Td=19.3 2013-05-08 15:32:00
1 1975-04-11 18:00:00 Ts debe ser mayor o igual a Td Ts=3.2 - Td=24.7 2013-05-08 15:32:00
1 1975-04-15 00:00:00 Ts debe ser mayor o igual a Td Ts=17.5 - Td=18.0 2013-05-08 15:32:00
1 1975-04-22 16:00:00 Ts debe ser mayor o igual a Td Ts=12.8 - Td=15.1 2013-05-08 15:32:00
1 1975-04-23 18:00:00 Ts debe ser mayor o igual a Td Ts=7.0 - Td=21.4 2013-05-08 15:32:00
1 1975-04-26 09:00:00 Ts debe ser mayor o igual a Td Ts=12.8 - Td=26.5 2013-05-08 15:33:00
1 1975-05-01 09:00:00 Ts debe ser mayor o igual a Td Ts=3.4 - Td=26.5 2013-05-08 15:33:00
1 1975-05-13 21:00:00 Ts debe ser mayor o igual a Td Ts=4.0 - Td=16.5 2013-05-08 15:33:00
1 1975-05-17 06:00:00 Ts debe ser mayor o igual a Td Ts=0.6 - Td=10.5 2013-05-08 15:33:00
1 1975-05-17 12:00:00 Ts debe ser mayor o igual a Td Ts=0.1 - Td=0.6 2013-05-08 15:33:00
1 1975-05-17 18:00:00 Ts debe ser mayor o igual a Td Ts=0.8 - Td=23.2 2013-05-08 15:33:00
1 1975-05-18 00:00:00 Ts debe ser mayor o igual a Td Ts=0.8 - Td=18.7 2013-05-08 15:33:00
1 1975-05-18 06:00:00 Ts debe ser mayor o igual a Td Ts=0.6 - Td=9.9 2013-05-08 15:33:00
1 1975-05-18 09:00:00 Ts debe ser mayor o igual a Td Ts=0.6 - Td=9.2 2013-05-08 15:33:00
1 1975-05-18 12:00:00 Ts debe ser mayor o igual a Td Ts=0.6 - Td=9.2 2013-05-08 15:33:00
1 1975-05-18 13:00:00 Ts debe ser mayor o igual a Td Ts=0.6 - Td=9.2 2013-05-08 15:33:00
1 1975-05-18 14:00:00 Ts debe ser mayor o igual a Td Ts=0.8 - Td=12.4 2013-05-08 15:33:00
1 1975-05-19 00:00:00 Ts debe ser mayor o igual a Td Ts=11.5 - Td=13.7 2013-05-08 15:33:00
1 1975-05-22 11:00:00 Ts debe ser mayor o igual a Td Ts=9.0 - Td=10.8 2013-05-08 15:33:00
1 1975-05-23 00:00:00 Ts debe ser mayor o igual a Td Ts=14.3 - Td=18.7 2013-05-08 15:33:00
1 1975-05-25 12:00:00 Ts debe ser mayor o igual a Td Ts=5.6 - Td=31.4 2013-05-08 15:33:00
1 1975-05-27 22:00:00 Ts debe ser mayor o igual a Td Ts=12.0 - Td=16.2 2013-05-08 15:33:00
1 1975-06-03 13:00:00 Ts debe ser mayor o igual a Td Ts=0.2 - Td=4.2 2013-05-08 15:33:00
1 1975-06-03 15:00:00 Ts debe ser mayor o igual a Td Ts=0.7 - Td=10.7 2013-05-08 15:33:00
1 1975-06-04 09:00:00 Ts debe ser mayor o igual a Td Ts=2.2 - Td=20.4 2013-05-08 15:33:00
1 1975-06-07 15:00:00 Ts debe ser mayor o igual a Td Ts=9.0 - Td=10.4 2013-05-08 15:33:00
1 1975-06-11 09:00:00 Ts debe ser mayor o igual a Td Ts=11.0 - Td=23.8 2013-05-08 15:33:00
1 1975-06-12 13:00:00 Ts debe ser mayor o igual a Td Ts=0.4 - Td=7.4 2013-05-08 15:33:00
1 1975-06-13 09:00:00 Ts debe ser mayor o igual a Td Ts=4.2 - Td=9.5 2013-05-08 15:33:00
1 1975-06-16 19:00:00 Ts debe ser mayor o igual a Td Ts=7.8 - Td=17.9 2013-05-08 15:33:00
1 1975-06-19 06:00:00 Ts debe ser mayor o igual a Td Ts=1.0 - Td=14.8 2013-05-08 15:33:00
1 1975-06-23 06:00:00 Ts debe ser mayor o igual a Td Ts=0.9 - Td=14.2 2013-05-08 15:33:00
1 1975-06-27 06:00:00 Ts debe ser mayor o igual a Td Ts=0.7 - Td=12.2 2013-05-08 15:33:00
1 1975-06-27 11:00:00 Ts debe ser mayor o igual a Td Ts=0.6 - Td=10.8 2013-05-08 15:33:00
1 1975-06-27 13:00:00 Ts debe ser mayor o igual a Td Ts=0.5 - Td=9.0 2013-05-08 15:33:00
1 1975-06-27 14:00:00 Ts debe ser mayor o igual a Td Ts=0.6 - Td=10.0 2013-05-08 15:33:00
1 1975-06-30 11:00:00 Ts debe ser mayor o igual a Td Ts=0.5 - Td=7.6 2013-05-08 15:33:00
1 1975-07-01 14:00:00 Ts debe ser mayor o igual a Td Ts=8.5 - Td=9.4 2013-05-08 15:33:00
1 1975-07-05 06:00:00 Ts debe ser mayor o igual a Td Ts=0.5 - Td=8.5 2013-05-08 15:33:00
1 1975-07-10 17:00:00 Ts debe ser mayor o igual a Td Ts=9.8 - Td=10.0 2013-05-08 15:33:00
1 1975-07-11 13:00:00 Ts debe ser mayor o igual a Td Ts=1.4 - Td=2.3 2013-05-08 15:33:00
1 1975-07-17 06:00:00 Ts debe ser mayor o igual a Td Ts=0.4 - Td=5.9 2013-05-08 15:34:00
1 1975-07-17 11:00:00 Ts debe ser mayor o igual a Td Ts=0.4 - Td=9.7 2013-05-08 15:34:00
1 1975-07-17 15:00:00 Ts debe ser mayor o igual a Td Ts=0.7 - Td=11.0 2013-05-08 15:34:00
1 1975-07-24 09:00:00 Ts debe ser mayor o igual a Td Ts=2.0 - Td=27.0 2013-05-08 15:34:00
1 1975-07-24 09:00:00 HR (Humedad Relativa) es igual a 100% y Ts <> Td 2.0 - 27.0 2013-05-08 17:38:00
1 1975-07-26 11:00:00 Ts debe ser mayor o igual a Td Ts=1.0 - Td=2.2 2013-05-08 15:34:00
1 1975-07-28 06:00:00 Ts debe ser mayor o igual a Td Ts=5.2 - Td=6.6 2013-05-08 15:34:00
1 1975-07-28 15:00:00 Ts debe ser mayor o igual a Td Ts=8.2 - Td=9.3 2013-05-08 15:34:00
1 1975-07-29 09:00:00 Ts debe ser mayor o igual a Td Ts=0.5 - Td=8.5 2013-05-08 15:34:00
1 1975-08-05 11:00:00 Ts debe ser mayor o igual a Td Ts=9.6 - Td=10.1 2013-05-08 15:34:00
1 1975-08-05 12:00:00 Ts debe ser mayor o igual a Td Ts=9.6 - Td=11.0 2013-05-08 15:34:00
1 1975-08-16 13:00:00 Ts debe ser mayor o igual a Td Ts=3.6 - Td=4.0 2013-05-08 15:34:00
1 1975-08-29 15:00:00 Ts debe ser mayor o igual a Td Ts=11.0 - Td=14.0 2013-05-08 15:34:00
1 1975-09-08 13:00:00 Ts debe ser mayor o igual a Td Ts=0.3 - Td=10.3 2013-05-08 15:34:00
1 1975-09-12 13:00:00 Ts debe ser mayor o igual a Td Ts=6.9 - Td=12.7 2013-05-08 15:34:00
1 1975-10-17 18:00:00 Ts debe ser mayor o igual a Td Ts=16.0 - Td=17.5 2013-05-08 15:35:00
1 1975-11-30 09:00:00 Ts debe ser mayor o igual a Td Ts=6.8 - Td=9.1 2013-05-08 15:35:00
1 1975-12-06 09:00:00 Ts debe ser mayor o igual a Td Ts=7.5 - Td=9.4 2013-05-08 15:35:00
1 1976-01-08 15:00:00 Ts debe ser mayor o igual a Td Ts=15.1 - Td=18.3 2013-05-08 15:36:00
1 1976-01-23 11:00:00 Ts debe ser mayor o igual a Td Ts=13.8 - Td=19.8 2013-05-08 15:36:00
1 1976-02-23 14:00:00 Ts debe ser mayor o igual a Td Ts=9.0 - Td=18.1 2013-05-08 15:36:00
1 1976-03-13 23:00:00 Ts debe ser mayor o igual a Td Ts=9.5 - Td=15.5 2013-05-08 15:37:00
1 1976-03-16 13:00:00 Ts debe ser mayor o igual a Td Ts=5.9 - Td=11.8 2013-05-08 15:37:00
1 1976-03-16 14:00:00 Ts debe ser mayor o igual a Td Ts=11.2 - Td=12.6 2013-05-08 15:37:00
1 1976-04-26 23:00:00 Ts debe ser mayor o igual a Td Ts=11.0 - Td=11.4 2013-05-08 15:37:00
1 1976-05-05 17:00:00 Ts debe ser mayor o igual a Td Ts=15.4 - Td=21.4 2013-05-08 15:37:00
1 1976-05-17 09:00:00 Ts debe ser mayor o igual a Td Ts=0.9 - Td=3.4 2013-05-08 15:37:00
1 1976-05-21 14:00:00 Ts debe ser mayor o igual a Td Ts=0.7 - Td=7.8 2013-05-08 15:37:00
1 1976-06-13 12:00:00 Ts debe ser mayor o igual a Td Ts=0.9 - Td=14.6 2013-05-08 15:38:00
1 1976-06-17 06:00:00 Ts debe ser mayor o igual a Td Ts=1.0 - Td=15.6 2013-05-08 15:38:00
1 1976-06-20 16:00:00 Ts debe ser mayor o igual a Td Ts=9.2 - Td=10.5 2013-05-08 15:38:00
1 1976-06-28 12:00:00 Ts debe ser mayor o igual a Td Ts=-2.2 - Td=1.0 2013-05-08 15:38:00
1 1976-06-28 13:00:00 Ts debe ser mayor o igual a Td Ts=-2.2 - Td=1.7 2013-05-08 15:38:00
1 1976-06-28 14:00:00 Ts debe ser mayor o igual a Td Ts=-2.4 - Td=3.2 2013-05-08 15:38:00
1 1976-06-29 14:00:00 Ts debe ser mayor o igual a Td Ts=1.3 - Td=4.2 2013-05-08 15:38:00
1 1976-07-02 06:00:00 Ts debe ser mayor o igual a Td Ts=2.9 - Td=31.7 2013-05-08 15:38:00
1 1976-07-05 09:00:00 Ts debe ser mayor o igual a Td Ts=2.0 - Td=24.9 2013-05-08 15:38:00
1 1976-07-14 06:00:00 Ts debe ser mayor o igual a Td Ts=2.0 - Td=21.6 2013-05-08 15:38:00
1 1976-07-14 09:00:00 Ts debe ser mayor o igual a Td Ts=1.0 - Td=13.5 2013-05-08 15:38:00
1 1976-07-25 11:00:00 Ts debe ser mayor o igual a Td Ts=0.6 - Td=0.8 2013-05-08 15:38:00
1 1976-07-25 13:00:00 Ts debe ser mayor o igual a Td Ts=0.5 - Td=1.2 2013-05-08 15:38:00
1 1976-08-29 21:00:00 Ts debe ser mayor o igual a Td Ts=10.5 - Td=16.9 2013-05-08 15:39:00
1 1976-09-14 11:00:00 Ts debe ser mayor o igual a Td Ts=4.0 - Td=13.9 2013-05-08 15:39:00
1 1976-09-27 16:00:00 Ts debe ser mayor o igual a Td Ts=12.0 - Td=12.9 2013-05-08 15:39:00
1 1976-09-30 11:00:00 Ts debe ser mayor o igual a Td Ts=5.3 - Td=6.9 2013-05-08 15:39:00
1 1976-10-01 00:00:00 Ts debe ser mayor o igual a Td Ts=14.5 - Td=20.4 2013-05-08 15:39:00
1 1976-10-07 23:00:00 Ts debe ser mayor o igual a Td Ts=15.5 - Td=20.7 2013-05-08 15:39:00
1 1976-11-08 12:00:00 Ts debe ser mayor o igual a Td Ts=17.2 - Td=21.0 2013-05-08 15:40:00
1 1976-11-15 12:00:00 Ts debe ser mayor o igual a Td Ts=12.4 - Td=13.1 2013-05-08 15:40:00
1 1976-11-28 06:00:00 Ts debe ser mayor o igual a Td Ts=13.5 - Td=20.6 2013-05-08 15:40:00
1 1976-12-08 09:00:00 Ts debe ser mayor o igual a Td Ts=9.6 - Td=10.3 2013-05-08 15:40:00
1 1976-12-22 23:00:00 Ts debe ser mayor o igual a Td Ts=2.5 - Td=22.8 2013-05-08 15:40:00
1 1977-01-06 21:00:00 Ts debe ser mayor o igual a Td Ts=3.0 - Td=29.0 2013-05-08 15:40:00
1 1977-01-21 23:00:00 Ts debe ser mayor o igual a Td Ts=13.2 - Td=21.1 2013-05-08 15:41:00
1 1977-02-04 11:00:00 Ts debe ser mayor o igual a Td Ts=1.6 - Td=16.5 2013-05-08 15:41:00
1 1977-02-06 06:00:00 Ts debe ser mayor o igual a Td Ts=13.6 - Td=18.8 2013-05-08 15:41:00
1 1977-04-03 06:00:00 Ts debe ser mayor o igual a Td Ts=9.4 - Td=9.6 2013-05-08 15:41:00
1 1977-04-12 16:00:00 Ts debe ser mayor o igual a Td Ts=21.2 - Td=21.6 2013-05-08 15:42:00
1 1977-04-25 12:00:00 Ts debe ser mayor o igual a Td Ts=0.8 - Td=14.1 2013-05-08 15:42:00
1 1977-04-25 12:00:00 HR (Humedad Relativa) es igual a 100% y Ts <> Td 0.8 - 14.1 2013-05-08 17:46:00
1 1977-04-30 14:00:00 Ts debe ser mayor o igual a Td Ts=13.6 - Td=20.2 2013-05-08 15:42:00
1 1977-05-03 13:00:00 Ts debe ser mayor o igual a Td Ts=0.6 - Td=9.9 2013-05-08 15:42:00
1 1977-05-05 11:00:00 Ts debe ser mayor o igual a Td Ts=13.0 - Td=14.0 2013-05-08 15:42:00
1 1977-05-06 23:00:00 Ts debe ser mayor o igual a Td Ts=15.4 - Td=16.0 2013-05-08 15:42:00
1 1977-05-21 15:00:00 Ts debe ser mayor o igual a Td Ts=11.3 - Td=12.3 2013-05-08 15:42:00
1 1977-05-24 06:00:00 Ts debe ser mayor o igual a Td Ts=12.1 - Td=15.8 2013-05-08 15:42:00
1 1977-05-30 11:00:00 Ts debe ser mayor o igual a Td Ts=2.6 - Td=4.3 2013-05-08 15:42:00
1 1977-05-31 13:00:00 Ts debe ser mayor o igual a Td Ts=4.9 - Td=5.1 2013-05-08 15:42:00
1 1977-06-06 21:00:00 Ts debe ser mayor o igual a Td Ts=11.3 - Td=13.8 2013-05-08 15:42:00
1 1977-06-07 06:00:00 Ts debe ser mayor o igual a Td Ts=6.0 - Td=7.0 2013-05-08 15:42:00
1 1977-06-07 06:00:00 HR (Humedad Relativa) es igual a 100% y Ts <> Td 6.0 - 7.0 2013-05-08 17:47:00
1 1977-06-07 12:00:00 Ts debe ser mayor o igual a Td Ts=3.0 - Td=3.2 2013-05-08 15:42:00
1 1977-06-07 21:00:00 Ts debe ser mayor o igual a Td Ts=2.0 - Td=24.9 2013-05-08 15:42:00
1 1977-06-09 00:00:00 Ts debe ser mayor o igual a Td Ts=1.0 - Td=14.5 2013-05-08 15:42:00
1 1977-06-10 21:00:00 Ts debe ser mayor o igual a Td Ts=13.6 - Td=16.6 2013-05-08 15:42:00
1 1977-06-11 15:00:00 Ts debe ser mayor o igual a Td Ts=9.4 - Td=23.2 2013-05-08 15:42:00
1 1977-06-12 22:00:00 Ts debe ser mayor o igual a Td Ts=1.0 - Td=17.6 2013-05-08 15:42:00
1 1977-06-14 11:00:00 Ts debe ser mayor o igual a Td Ts=13.0 - Td=15.9 2013-05-08 15:42:00
1 1977-06-20 15:00:00 Ts debe ser mayor o igual a Td Ts=10.0 - Td=10.7 2013-05-08 15:42:00
1 1977-06-23 12:00:00 Ts debe ser mayor o igual a Td Ts=8.0 - Td=8.2 2013-05-08 15:42:00
1 1977-06-27 12:00:00 Ts debe ser mayor o igual a Td Ts=3.0 - Td=7.6 2013-05-08 15:43:00
1 1977-06-27 12:00:00 HR (Humedad Relativa) es igual a 100% y Ts <> Td 3.0 - 7.6 2013-05-08 17:47:00
1 1977-07-04 09:00:00 Ts debe ser mayor o igual a Td Ts=-0.6 - Td=-0.3 2013-05-08 15:43:00
1 1977-07-04 09:00:00 HR (Humedad Relativa) es igual a 100% y Ts <> Td -0.6 - -0.3 2013-05-08 17:47:00
1 1977-07-07 00:00:00 Ts debe ser mayor o igual a Td Ts=0.6 - Td=10.1 2013-05-08 15:43:00
1 1977-07-08 23:00:00 Ts debe ser mayor o igual a Td Ts=9.5 - Td=9.7 2013-05-08 15:43:00
1 1977-07-10 15:00:00 Ts debe ser mayor o igual a Td Ts=10.4 - Td=11.5 2013-05-08 15:43:00
1 1977-07-11 16:00:00 Ts debe ser mayor o igual a Td Ts=10.0 - Td=10.9 2013-05-08 15:43:00
1 1977-07-26 13:00:00 Ts debe ser mayor o igual a Td Ts=9.6 - Td=10.0 2013-05-08 15:43:00
1 1977-08-01 12:00:00 Ts debe ser mayor o igual a Td Ts=-0.8 - Td=3.1 2013-05-08 15:43:00
1 1977-08-01 23:00:00 Ts debe ser mayor o igual a Td Ts=12.4 - Td=15.3 2013-05-08 15:43:00
1 1977-08-19 06:00:00 Ts debe ser mayor o igual a Td Ts=0.9 - Td=14.5 2013-05-08 15:43:00
1 1977-08-19 12:00:00 Ts debe ser mayor o igual a Td Ts=0.9 - Td=14.7 2013-05-08 15:43:00
1 1977-08-19 14:00:00 Ts debe ser mayor o igual a Td Ts=8.3 - Td=10.0 2013-05-08 15:43:00
1 1977-08-19 22:00:00 Ts debe ser mayor o igual a Td Ts=11.7 - Td=11.9 2013-05-08 15:43:00
1 1977-09-02 12:00:00 Ts debe ser mayor o igual a Td Ts=5.0 - Td=5.4 2013-05-08 15:43:00
1 1977-09-19 22:00:00 Ts debe ser mayor o igual a Td Ts=5.7 - Td=17.2 2013-05-08 15:44:00
1 1977-10-14 12:00:00 Ts debe ser mayor o igual a Td Ts=1.1 - Td=18.8 2013-05-08 15:44:00
1 1977-11-02 09:00:00 Ts debe ser mayor o igual a Td Ts=7.8 - Td=8.0 2013-05-08 15:44:00
1 1977-11-10 09:00:00 Ts debe ser mayor o igual a Td Ts=6.7 - Td=9.9 2013-05-08 15:44:00
1 1977-11-11 11:00:00 Ts debe ser mayor o igual a Td Ts=6.3 - Td=10.9 2013-05-08 15:44:00
1 1977-11-27 09:00:00 Ts debe ser mayor o igual a Td Ts=0.8 - Td=13.3 2013-05-08 15:44:00
1 1978-01-02 12:00:00 Ts debe ser mayor o igual a Td Ts=1.0 - Td=19.8 2013-05-08 15:45:00
1 1978-01-13 12:00:00 Ts debe ser mayor o igual a Td Ts=14.8 - Td=18.7 2013-05-08 15:45:00
1 1978-01-21 09:00:00 Ts debe ser mayor o igual a Td Ts=15.2 - Td=21.9 2013-05-08 15:45:00
1 1978-02-14 18:00:00 Ts debe ser mayor o igual a Td Ts=12.4 - Td=22.0 2013-05-08 15:45:00
1 1978-03-07 12:00:00 Ts debe ser mayor o igual a Td Ts=15.0 - Td=18.2 2013-05-08 15:46:00
1 1978-03-26 23:00:00 Ts debe ser mayor o igual a Td Ts=15.2 - Td=15.4 2013-05-08 15:46:00
1 1978-03-30 20:00:00 Ts debe ser mayor o igual a Td Ts=16.8 - Td=17.9 2013-05-08 15:46:00
1 1978-04-02 12:00:00 Ts debe ser mayor o igual a Td Ts=8.0 - Td=10.5 2013-05-08 15:46:00
1 1978-04-20 15:00:00 Ts debe ser mayor o igual a Td Ts=12.8 - Td=13.1 2013-05-08 15:46:00
1 1978-04-30 00:00:00 Ts debe ser mayor o igual a Td Ts=17.0 - Td=17.2 2013-05-08 15:46:00
1 1978-04-30 00:00:00 HR (Humedad Relativa) es igual a 100% y Ts <> Td 17.0 - 17.2 2013-05-08 17:51:00
1 1978-05-15 00:00:00 Ts debe ser mayor o igual a Td Ts=12.5 - Td=16.0 2013-05-08 15:47:00
1 1978-05-17 09:00:00 Ts debe ser mayor o igual a Td Ts=4.9 - Td=13.3 2013-05-08 15:47:00
1 1978-05-29 18:00:00 Ts debe ser mayor o igual a Td Ts=9.2 - Td=21.5 2013-05-08 15:47:00
1 1978-06-09 15:00:00 Ts debe ser mayor o igual a Td Ts=7.0 - Td=14.1 2013-05-08 15:47:00
1 1978-06-15 12:00:00 Ts debe ser mayor o igual a Td Ts=9.7 - Td=23.7 2013-05-08 15:47:00
1 1978-06-25 17:00:00 Ts debe ser mayor o igual a Td Ts=1.0 - Td=17.6 2013-05-08 15:47:00
1 1978-07-11 06:00:00 Ts debe ser mayor o igual a Td Ts=10.5 - Td=11.2 2013-05-08 15:47:00
1 1978-07-15 13:00:00 Ts debe ser mayor o igual a Td Ts=11.9 - Td=13.3 2013-05-08 15:47:00
1 1978-07-16 16:00:00 Ts debe ser mayor o igual a Td Ts=13.0 - Td=14.2 2013-05-08 15:47:00
1 1978-07-18 17:00:00 Ts debe ser mayor o igual a Td Ts=15.0 - Td=21.5 2013-05-08 15:47:00
1 1978-07-21 02:00:00 Ts debe ser mayor o igual a Td Ts=13.0 - Td=13.8 2013-05-08 15:47:00
1 1978-07-27 11:00:00 Ts debe ser mayor o igual a Td Ts=0.4 - Td=2.3 2013-05-08 15:48:00
1 1978-07-28 05:00:00 Ts debe ser mayor o igual a Td Ts=6.7 - Td=7.1 2013-05-08 15:48:00
1 1978-08-05 10:00:00 Ts debe ser mayor o igual a Td Ts=2.8 - Td=4.1 2013-05-08 15:48:00
1 1978-08-06 07:00:00 Ts debe ser mayor o igual a Td Ts=1.7 - Td=3.5 2013-05-08 15:48:00
1 1978-08-19 11:00:00 Ts debe ser mayor o igual a Td Ts=0.0 - Td=27.6 2013-05-08 15:48:00
1 1978-08-24 01:00:00 Ts debe ser mayor o igual a Td Ts=7.7 - Td=10.4 2013-05-08 15:48:00
1 1978-08-30 06:00:00 Ts debe ser mayor o igual a Td Ts=4.2 - Td=12.0 2013-05-08 15:48:00
1 1978-09-07 05:00:00 Ts debe ser mayor o igual a Td Ts=8.0 - Td=9.7 2013-05-08 15:48:00
1 1978-09-08 00:00:00 Ts debe ser mayor o igual a Td Ts=14.6 - Td=19.4 2013-05-08 15:48:00
1 1978-09-21 02:00:00 Ts debe ser mayor o igual a Td Ts=10.4 - Td=10.8 2013-05-08 15:48:00
1 1978-10-08 13:00:00 Ts debe ser mayor o igual a Td Ts=4.6 - Td=18.6 2013-05-08 15:49:00
1 1978-10-21 03:00:00 Ts debe ser mayor o igual a Td Ts=11.9 - Td=12.2 2013-05-08 15:49:00
1 1978-10-30 07:00:00 Ts debe ser mayor o igual a Td Ts=4.2 - Td=12.1 2013-05-08 15:49:00
1 1978-11-03 01:00:00 Ts debe ser mayor o igual a Td Ts=12.7 - Td=13.4 2013-05-08 15:49:00
1 1978-11-07 03:00:00 Ts debe ser mayor o igual a Td Ts=13.5 - Td=20.9 2013-05-08 15:49:00
1 1978-11-14 07:00:00 Ts debe ser mayor o igual a Td Ts=13.5 - Td=13.7 2013-05-08 15:49:00
1 1978-11-19 01:00:00 Ts debe ser mayor o igual a Td Ts=13.7 - Td=20.8 2013-05-08 15:50:00
1 1978-11-21 07:00:00 Ts debe ser mayor o igual a Td Ts=10.0 - Td=23.6 2013-05-08 15:50:00
1 1978-11-22 08:00:00 Ts debe ser mayor o igual a Td Ts=9.7 - Td=23.7 2013-05-08 15:50:00
1 1978-11-22 15:00:00 Ts debe ser mayor o igual a Td Ts=7.2 - Td=21.7 2013-05-08 15:50:00
1 1978-12-01 09:00:00 Ts debe ser mayor o igual a Td Ts=11.6 - Td=20.0 2013-05-08 15:50:00
1 1978-12-04 02:00:00 Ts debe ser mayor o igual a Td Ts=14.7 - Td=20.7 2013-05-08 15:50:00
1 1978-12-04 04:00:00 Ts debe ser mayor o igual a Td Ts=13.1 - Td=14.3 2013-05-08 15:50:00
1 1978-12-22 08:00:00 Ts debe ser mayor o igual a Td Ts=12.9 - Td=15.5 2013-05-08 15:50:00
1 1978-12-22 09:00:00 Ts debe ser mayor o igual a Td Ts=13.9 - Td=14.9 2013-05-08 15:50:00
1 1978-12-25 16:00:00 Ts debe ser mayor o igual a Td Ts=21.7 - Td=24.6 2013-05-08 15:50:00
1 1979-01-19 08:00:00 Ts debe ser mayor o igual a Td Ts=14.8 - Td=15.9 2013-05-08 15:51:00
1 1979-03-03 18:00:00 Ts debe ser mayor o igual a Td Ts=16.8 - Td=20.1 2013-05-08 15:52:00
1 1979-03-26 11:00:00 Ts debe ser mayor o igual a Td Ts=5.0 - Td=19.3 2013-05-08 15:52:00
1 1979-04-05 10:00:00 Ts debe ser mayor o igual a Td Ts=4.6 - Td=6.4 2013-05-08 15:52:00
1 1979-04-19 13:00:00 Ts debe ser mayor o igual a Td Ts=9.1 - Td=10.4 2013-05-08 15:52:00
1 1979-04-29 21:00:00 Ts debe ser mayor o igual a Td Ts=2.0 - Td=21.4 2013-05-08 15:53:00
1 1979-05-08 18:00:00 Ts debe ser mayor o igual a Td Ts=15.0 - Td=19.8 2013-05-08 15:53:00
1 1979-05-11 02:00:00 Ts debe ser mayor o igual a Td Ts=10.1 - Td=14.3 2013-05-08 15:53:00
1 1979-06-05 09:00:00 Ts debe ser mayor o igual a Td Ts=-1.1 - Td=1.3 2013-05-08 15:53:00
1 1979-06-06 09:00:00 Ts debe ser mayor o igual a Td Ts=-1.5 - Td=-1.2 2013-05-08 15:53:00
1 1979-06-06 10:00:00 Ts debe ser mayor o igual a Td Ts=-2.0 - Td=0.5 2013-05-08 15:53:00
1 1979-06-06 11:00:00 Ts debe ser mayor o igual a Td Ts=-2.0 - Td=-0.9 2013-05-08 15:53:00
1 1979-06-07 06:00:00 Ts debe ser mayor o igual a Td Ts=-0.3 - Td=1.4 2013-05-08 15:53:00
1 1979-06-08 02:00:00 Ts debe ser mayor o igual a Td Ts=2.6 - Td=3.0 2013-05-08 15:53:00
1 1979-06-16 09:00:00 Ts debe ser mayor o igual a Td Ts=0.6 - Td=7.5 2013-05-08 15:54:00
1 1979-07-01 10:00:00 Ts debe ser mayor o igual a Td Ts=2.0 - Td=26.0 2013-05-08 15:54:00
1 1979-07-01 11:00:00 Ts debe ser mayor o igual a Td Ts=1.6 - Td=21.8 2013-05-08 15:54:00
1 1979-07-01 13:00:00 Ts debe ser mayor o igual a Td Ts=2.5 - Td=29.9 2013-05-08 15:54:00
1 1979-07-02 09:00:00 Ts debe ser mayor o igual a Td Ts=1.2 - Td=16.0 2013-05-08 15:54:00
1 1979-07-02 12:00:00 Ts debe ser mayor o igual a Td Ts=1.0 - Td=16.1 2013-05-08 15:54:00
1 1979-07-02 13:00:00 Ts debe ser mayor o igual a Td Ts=0.3 - Td=4.5 2013-05-08 15:54:00
1 1979-07-02 14:00:00 Ts debe ser mayor o igual a Td Ts=0.8 - Td=11.3 2013-05-08 15:54:00
1 1979-07-17 11:00:00 Ts debe ser mayor o igual a Td Ts=4.2 - Td=7.8 2013-05-08 15:54:00
1 1979-07-21 09:00:00 Ts debe ser mayor o igual a Td Ts=0.2 - Td=3.2 2013-05-08 15:54:00
1 1979-07-25 02:00:00 Ts debe ser mayor o igual a Td Ts=8.0 - Td=8.8 2013-05-08 15:54:00
1 1979-08-09 11:00:00 Ts debe ser mayor o igual a Td Ts=5.4 - Td=12.9 2013-05-08 15:55:00
1 1979-08-12 09:00:00 Ts debe ser mayor o igual a Td Ts=10.1 - Td=23.8 2013-05-08 15:55:00
1 1979-08-19 03:00:00 Ts debe ser mayor o igual a Td Ts=10.6 - Td=12.0 2013-05-08 15:55:00
1 1979-08-19 06:00:00 Ts debe ser mayor o igual a Td Ts=10.6 - Td=12.0 2013-05-08 15:55:00
1 1979-08-26 12:00:00 Ts debe ser mayor o igual a Td Ts=6.0 - Td=12.7 2013-05-08 15:55:00
1 1979-09-03 09:00:00 Ts debe ser mayor o igual a Td Ts=0.2 - Td=3.8 2013-05-08 15:55:00
1 1979-09-08 03:00:00 Ts debe ser mayor o igual a Td Ts=0.9 - Td=14.1 2013-05-08 15:55:00
1 1979-09-13 06:00:00 Ts debe ser mayor o igual a Td Ts=4.8 - Td=19.9 2013-05-08 15:55:00
1 1979-09-15 15:00:00 Ts debe ser mayor o igual a Td Ts=4.4 - Td=14.9 2013-05-08 15:55:00
1 1979-09-18 09:00:00 Ts debe ser mayor o igual a Td Ts=2.8 - Td=11.4 2013-05-08 15:55:00
1 1979-10-07 04:00:00 Ts debe ser mayor o igual a Td Ts=9.2 - Td=10.1 2013-05-08 15:56:00
1 1979-10-15 09:00:00 Ts debe ser mayor o igual a Td Ts=10.3 - Td=11.7 2013-05-08 15:56:00
1 1979-10-18 21:00:00 Ts debe ser mayor o igual a Td Ts=1.9 - Td=24.1 2013-05-08 15:56:00
1 1979-10-23 14:00:00 Ts debe ser mayor o igual a Td Ts=13.4 - Td=15.3 2013-05-08 15:56:00
1 1979-11-19 04:00:00 Ts debe ser mayor o igual a Td Ts=14.4 - Td=22.2 2013-05-08 15:56:00
1 1979-12-07 15:00:00 Ts debe ser mayor o igual a Td Ts=15.7 - Td=23.2 2013-05-08 15:57:00
1 1979-12-09 06:00:00 Ts debe ser mayor o igual a Td Ts=14.0 - Td=16.1 2013-05-08 15:57:00
1 1979-12-20 03:00:00 Ts debe ser mayor o igual a Td Ts=13.0 - Td=13.2 2013-05-08 15:57:00
1 1981-07-11 03:00:00 Ts debe ser mayor o igual a Td Ts=0.5 - Td=9.0 2013-05-08 16:08:00
1 1981-07-16 15:00:00 Ts debe ser mayor o igual a Td Ts=9.5 - Td=10.9 2013-05-08 16:08:00
1 1981-07-19 06:00:00 Ts debe ser mayor o igual a Td Ts=1.2 - Td=16.0 2013-05-08 16:08:00
1 1981-07-19 09:00:00 Ts debe ser mayor o igual a Td Ts=0.2 - Td=0.7 2013-05-08 16:08:00
1 1981-07-22 09:00:00 Ts debe ser mayor o igual a Td Ts=3.2 - Td=18.5 2013-05-08 16:08:00
1 1981-09-09 06:00:00 Ts debe ser mayor o igual a Td Ts=5.5 - Td=12.4 2013-05-08 16:09:00
1 1981-09-13 09:00:00 Ts debe ser mayor o igual a Td Ts=2.5 - Td=2.7 2013-05-08 16:09:00
1 1981-09-30 03:00:00 Ts debe ser mayor o igual a Td Ts=0.8 - Td=12.9 2013-05-08 16:09:00
1 1982-03-03 16:00:00 Ts debe ser mayor o igual a Td Ts=17.5 - Td=19.3 2013-05-08 16:12:00
1 1982-03-13 03:00:00 Ts debe ser mayor o igual a Td Ts=14.1 - Td=15.5 2013-05-08 16:13:00
1 1982-03-14 04:00:00 Ts debe ser mayor o igual a Td Ts=10.7 - Td=13.1 2013-05-08 16:13:00
1 1982-03-16 12:00:00 Ts debe ser mayor o igual a Td Ts=7.5 - Td=7.9 2013-05-08 16:13:00
1 1982-03-18 05:00:00 Ts debe ser mayor o igual a Td Ts=13.6 - Td=18.8 2013-05-08 16:13:00
1 1982-03-28 06:00:00 Ts debe ser mayor o igual a Td Ts=10.6 - Td=11.0 2013-05-08 16:13:00
1 1982-03-28 08:00:00 Ts debe ser mayor o igual a Td Ts=8.5 - Td=9.8 2013-05-08 16:13:00
1 1982-03-28 13:00:00 Ts debe ser mayor o igual a Td Ts=10.6 - Td=11.0 2013-05-08 16:13:00
1 1982-04-01 20:00:00 Ts debe ser mayor o igual a Td Ts=7.6 - Td=19.3 2013-05-08 16:13:00
1 1982-04-02 19:00:00 Ts debe ser mayor o igual a Td Ts=14.5 - Td=16.5 2013-05-08 16:13:00
1 1982-04-17 14:00:00 Ts debe ser mayor o igual a Td Ts=9.7 - Td=15.4 2013-05-08 16:13:00
1 1982-04-18 12:00:00 Ts debe ser mayor o igual a Td Ts=8.0 - Td=9.8 2013-05-08 16:13:00
1 1982-04-26 09:00:00 Ts debe ser mayor o igual a Td Ts=9.2 - Td=9.7 2013-05-08 16:13:00
1 1982-04-27 03:00:00 Ts debe ser mayor o igual a Td Ts=12.5 - Td=14.2 2013-05-08 16:13:00
1 1982-04-30 10:00:00 Ts debe ser mayor o igual a Td Ts=14.2 - Td=15.0 2013-05-08 16:13:00
1 1982-04-30 16:00:00 Ts debe ser mayor o igual a Td Ts=16.3 - Td=19.6 2013-05-08 16:14:00
1 1982-05-01 07:00:00 Ts debe ser mayor o igual a Td Ts=8.0 - Td=8.8 2013-05-08 16:14:00
1 1982-05-09 22:00:00 Ts debe ser mayor o igual a Td Ts=16.5 - Td=18.8 2013-05-08 16:14:00
1 1982-05-09 23:00:00 Ts debe ser mayor o igual a Td Ts=16.5 - Td=18.5 2013-05-08 16:14:00
1 1982-05-10 07:00:00 Ts debe ser mayor o igual a Td Ts=13.8 - Td=15.4 2013-05-08 16:14:00
1 1982-05-13 14:00:00 Ts debe ser mayor o igual a Td Ts=9.5 - Td=10.0 2013-05-08 16:14:00
1 1982-05-18 09:00:00 Ts debe ser mayor o igual a Td Ts=5.7 - Td=20.5 2013-05-08 16:14:00
1 1982-05-28 02:00:00 Ts debe ser mayor o igual a Td Ts=8.0 - Td=8.8 2013-05-08 16:14:00
1 1982-05-28 04:00:00 Ts debe ser mayor o igual a Td Ts=6.5 - Td=7.9 2013-05-08 16:14:00
1 1982-05-28 05:00:00 Ts debe ser mayor o igual a Td Ts=5.9 - Td=6.5 2013-05-08 16:14:00
1 1982-05-28 07:00:00 Ts debe ser mayor o igual a Td Ts=4.6 - Td=6.6 2013-05-08 16:14:00
1 1982-05-28 22:00:00 Ts debe ser mayor o igual a Td Ts=15.3 - Td=15.5 2013-05-08 16:14:00
1 1982-06-08 05:00:00 Ts debe ser mayor o igual a Td Ts=9.0 - Td=9.6 2013-05-08 16:14:00
1 1982-06-16 14:00:00 Ts debe ser mayor o igual a Td Ts=7.0 - Td=7.4 2013-05-08 16:14:00
1 1982-06-21 04:00:00 Ts debe ser mayor o igual a Td Ts=4.0 - Td=4.8 2013-05-08 16:14:00
1 1982-07-11 12:00:00 Ts debe ser mayor o igual a Td Ts=7.9 - Td=8.5 2013-05-08 16:15:00
1 1982-07-12 02:00:00 Ts debe ser mayor o igual a Td Ts=12.0 - Td=12.8 2013-05-08 16:15:00
1 1982-07-14 04:00:00 Ts debe ser mayor o igual a Td Ts=0.9 - Td=13.9 2013-05-08 16:15:00
1 1982-07-22 04:00:00 Ts debe ser mayor o igual a Td Ts=7.4 - Td=8.0 2013-05-08 16:15:00
1 1982-08-02 10:00:00 Ts debe ser mayor o igual a Td Ts=3.5 - Td=4.1 2013-05-08 16:15:00
1 1982-08-09 13:00:00 Ts debe ser mayor o igual a Td Ts=3.6 - Td=13.1 2013-05-08 16:15:00
1 1982-08-20 23:00:00 Ts debe ser mayor o igual a Td Ts=14.0 - Td=19.0 2013-05-08 16:16:00
1 1982-09-06 16:00:00 Ts debe ser mayor o igual a Td Ts=11.5 - Td=14.0 2013-05-08 16:16:00
1 1982-09-09 23:00:00 Ts debe ser mayor o igual a Td Ts=10.5 - Td=14.8 2013-05-08 16:16:00
1 1982-09-17 13:00:00 Ts debe ser mayor o igual a Td Ts=7.7 - Td=9.0 2013-05-08 16:16:00
1 1982-10-02 15:00:00 Ts debe ser mayor o igual a Td Ts=15.4 - Td=19.6 2013-05-08 16:16:00
1 1982-10-08 22:00:00 Ts debe ser mayor o igual a Td Ts=7.8 - Td=17.4 2013-05-08 16:17:00
1 1982-10-17 03:00:00 Ts debe ser mayor o igual a Td Ts=10.5 - Td=11.0 2013-05-08 16:17:00
1 1982-10-23 10:00:00 Ts debe ser mayor o igual a Td Ts=3.4 - Td=4.5 2013-05-08 16:17:00
1 1982-10-27 06:00:00 Ts debe ser mayor o igual a Td Ts=9.8 - Td=22.8 2013-05-08 16:17:00
1 1982-11-13 03:00:00 Ts debe ser mayor o igual a Td Ts=14.3 - Td=15.3 2013-05-08 16:17:00
1 1982-11-13 11:00:00 Ts debe ser mayor o igual a Td Ts=7.6 - Td=10.5 2013-05-08 16:17:00
1 1982-12-09 11:00:00 Ts debe ser mayor o igual a Td Ts=14.5 - Td=14.7 2013-05-08 16:18:00
1 1982-12-12 14:00:00 Ts debe ser mayor o igual a Td Ts=16.3 - Td=18.9 2013-05-08 16:18:00
1 1982-12-23 09:00:00 Ts debe ser mayor o igual a Td Ts=12.0 - Td=15.6 2013-05-08 16:18:00
1 1982-12-24 01:00:00 Ts debe ser mayor o igual a Td Ts=16.7 - Td=19.2 2013-05-08 16:18:00
1 1982-12-27 02:00:00 Ts debe ser mayor o igual a Td Ts=14.1 - Td=16.8 2013-05-08 16:18:00
1 1982-12-27 23:00:00 Ts debe ser mayor o igual a Td Ts=14.1 - Td=18.4 2013-05-08 16:18:00
1 1983-01-06 01:00:00 Ts debe ser mayor o igual a Td Ts=17.3 - Td=21.1 2013-05-08 16:18:00
1 1983-01-11 09:00:00 Ts debe ser mayor o igual a Td Ts=14.5 - Td=15.9 2013-05-08 16:18:00
1 1983-01-12 23:00:00 Ts debe ser mayor o igual a Td Ts=2.6 - Td=24.6 2013-05-08 16:18:00
1 1983-01-20 23:00:00 Ts debe ser mayor o igual a Td Ts=2.2 - Td=25.0 2013-05-08 16:18:00
1 1983-01-21 20:00:00 Ts debe ser mayor o igual a Td Ts=2.3 - Td=24.9 2013-05-08 16:18:00
1 1983-02-12 10:00:00 Ts debe ser mayor o igual a Td Ts=11.5 - Td=19.0 2013-05-08 16:19:00
1 1983-02-13 01:00:00 Ts debe ser mayor o igual a Td Ts=2.0 - Td=21.6 2013-05-08 16:19:00
1 1983-02-18 07:00:00 Ts debe ser mayor o igual a Td Ts=12.0 - Td=12.3 2013-05-08 16:19:00
1 1983-02-21 09:00:00 Ts debe ser mayor o igual a Td Ts=10.2 - Td=20.4 2013-05-08 16:19:00
1 1983-02-21 19:00:00 Ts debe ser mayor o igual a Td Ts=3.2 - Td=26.8 2013-05-08 16:19:00
1 1983-02-25 06:00:00 Ts debe ser mayor o igual a Td Ts=10.0 - Td=11.7 2013-05-08 16:19:00
1 1983-02-28 08:00:00 Ts debe ser mayor o igual a Td Ts=10.4 - Td=19.0 2013-05-08 16:19:00
1 1983-03-03 01:00:00 Ts debe ser mayor o igual a Td Ts=4.0 - Td=16.8 2013-05-08 16:19:00
1 1983-03-03 03:00:00 Ts debe ser mayor o igual a Td Ts=8.5 - Td=13.1 2013-05-08 16:19:00
1 1983-03-08 08:00:00 Ts debe ser mayor o igual a Td Ts=14.5 - Td=30.7 2013-05-08 16:19:00
1 1983-03-10 07:00:00 Ts debe ser mayor o igual a Td Ts=9.5 - Td=22.2 2013-05-08 16:19:00
1 1983-03-10 08:00:00 Ts debe ser mayor o igual a Td Ts=3.0 - Td=11.3 2013-05-08 16:19:00
1 1983-03-17 09:00:00 Ts debe ser mayor o igual a Td Ts=8.5 - Td=9.8 2013-05-08 16:20:00
1 1983-03-20 02:00:00 Ts debe ser mayor o igual a Td Ts=16.8 - Td=21.2 2013-05-08 16:20:00
1 1983-03-21 09:00:00 Ts debe ser mayor o igual a Td Ts=11.4 - Td=13.6 2013-05-08 16:20:00
1 1983-03-21 15:00:00 Ts debe ser mayor o igual a Td Ts=11.8 - Td=18.3 2013-05-08 16:20:00
1 1983-03-23 08:00:00 Ts debe ser mayor o igual a Td Ts=12.9 - Td=19.1 2013-05-08 16:20:00
1 1983-03-26 23:00:00 Ts debe ser mayor o igual a Td Ts=19.8 - Td=25.5 2013-05-08 16:20:00
1 1983-03-30 08:00:00 Ts debe ser mayor o igual a Td Ts=15.5 - Td=19.5 2013-05-08 16:20:00
1 1983-03-31 02:00:00 Ts debe ser mayor o igual a Td Ts=13.0 - Td=14.3 2013-05-08 16:20:00
1 1983-04-02 02:00:00 Ts debe ser mayor o igual a Td Ts=1.6 - Td=21.3 2013-05-08 16:20:00
1 1983-04-02 17:00:00 Ts debe ser mayor o igual a Td Ts=2.5 - Td=21.4 2013-05-08 16:20:00
1 1983-04-03 17:00:00 Ts debe ser mayor o igual a Td Ts=12.5 - Td=17.9 2013-05-08 16:20:00
1 1983-04-06 05:00:00 Ts debe ser mayor o igual a Td Ts=9.7 - Td=21.9 2013-05-08 16:20:00
1 1983-04-06 09:00:00 Ts debe ser mayor o igual a Td Ts=7.2 - Td=8.3 2013-05-08 16:20:00
1 1983-04-11 16:00:00 Ts debe ser mayor o igual a Td Ts=15.1 - Td=16.1 2013-05-08 16:20:00
1 1983-04-12 11:00:00 Ts debe ser mayor o igual a Td Ts=8.6 - Td=9.0 2013-05-08 16:20:00
1 1983-04-16 09:00:00 Ts debe ser mayor o igual a Td Ts=7.7 - Td=8.1 2013-05-08 16:20:00
1 1983-04-18 02:00:00 Ts debe ser mayor o igual a Td Ts=14.0 - Td=23.6 2013-05-08 16:20:00
1 1983-04-19 05:00:00 Ts debe ser mayor o igual a Td Ts=6.5 - Td=8.4 2013-05-08 16:20:00
1 1983-04-19 07:00:00 Ts debe ser mayor o igual a Td Ts=6.0 - Td=12.2 2013-05-08 16:20:00
1 1983-04-21 08:00:00 Ts debe ser mayor o igual a Td Ts=0.7 - Td=12.1 2013-05-08 16:20:00
1 1983-04-27 07:00:00 Ts debe ser mayor o igual a Td Ts=15.0 - Td=21.1 2013-05-08 16:20:00
1 1983-04-27 22:00:00 Ts debe ser mayor o igual a Td Ts=18.5 - Td=18.9 2013-05-08 16:20:00
1 1983-04-30 00:00:00 Ts debe ser mayor o igual a Td Ts=10.4 - Td=13.1 2013-05-08 16:20:00
1 1983-04-30 07:00:00 Ts debe ser mayor o igual a Td Ts=0.6 - Td=10.5 2013-05-08 16:20:00
1 1983-04-30 10:00:00 Ts debe ser mayor o igual a Td Ts=5.5 - Td=6.5 2013-05-08 16:20:00
1 1983-04-30 11:00:00 Ts debe ser mayor o igual a Td Ts=0.5 - Td=9.0 2013-05-08 16:20:00
1 1983-04-30 14:00:00 Ts debe ser mayor o igual a Td Ts=1.1 - Td=16.3 2013-05-08 16:20:00
1 1983-04-30 16:00:00 Ts debe ser mayor o igual a Td Ts=19.5 - Td=19.9 2013-05-08 16:20:00
1 1983-05-01 05:00:00 Ts debe ser mayor o igual a Td Ts=6.5 - Td=6.9 2013-05-08 16:20:00
1 1983-05-05 15:00:00 Ts debe ser mayor o igual a Td Ts=10.6 - Td=13.0 2013-05-08 16:20:00
1 1983-05-07 11:00:00 Ts debe ser mayor o igual a Td Ts=3.7 - Td=4.1 2013-05-08 16:21:00
1 1983-05-09 03:00:00 Ts debe ser mayor o igual a Td Ts=3.5 - Td=12.4 2013-05-08 16:21:00
1 1983-05-10 01:00:00 Ts debe ser mayor o igual a Td Ts=0.0 - Td=16.7 2013-05-08 16:21:00
1 1983-05-17 08:00:00 Ts debe ser mayor o igual a Td Ts=4.7 - Td=5.1 2013-05-08 16:21:00
1 1983-05-21 06:00:00 Ts debe ser mayor o igual a Td Ts=8.0 - Td=8.8 2013-05-08 16:21:00
1 1983-05-21 14:00:00 Ts debe ser mayor o igual a Td Ts=9.2 - Td=9.4 2013-05-08 16:21:00
1 1983-05-21 17:00:00 Ts debe ser mayor o igual a Td Ts=13.0 - Td=13.8 2013-05-08 16:21:00
1 1983-05-24 08:00:00 Ts debe ser mayor o igual a Td Ts=4.3 - Td=4.9 2013-05-08 16:21:00
1 1983-05-26 11:00:00 Ts debe ser mayor o igual a Td Ts=6.5 - Td=12.3 2013-05-08 16:21:00
1 1983-05-26 22:00:00 Ts debe ser mayor o igual a Td Ts=13.0 - Td=14.8 2013-05-08 16:21:00
1 1983-05-30 16:00:00 Ts debe ser mayor o igual a Td Ts=3.9 - Td=14.9 2013-05-08 16:21:00
1 1983-05-31 10:00:00 Ts debe ser mayor o igual a Td Ts=-0.1 - Td=1.6 2013-05-08 16:21:00
1 1983-05-31 11:00:00 Ts debe ser mayor o igual a Td Ts=-1.0 - Td=4.6 2013-05-08 16:21:00
1 1983-06-03 13:00:00 Ts debe ser mayor o igual a Td Ts=-0.3 - Td=2.1 2013-05-08 16:21:00
1 1983-06-10 15:00:00 Ts debe ser mayor o igual a Td Ts=10.6 - Td=11.3 2013-05-08 16:21:00
1 1983-06-15 09:00:00 Ts debe ser mayor o igual a Td Ts=5.6 - Td=7.0 2013-05-08 16:21:00
1 1983-06-19 06:00:00 Ts debe ser mayor o igual a Td Ts=7.5 - Td=7.7 2013-05-08 16:21:00
1 1983-06-23 11:00:00 Ts debe ser mayor o igual a Td Ts=-0.3 - Td=1.6 2013-05-08 16:21:00
1 1983-06-24 14:00:00 Ts debe ser mayor o igual a Td Ts=1.8 - Td=14.3 2013-05-08 16:21:00
1 1983-06-25 08:00:00 Ts debe ser mayor o igual a Td Ts=-0.5 - Td=1.4 2013-05-08 16:21:00
1 1983-06-25 10:00:00 Ts debe ser mayor o igual a Td Ts=-0.9 - Td=3.3 2013-05-08 16:21:00
1 1983-06-26 08:00:00 Ts debe ser mayor o igual a Td Ts=0.3 - Td=1.0 2013-05-08 16:21:00
1 1983-06-26 10:00:00 Ts debe ser mayor o igual a Td Ts=1.0 - Td=1.5 2013-05-08 16:21:00
1 1983-06-26 11:00:00 Ts debe ser mayor o igual a Td Ts=1.1 - Td=1.6 2013-05-08 16:21:00
1 1983-06-27 02:00:00 Ts debe ser mayor o igual a Td Ts=2.1 - Td=3.2 2013-05-08 16:21:00
1 1983-06-27 05:00:00 Ts debe ser mayor o igual a Td Ts=0.0 - Td=0.7 2013-05-08 16:21:00
1 1983-06-27 06:00:00 Ts debe ser mayor o igual a Td Ts=-1.2 - Td=3.8 2013-05-08 16:21:00
1 1983-06-27 07:00:00 Ts debe ser mayor o igual a Td Ts=0.3 - Td=2.0 2013-05-08 16:21:00
1 1983-06-27 08:00:00 Ts debe ser mayor o igual a Td Ts=0.2 - Td=3.8 2013-05-08 16:21:00
1 1983-06-27 09:00:00 Ts debe ser mayor o igual a Td Ts=-1.8 - Td=6.0 2013-05-08 16:21:00
1 1983-06-27 10:00:00 Ts debe ser mayor o igual a Td Ts=0.2 - Td=4.6 2013-05-08 16:21:00
1 1983-06-27 11:00:00 Ts debe ser mayor o igual a Td Ts=0.3 - Td=5.3 2013-05-08 16:21:00
1 1983-06-27 13:00:00 Ts debe ser mayor o igual a Td Ts=-1.7 - Td=-0.4 2013-05-08 16:21:00
1 1983-06-28 03:00:00 Ts debe ser mayor o igual a Td Ts=3.4 - Td=3.8 2013-05-08 16:21:00
1 1983-06-28 09:00:00 Ts debe ser mayor o igual a Td Ts=-0.5 - Td=1.9 2013-05-08 16:21:00
1 1983-06-28 13:00:00 Ts debe ser mayor o igual a Td Ts=-0.8 - Td=2.9 2013-05-08 16:21:00
1 1983-06-28 14:00:00 Ts debe ser mayor o igual a Td Ts=0.3 - Td=1.5 2013-05-08 16:21:00
1 1983-06-29 01:00:00 Ts debe ser mayor o igual a Td Ts=0.5 - Td=8.3 2013-05-08 16:21:00
1 1983-06-29 13:00:00 Ts debe ser mayor o igual a Td Ts=0.3 - Td=9.6 2013-05-08 16:21:00
1 1983-06-29 14:00:00 Ts debe ser mayor o igual a Td Ts=0.6 - Td=10.7 2013-05-08 16:21:00
1 1983-06-30 07:00:00 Ts debe ser mayor o igual a Td Ts=2.4 - Td=3.5 2013-05-08 16:21:00
1 1983-06-30 10:00:00 Ts debe ser mayor o igual a Td Ts=0.5 - Td=7.6 2013-05-08 16:21:00
1 1983-07-03 14:00:00 Ts debe ser mayor o igual a Td Ts=6.3 - Td=12.3 2013-05-08 16:22:00
1 1983-07-05 01:00:00 Ts debe ser mayor o igual a Td Ts=8.0 - Td=9.7 2013-05-08 16:22:00
1 1983-07-08 09:00:00 Ts debe ser mayor o igual a Td Ts=9.0 - Td=12.1 2013-05-08 16:22:00
1 1983-07-09 08:00:00 Ts debe ser mayor o igual a Td Ts=6.8 - Td=7.0 2013-05-08 16:22:00
1 1983-07-15 07:00:00 Ts debe ser mayor o igual a Td Ts=2.2 - Td=2.9 2013-05-08 16:22:00
1 1983-07-15 13:00:00 Ts debe ser mayor o igual a Td Ts=0.5 - Td=2.8 2013-05-08 16:22:00
1 1983-07-16 11:00:00 Ts debe ser mayor o igual a Td Ts=-0.3 - Td=0.7 2013-05-08 16:22:00
1 1983-07-17 13:00:00 Ts debe ser mayor o igual a Td Ts=4.5 - Td=4.7 2013-05-08 16:22:00
1 1983-07-18 09:00:00 Ts debe ser mayor o igual a Td Ts=0.9 - Td=13.8 2013-05-08 16:22:00
1 1983-07-22 09:00:00 Ts debe ser mayor o igual a Td Ts=1.0 - Td=15.9 2013-05-08 16:22:00
1 1983-07-22 10:00:00 Ts debe ser mayor o igual a Td Ts=1.0 - Td=14.8 2013-05-08 16:22:00
1 1983-07-27 11:00:00 Ts debe ser mayor o igual a Td Ts=0.4 - Td=7.4 2013-05-08 16:22:00
1 1983-07-27 13:00:00 Ts debe ser mayor o igual a Td Ts=3.4 - Td=3.8 2013-05-08 16:22:00
1 1983-07-30 06:00:00 Ts debe ser mayor o igual a Td Ts=1.0 - Td=5.3 2013-05-08 16:22:00
1 1983-07-31 13:00:00 Ts debe ser mayor o igual a Td Ts=8.1 - Td=10.1 2013-05-08 16:22:00
1 1983-08-01 07:00:00 Ts debe ser mayor o igual a Td Ts=1.0 - Td=13.4 2013-05-08 16:22:00
1 1983-08-01 17:00:00 Ts debe ser mayor o igual a Td Ts=2.0 - Td=20.7 2013-05-08 16:22:00
1 1983-08-05 21:00:00 Ts debe ser mayor o igual a Td Ts=12.9 - Td=13.9 2013-05-08 16:22:00
1 1983-08-15 08:00:00 Ts debe ser mayor o igual a Td Ts=2.1 - Td=24.9 2013-05-08 16:22:00
1 1983-08-15 13:00:00 Ts debe ser mayor o igual a Td Ts=2.4 - Td=3.3 2013-05-08 16:22:00
1 1983-08-18 11:00:00 Ts debe ser mayor o igual a Td Ts=3.7 - Td=19.2 2013-05-08 16:22:00
1 1983-08-21 10:00:00 Ts debe ser mayor o igual a Td Ts=11.5 - Td=12.0 2013-05-08 16:22:00
1 1983-09-06 11:00:00 Ts debe ser mayor o igual a Td Ts=1.6 - Td=15.9 2013-05-08 16:23:00
1 1983-09-13 17:00:00 Ts debe ser mayor o igual a Td Ts=13.7 - Td=20.1 2013-05-08 16:23:00
1 1983-10-12 13:00:00 Ts debe ser mayor o igual a Td Ts=11.5 - Td=20.1 2013-05-08 16:24:00
1 1983-12-26 23:00:00 Ts debe ser mayor o igual a Td Ts=22.5 - Td=27.2 2013-05-08 16:25:00
1 1984-01-11 08:00:00 Ts debe ser mayor o igual a Td Ts=10.4 - Td=25.3 2013-05-08 16:25:00
1 1984-01-16 10:00:00 Ts debe ser mayor o igual a Td Ts=9.6 - Td=9.8 2013-05-08 16:25:00
1 1984-02-18 14:00:00 Ts debe ser mayor o igual a Td Ts=18.1 - Td=19.9 2013-05-08 16:26:00
1 1984-03-13 04:00:00 Ts debe ser mayor o igual a Td Ts=14.2 - Td=22.3 2013-05-08 16:26:00
1 1984-03-16 11:00:00 Ts debe ser mayor o igual a Td Ts=1.0 - Td=17.6 2013-05-08 16:27:00
1 1984-05-01 01:00:00 Ts debe ser mayor o igual a Td Ts=9.5 - Td=21.8 2013-05-08 16:27:00
1 1984-05-14 11:00:00 Ts debe ser mayor o igual a Td Ts=0.5 - Td=7.7 2013-05-08 16:28:00
1 1984-05-23 13:00:00 Ts debe ser mayor o igual a Td Ts=7.8 - Td=10.7 2013-05-08 16:28:00
1 1984-06-03 07:00:00 Ts debe ser mayor o igual a Td Ts=2.5 - Td=3.4 2013-05-08 16:28:00
1 1984-06-13 05:00:00 Ts debe ser mayor o igual a Td Ts=4.7 - Td=5.1 2013-05-08 16:28:00
1 1984-06-16 11:00:00 Ts debe ser mayor o igual a Td Ts=0.1 - Td=11.2 2013-05-08 16:28:00
1 1984-07-01 19:00:00 Ts debe ser mayor o igual a Td Ts=10.6 - Td=11.0 2013-05-08 16:29:00
1 1984-07-27 17:00:00 Ts debe ser mayor o igual a Td Ts=1.0 - Td=20.6 2013-05-08 16:29:00
1 1984-07-27 23:00:00 Ts debe ser mayor o igual a Td Ts=15.5 - Td=19.3 2013-05-08 16:29:00
1 1984-08-07 01:00:00 Ts debe ser mayor o igual a Td Ts=8.9 - Td=22.2 2013-05-08 16:29:00
1 1984-08-27 04:00:00 Ts debe ser mayor o igual a Td Ts=9.3 - Td=22.0 2013-05-08 16:30:00
1 1984-11-20 22:00:00 Ts debe ser mayor o igual a Td Ts=17.5 - Td=19.0 2013-05-08 16:31:00
1 1984-12-01 17:00:00 Ts debe ser mayor o igual a Td Ts=2.0 - Td=28.0 2013-05-08 16:32:00
1 1984-12-24 10:00:00 Ts debe ser mayor o igual a Td Ts=14.8 - Td=20.3 2013-05-08 16:32:00
1 1957-08-25 15:00:00 (ts - td > 5.0) y ((ww >= 40 y ww <= 49)) 41 2013-05-09 00:20:00
1 1958-02-26 18:00:00 (ts - td > 5.0) y ((ww >= 40 y ww <= 49)) 40 2013-05-09 00:20:00
1 1964-08-04 15:00:00 ts > 3.0 y ( (ww >= 48 y ww <= 49) o (ww >= 56 y ww <= 57) o (ww >=66 y ww <= 67)) 48 2013-05-09 00:29:00
1 1967-07-08 15:00:00 (ts - td > 5.0) y ((ww >= 40 y ww <= 49)) 43 2013-05-09 00:33:00
1 1970-04-20 12:00:00 (ts - td > 5.0) y ((ww >= 40 y ww <= 49)) 45 2013-05-09 00:38:00
1 1971-04-30 15:00:00 (ts - td > 5.0) y ((ww >= 40 y ww <= 49)) 44 2013-05-09 00:39:00
1 1971-05-21 06:00:00 (ts - td > 5.0) y ((ww >= 40 y ww <= 49)) 46 2013-05-09 00:40:00
1 1971-09-01 09:00:00 (ts - td > 5.0) y ((ww >= 40 y ww <= 49)) 47 2013-05-09 00:40:00
1 1972-04-07 12:00:00 (ts - td > 5.0) y ((ww >= 40 y ww <= 49)) 46 2013-05-09 00:41:00
1 1972-04-30 21:00:00 (ts - td > 5.0) y ((ww >= 40 y ww <= 49)) 42 2013-05-09 00:41:00
1 1972-07-24 21:00:00 (ts - td > 5.0) y ((ww >= 40 y ww <= 49)) 41 2013-05-09 00:42:00
1 1972-07-25 00:00:00 (ts - td > 5.0) y ((ww >= 40 y ww <= 49)) 41 2013-05-09 00:42:00
1 1973-03-27 18:00:00 (ts - td > 5.0) y ((ww >= 40 y ww <= 49)) 44 2013-05-09 00:43:00
1 1973-06-10 15:00:00 ts > 3.0 y ( (ww >= 48 y ww <= 49) o (ww >= 56 y ww <= 57) o (ww >=66 y ww <= 67)) 48 2013-05-09 00:44:00
1 1973-06-12 12:00:00 (ts - td > 5.0) y ((ww >= 40 y ww <= 49)) 45 2013-05-09 00:44:00
1 1974-04-27 21:00:00 (ts - td > 5.0) y ((ww >= 40 y ww <= 49)) 40 2013-05-09 00:44:00
1 1974-07-23 12:00:00 (ts - td > 5.0) y ((ww >= 40 y ww <= 49)) 46 2013-05-09 00:45:00
1 1974-08-22 18:00:00 (ts - td > 5.0) y ((ww >= 40 y ww <= 49)) 42 2013-05-09 00:45:00
1 1975-06-10 09:00:00 (ts - td > 5.0) y ((ww >= 40 y ww <= 49)) 47 2013-05-09 00:46:00
1 1976-03-25 18:00:00 (ts - td > 5.0) y ((ww >= 40 y ww <= 49)) 45 2013-05-09 00:48:00
1 1976-03-25 21:00:00 (ts - td > 5.0) y ((ww >= 40 y ww <= 49)) 45 2013-05-09 00:48:00
1 1977-03-16 18:00:00 (ts - td > 5.0) y ((ww >= 40 y ww <= 49)) 42 2013-05-09 00:50:00
1 1977-03-21 06:00:00 (ts - td > 5.0) y ((ww >= 40 y ww <= 49)) 42 2013-05-09 00:50:00
1 1983-09-24 15:00:00 (ts - td > 5.0) y ((ww >= 40 y ww <= 49)) 46 2013-05-09 01:04:00
1 1981-01-05 06:00:00 rrr = trazas y WW = 5 w1=0 w2=0 0.0 2013-05-08 13:37:00
1 1981-01-05 12:00:00 rrr = trazas y WW = 5 w1=0 w2=0 0.0 2013-05-08 13:37:00
1 1981-01-05 18:00:00 rrr = trazas y WW = 5 w1=2 w2=0 0.0 2013-05-08 13:37:00
1 1981-08-16 00:00:00 rrr = trazas y WW = 10 w1=1 w2=1 0.0 2013-05-08 13:37:00
1 1982-01-22 18:00:00 rrr = s/p y WW = 2 w1=5 w2=2 0.0 2013-05-08 13:37:00
1 1982-03-26 00:00:00 rrr = s/p y WW = 2 w1=8 w2=6 0.0 2013-05-08 13:38:00
1 1982-04-05 12:00:00 rrr = s/p y WW = 12 w1=5 w2=2 0.0 2013-05-08 13:38:00
1 1982-04-05 18:00:00 rrr = s/p y WW = 10 w1=5 w2=4 0.0 2013-05-08 13:38:00
1 1982-05-11 06:00:00 rrr = 1.4 y WW = 10 w1=2 w2=2 1.4 2013-05-08 13:38:00
1 1982-05-19 18:00:00 rrr = s/p y WW = 5 w1=5 w2=2 0.0 2013-05-08 13:38:00
1 1982-05-27 12:00:00 rrr = s/p y WW = 10 w1=5 w2=2 0.0 2013-05-08 13:38:00
1 1982-08-19 12:00:00 rrr = s/p y WW = 10 w1=5 w2=4 0.0 2013-05-08 13:38:00
1 1982-08-25 12:00:00 rrr = s/p y WW = 5 w1=5 w2=2 0.0 2013-05-08 13:38:00
1 1982-09-08 00:00:00 rrr = s/p y WW = 5 w1=5 w2=4 0.0 2013-05-08 13:38:00
1 1982-09-14 06:00:00 rrr = 0.8 y WW = 10 w1=2 w2=2 0.8 2013-05-08 13:38:00
1 1982-09-14 12:00:00 rrr = 5.5 y WW = 2 w1=2 w2=2 5.5 2013-05-08 13:38:00
1 1982-09-30 00:00:00 rrr = trazas y WW = 5 w1=2 w2=2 0.0 2013-05-08 13:38:00
1 1982-10-04 12:00:00 rrr = 1.8 y WW = 1 w1=2 w2=2 1.8 2013-05-08 13:38:00
1 1982-10-15 12:00:00 rrr = s/p y WW = 5 w1=5 w2=5 0.0 2013-05-08 13:38:00
1 1982-10-17 00:00:00 rrr = trazas y WW = 15 w1=2 w2=2 0.0 2013-05-08 13:38:00
1 1982-11-16 12:00:00 rrr = trazas y WW = 10 w1=2 w2=2 0.0 2013-05-08 13:38:00
1 1982-11-17 12:00:00 rrr = trazas y WW = 5 w1=2 w2=2 0.0 2013-05-08 13:38:00
1 1983-01-12 06:00:00 rrr = s/p y WW = 5 w1=8 w2=1 0.0 2013-05-08 13:38:00
1 1983-01-19 12:00:00 rrr = trazas y WW = 10 w1=2 w2=2 0.0 2013-05-08 13:38:00
1 1983-03-09 06:00:00 rrr = trazas y WW = 2 w1=0 w2=0 0.0 2013-05-08 13:38:00
1 1983-03-15 18:00:00 rrr = trazas y WW = 5 w1=2 w2=2 0.0 2013-05-08 13:38:00
1 1983-04-11 18:00:00 rrr = trazas y WW = 5 w1=2 w2=2 0.0 2013-05-08 13:38:00
1 1983-05-03 18:00:00 rrr = s/p y WW = 1 w1=5 w2=2 0.0 2013-05-08 13:38:00
1 1983-05-26 06:00:00 rrr = trazas y WW = 1 w1=2 w2=2 0.0 2013-05-08 13:38:00
1 1983-05-28 00:00:00 rrr = trazas y WW = 1 w1=2 w2=2 0.0 2013-05-08 13:38:00
1 1983-06-02 18:00:00 rrr = s/p y WW = 2 w1=6 w2=2 0.0 2013-05-08 13:38:00
1 1983-07-02 00:00:00 rrr = s/p y WW = 50 w1=5 w2=1 0.0 2013-05-08 13:38:00
1 1983-07-10 00:00:00 rrr = trazas y WW = 1 w1=1 w2=0 0.0 2013-05-08 13:38:00
1 1983-07-10 12:00:00 rrr = trazas y WW = 5 w1=4 w2=0 0.0 2013-05-08 13:38:00
1 1983-07-11 12:00:00 rrr = 1.3 y WW = 1 w1=2 w2=1 1.3 2013-05-08 13:38:00
1 1983-07-15 00:00:00 rrr = 0.2 y WW = 1 w1=2 w2=1 0.2 2013-05-08 13:38:00
1 1983-07-24 12:00:00 rrr = s/p y WW = 50 w1=5 w2=5 0.0 2013-05-08 13:38:00
1 1983-08-07 18:00:00 rrr = s/p y WW = 60 w1=8 w2=2 0.0 2013-05-08 13:38:00
1 1983-08-25 06:00:00 rrr = 0.1 y WW = 1 w1=2 w2=2 0.1 2013-05-08 13:38:00
1 1983-08-25 12:00:00 rrr = s/p y WW = 46 w1=5 w2=4 0.0 2013-05-08 13:38:00
1 1983-08-27 12:00:00 rrr = s/p y WW = 1 w1=5 w2=2 0.0 2013-05-08 13:38:00
1 1983-09-05 00:00:00 rrr = trazas y WW = 2 w1=2 w2=2 0.0 2013-05-08 13:38:00
1 1983-09-05 18:00:00 rrr = s/p y WW = 1 w1=5 w2=2 0.0 2013-05-08 13:38:00
1 1983-09-18 00:00:00 rrr = 0.5 y WW = 2 w1=2 w2=2 0.5 2013-05-08 13:38:00
1 1983-10-24 06:00:00 rrr = s/p y WW = 51 w1=5 w2=5 0.0 2013-05-08 13:39:00
1 1983-11-02 18:00:00 rrr = trazas y WW = 5 w1=2 w2=2 0.0 2013-05-08 13:39:00
1 1983-11-04 12:00:00 rrr = trazas y WW = 10 w1=2 w2=2 0.0 2013-05-08 13:39:00
1 1983-11-16 12:00:00 rrr = trazas y WW = 5 w1=2 w2=2 0.0 2013-05-08 13:39:00
1 1983-12-06 18:00:00 rrr = s/p y WW = 5 w1=5 w2=2 0.0 2013-05-08 13:39:00
1 1983-12-10 06:00:00 rrr = s/p y WW = 10 w1=5 w2=5 0.0 2013-05-08 13:39:00
1 1983-12-10 12:00:00 rrr = trazas y WW = 5 w1=2 w2=2 0.0 2013-05-08 13:39:00
1 1984-01-24 18:00:00 rrr = trazas y WW = 5 w1=2 w2=2 0.0 2013-05-08 13:39:00
1 1984-01-25 18:00:00 rrr = trazas y WW = 5 w1=2 w2=2 0.0 2013-05-08 13:39:00
1 1984-03-21 18:00:00 rrr = trazas y WW = 10 w1=2 w2=2 0.0 2013-05-08 13:39:00
1 1984-03-31 12:00:00 rrr = 3.0 y WW = 2 w1=1 w2=0 3.0 2013-05-08 13:39:00
1 1984-05-16 12:00:00 rrr = trazas y WW = 10 w1=2 w2=2 0.0 2013-05-08 13:39:00
1 1984-05-20 00:00:00 rrr = 0.5 y WW = 10 w1=2 w2=1 0.5 2013-05-08 13:39:00
1 1984-05-28 12:00:00 rrr = 8.0 y WW = 2 w1=2 w2=2 8.0 2013-05-08 13:39:00
1 1984-06-18 18:00:00 rrr = s/p y WW = 10 w1=5 w2=2 0.0 2013-05-08 13:39:00
1 1984-06-19 12:00:00 rrr = 1.0 y WW = 2 w1=2 w2=2 1.0 2013-05-08 13:39:00
1 1984-07-11 18:00:00 rrr = 1.2 y WW = 1 w1=1 w2=1 1.2 2013-05-08 13:39:00
1 1984-08-08 18:00:00 rrr = s/p y WW = 25 w1=2 w2=2 0.0 2013-05-08 13:39:00
1 1984-09-08 12:00:00 rrr = s/p y WW = 51 w1=5 w2=2 0.0 2013-05-08 13:39:00
1 1984-09-14 00:00:00 rrr = s/p y WW = 25 w1=2 w2=2 0.0 2013-05-08 13:39:00
1 1984-09-24 00:00:00 rrr = s/p y WW = 1 w1=6 w2=2 0.0 2013-05-08 13:39:00
1 1984-09-25 18:00:00 rrr = s/p y WW = 2 w1=6 w2=2 0.0 2013-05-08 13:39:00
1 1984-09-29 12:00:00 rrr = s/p y WW = 50 w1=5 w2=5 0.0 2013-05-08 13:39:00
1 1984-09-29 18:00:00 rrr = s/p y WW = 5 w1=5 w2=2 0.0 2013-05-08 13:39:00
1 1984-11-08 00:00:00 rrr = trazas y WW = 1 w1=2 w2=2 0.0 2013-05-08 13:39:00
1 1984-11-08 12:00:00 rrr = trazas y WW = 2 w1=1 w2=0 0.0 2013-05-08 13:39:00
1 1984-11-18 12:00:00 rrr = trazas y WW = 10 w1=2 w2=2 0.0 2013-05-08 13:39:00
1 1984-11-20 12:00:00 rrr = s/p y WW = 10 w1=5 w2=2 0.0 2013-05-08 13:39:00
1 1984-11-28 12:00:00 rrr = trazas y WW = 10 w1=2 w2=2 0.0 2013-05-08 13:39:00
1 1985-02-06 12:00:00 rrr = trazas y WW = 2 w1=0 w2=0 0.0 2013-05-08 13:39:00
1 1985-05-18 12:00:00 rrr = 1.6 y WW = 10 w1=4 w2=4 1.6 2013-05-08 13:39:00
1 1985-05-23 12:00:00 rrr = 4.4 y WW = 1 w1=4 w2=4 4.4 2013-05-08 13:39:00
1 1985-07-09 12:00:00 rrr = 1.2 y WW = 2 w1=0 w2=0 1.2 2013-05-08 13:40:00
1 1985-11-22 12:00:00 rrr = trazas y WW = 2 w1=2 w2=2 0.0 2013-05-08 13:40:00
1 1986-05-15 12:00:00 rrr = trazas y WW = 2 w1=2 w2=2 0.0 2013-05-08 13:40:00
1 1986-05-29 12:00:00 rrr = trazas y WW = 2 w1=0 w2=0 0.0 2013-05-08 13:40:00
1 1986-06-03 18:00:00 rrr = s/p y WW = 51 w1=2 w2=2 0.0 2013-05-08 13:40:00
1 1986-06-04 12:00:00 rrr = trazas y WW = 10 w1=4 w2=4 0.0 2013-05-08 13:40:00
1 1986-06-09 18:00:00 rrr = s/p y WW = 63 w1=2 w2=2 0.0 2013-05-08 13:40:00
1 1986-06-14 12:00:00 rrr = s/p y WW = 44 w1=5 w2=4 0.0 2013-05-08 13:40:00
1 1986-06-17 18:00:00 rrr = trazas y WW = 10 w1=2 w2=2 0.0 2013-05-08 13:40:00
1 1986-08-14 12:00:00 rrr = trazas y WW = 10 w1=2 w2=2 0.0 2013-05-08 13:40:00
1 1987-05-01 12:00:00 rrr = 2.3 y WW = 2 w1=0 w2=0 2.3 2013-05-08 13:41:00
1 1987-07-13 12:00:00 rrr = 8.8 y WW = 10 w1=4 w2=4 8.8 2013-05-08 13:41:00
1 1987-07-16 12:00:00 rrr = 0.2 y WW = 2 w1=1 w2=0 0.2 2013-05-08 13:41:00
1 1988-03-08 12:00:00 rrr = 0.3 y WW = 2 w1=2 w2=1 0.3 2013-05-08 13:41:00
1 1988-04-15 12:00:00 rrr = trazas y WW = 10 w1=2 w2=0 0.0 2013-05-08 13:41:00
1 1988-05-14 12:00:00 rrr = trazas y WW = 3 w1=2 w2=0 0.0 2013-05-08 13:41:00
1 1988-07-17 12:00:00 rrr = 1.0 y WW = 10 w1=4 w2=2 1.0 2013-05-08 13:41:00
1 1988-08-18 12:00:00 rrr = 0.5 y WW = 10 w1=2 w2=2 0.5 2013-05-08 13:41:00
Errores del Nivel 1160
Nivel Fecha del Dato Descripción Información Error Fecha Ingreso
2 1952-01-05 00:00:00 Temperatura 28.0 del 04-01-1952 20:00, Mayor que la Máxima 27.0 05-01-1952 00:00 28.0 -- 27.0 2014-09-05 19:31:00
2 1952-01-07 00:00:00 Temperatura 27.0 del 06-01-1952 19:00, Mayor que la Máxima 26.0 07-01-1952 00:00 27.0 -- 26.0 2014-09-05 19:31:00
2 1952-01-18 00:00:00 Temperatura 32.0 del 17-01-1952 21:00, Mayor que la Máxima 31.0 18-01-1952 00:00 32.0 -- 31.0 2014-09-05 19:31:00
2 1952-02-06 00:00:00 Temperatura 29.0 del 05-02-1952 16:00, Mayor que la Máxima 24.0 06-02-1952 00:00 29.0 -- 24.0 2014-09-05 19:38:00
2 1952-02-08 00:00:00 Temperatura 32.0 del 07-02-1952 20:00, Mayor que la Máxima 31.0 08-02-1952 00:00 32.0 -- 31.0 2014-09-05 19:38:00
2 1952-02-19 00:00:00 Temperatura 31.0 del 18-02-1952 17:00, Mayor que la Máxima 30.0 19-02-1952 00:00 31.0 -- 30.0 2014-09-05 19:38:00
2 1952-02-25 00:00:00 Temperatura 26.0 del 24-02-1952 22:00, Mayor que la Máxima 23.0 25-02-1952 00:00 26.0 -- 23.0 2014-09-05 19:38:00
2 1952-03-21 00:00:00 Temperatura 32.0 del 20-03-1952 19:00, Mayor que la Máxima 31.0 21-03-1952 00:00 32.0 -- 31.0 2014-09-05 19:46:00
2 1952-03-22 00:00:00 Temperatura 36.0 del 21-03-1952 19:00, Mayor que la Máxima 31.0 22-03-1952 00:00 36.0 -- 31.0 2014-09-05 19:46:00
2 1952-04-17 00:00:00 Temperatura 26.0 del 16-04-1952 19:00, Mayor que la Máxima 25.0 17-04-1952 00:00 26.0 -- 25.0 2014-09-05 20:22:00
2 1952-05-13 00:00:00 Temperatura 14.0 del 12-05-1952 13:00, Mayor que la Máxima 12.0 13-05-1952 00:00 14.0 -- 12.0 2014-09-08 12:27:00
2 1952-05-27 00:00:00 Temperatura 14.0 del 26-05-1952 17:00, Mayor que la Máxima 13.0 27-05-1952 00:00 14.0 -- 13.0 2014-09-08 12:27:00
2 1952-06-01 00:00:00 Temperatura 12.5 del 31-05-1952 16:00, Mayor que la Máxima 12.0 01-06-1952 00:00 12.5 -- 12.0 2014-09-08 12:27:00
2 1952-06-02 00:00:00 Temperatura 15.0 del 01-06-1952 18:00, Mayor que la Máxima 14.0 02-06-1952 00:00 15.0 -- 14.0 2014-09-08 12:54:00
2 1952-06-05 00:00:00 Temperatura 16.0 del 04-06-1952 19:00, Mayor que la Máxima 14.0 05-06-1952 00:00 16.0 -- 14.0 2014-09-08 12:54:00
2 1952-06-14 00:00:00 Temperatura 16.0 del 13-06-1952 20:00, Mayor que la Máxima 15.0 14-06-1952 00:00 16.0 -- 15.0 2014-09-08 12:54:00
2 1952-06-15 00:00:00 Temperatura 11.3 del 14-06-1952 19:00, Mayor que la Máxima 11.0 15-06-1952 00:00 11.3 -- 11.0 2014-09-08 12:54:00
2 1952-06-17 00:00:00 Temperatura 17.1 del 16-06-1952 20:00, Mayor que la Máxima 17.0 17-06-1952 00:00 17.1 -- 17.0 2014-09-08 12:55:00
2 1952-06-18 00:00:00 Temperatura 20.0 del 17-06-1952 18:00, Mayor que la Máxima 15.0 18-06-1952 00:00 20.0 -- 15.0 2014-09-08 12:55:00
2 1952-06-20 00:00:00 Temperatura 15.0 del 19-06-1952 19:00, Mayor que la Máxima 14.0 20-06-1952 00:00 15.0 -- 14.0 2014-09-08 12:55:00
2 1952-06-24 00:00:00 Temperatura 14.0 del 23-06-1952 14:00, Mayor que la Máxima 13.0 24-06-1952 00:00 14.0 -- 13.0 2014-09-08 12:55:00
2 1952-06-27 00:00:00 Temperatura 18.0 del 26-06-1952 18:00, Mayor que la Máxima 15.0 27-06-1952 00:00 18.0 -- 15.0 2014-09-08 12:55:00
2 1952-07-05 00:00:00 Temperatura 14.0 del 04-07-1952 16:00, Mayor que la Máxima 13.0 05-07-1952 00:00 14.0 -- 13.0 2014-09-26 13:01:00
2 1952-07-08 00:00:00 Temperatura 21.0 del 07-07-1952 18:00, Mayor que la Máxima 20.0 08-07-1952 00:00 21.0 -- 20.0 2014-09-26 13:01:00
2 1952-08-02 00:00:00 Temperatura 13.5 del 01-08-1952 17:00, Mayor que la Máxima 13.0 02-08-1952 00:00 13.5 -- 13.0 2014-09-26 13:11:00
2 1952-08-09 00:00:00 Temperatura 20.5 del 08-08-1952 19:00, Mayor que la Máxima 20.0 09-08-1952 00:00 20.5 -- 20.0 2014-09-26 13:11:00
2 1952-08-18 00:00:00 Temperatura 21.4 del 17-08-1952 20:00, Mayor que la Máxima 21.0 18-08-1952 00:00 21.4 -- 21.0 2014-09-26 13:11:00
2 1952-08-19 00:00:00 Temperatura 27.2 del 18-08-1952 19:00, Mayor que la Máxima 27.0 19-08-1952 00:00 27.2 -- 27.0 2014-09-26 13:11:00
2 1952-09-02 00:00:00 Temperatura 15.5 del 01-09-1952 20:00, Mayor que la Máxima 15.0 02-09-1952 00:00 15.5 -- 15.0 2014-09-26 13:27:00
2 1952-09-04 00:00:00 Temperatura 21.0 del 03-09-1952 19:00, Mayor que la Máxima 20.5 04-09-1952 00:00 21.0 -- 20.5 2014-09-26 13:27:00
2 1952-09-05 00:00:00 Temperatura 20.5 del 04-09-1952 19:00, Mayor que la Máxima 20.0 05-09-1952 00:00 20.5 -- 20.0 2014-09-26 13:27:00
2 1952-09-08 00:00:00 Temperatura 26.0 del 07-09-1952 20:00, Mayor que la Máxima 25.0 08-09-1952 00:00 26.0 -- 25.0 2014-09-26 13:27:00
2 1952-09-14 00:00:00 Temperatura 17.0 del 13-09-1952 16:00, Mayor que la Máxima 15.0 14-09-1952 00:00 17.0 -- 15.0 2014-09-26 13:27:00
2 1952-09-15 00:00:00 Temperatura 22.0 del 14-09-1952 21:00, Mayor que la Máxima 18.0 15-09-1952 00:00 22.0 -- 18.0 2014-09-26 13:27:00
2 1952-09-19 00:00:00 Temperatura 25.7 del 18-09-1952 20:00, Mayor que la Máxima 25.0 19-09-1952 00:00 25.7 -- 25.0 2014-09-26 13:27:00
2 1952-09-20 00:00:00 Temperatura 19.1 del 19-09-1952 17:00, Mayor que la Máxima 19.0 20-09-1952 00:00 19.1 -- 19.0 2014-09-26 13:28:00
2 1952-09-28 00:00:00 Temperatura 25.6 del 27-09-1952 20:00, Mayor que la Máxima 25.0 28-09-1952 00:00 25.6 -- 25.0 2014-09-26 13:28:00
2 1952-10-05 00:00:00 Temperatura 15.2 del 04-10-1952 14:00, Mayor que la Máxima 15.1 05-10-1952 00:00 15.2 -- 15.1 2014-09-26 13:33:00
2 1952-10-20 00:00:00 Temperatura 26.3 del 19-10-1952 20:00, Mayor que la Máxima 26.0 20-10-1952 00:00 26.3 -- 26.0 2014-09-26 13:33:00
2 1952-10-21 00:00:00 Temperatura 24.0 del 20-10-1952 16:00, Mayor que la Máxima 21.0 21-10-1952 00:00 24.0 -- 21.0 2014-09-26 13:33:00
2 1952-10-22 00:00:00 Temperatura 22.3 del 21-10-1952 19:00, Mayor que la Máxima 22.0 22-10-1952 00:00 22.3 -- 22.0 2014-09-26 13:33:00
2 1952-11-01 00:00:00 Temperatura 15.5 del 31-10-1952 18:00, Mayor que la Máxima 15.0 01-11-1952 00:00 15.5 -- 15.0 2014-09-26 13:33:00
2 1952-11-02 00:00:00 Temperatura 22.4 del 01-11-1952 19:00, Mayor que la Máxima 22.0 02-11-1952 00:00 22.4 -- 22.0 2014-09-26 13:38:00
2 1952-11-07 00:00:00 Temperatura 24.0 del 06-11-1952 20:00, Mayor que la Máxima 23.0 07-11-1952 00:00 24.0 -- 23.0 2014-09-26 13:38:00
2 1952-11-11 00:00:00 Temperatura 28.0 del 10-11-1952 18:00, Mayor que la Máxima 26.0 11-11-1952 00:00 28.0 -- 26.0 2014-09-26 13:38:00
2 1952-11-12 00:00:00 Temperatura 26.5 del 11-11-1952 16:00, Mayor que la Máxima 26.0 12-11-1952 00:00 26.5 -- 26.0 2014-09-26 13:38:00
2 1952-11-13 00:00:00 Temperatura 19.5 del 12-11-1952 15:00, Mayor que la Máxima 19.0 13-11-1952 00:00 19.5 -- 19.0 2014-09-26 13:38:00
2 1952-11-14 00:00:00 Temperatura 24.0 del 13-11-1952 16:00, Mayor que la Máxima 23.0 14-11-1952 00:00 24.0 -- 23.0 2014-09-26 13:38:00
2 1952-11-15 00:00:00 Temperatura 26.5 del 14-11-1952 18:00, Mayor que la Máxima 26.0 15-11-1952 00:00 26.5 -- 26.0 2014-09-26 13:38:00
2 1952-11-18 00:00:00 Temperatura 28.0 del 17-11-1952 17:00, Mayor que la Máxima 24.0 18-11-1952 00:00 28.0 -- 24.0 2014-09-26 13:38:00
2 1952-11-22 00:00:00 Temperatura 24.5 del 21-11-1952 20:00, Mayor que la Máxima 22.0 22-11-1952 00:00 24.5 -- 22.0 2014-09-26 13:38:00
2 1952-11-25 00:00:00 Temperatura 24.5 del 24-11-1952 18:00, Mayor que la Máxima 24.0 25-11-1952 00:00 24.5 -- 24.0 2014-09-26 13:38:00
2 1952-11-30 00:00:00 Temperatura 32.5 del 29-11-1952 18:00, Mayor que la Máxima 32.0 30-11-1952 00:00 32.5 -- 32.0 2014-09-26 13:38:00
2 1952-12-10 00:00:00 Temperatura 24.5 del 09-12-1952 20:00, Mayor que la Máxima 24.0 10-12-1952 00:00 24.5 -- 24.0 2014-09-26 13:46:00
2 1952-12-14 00:00:00 Temperatura 26.5 del 13-12-1952 21:00, Mayor que la Máxima 26.0 14-12-1952 00:00 26.5 -- 26.0 2014-09-26 13:46:00
2 1952-12-21 00:00:00 Temperatura 27.0 del 20-12-1952 20:00, Mayor que la Máxima 25.0 21-12-1952 00:00 27.0 -- 25.0 2014-09-26 13:46:00
2 1952-12-27 00:00:00 Temperatura 32.7 del 26-12-1952 19:00, Mayor que la Máxima 32.0 27-12-1952 00:00 32.7 -- 32.0 2014-09-26 13:46:00
2 1952-12-29 00:00:00 Temperatura 27.5 del 28-12-1952 21:00, Mayor que la Máxima 27.0 29-12-1952 00:00 27.5 -- 27.0 2014-09-26 13:46:00
2 1953-01-04 00:00:00 Temperatura 26.5 del 03-01-1953 22:00, Mayor que la Máxima 26.0 04-01-1953 00:00 26.5 -- 26.0 2013-12-05 18:12:00
2 1953-01-05 00:00:00 Temperatura 28.0 del 04-01-1953 19:00, Mayor que la Máxima 27.0 05-01-1953 00:00 28.0 -- 27.0 2013-12-05 18:12:00
2 1953-01-07 00:00:00 Temperatura 22.5 del 06-01-1953 22:00, Mayor que la Máxima 22.0 07-01-1953 00:00 22.5 -- 22.0 2013-12-05 18:12:00
2 1953-01-08 00:00:00 Temperatura 30.5 del 07-01-1953 19:00, Mayor que la Máxima 30.0 08-01-1953 00:00 30.5 -- 30.0 2013-12-05 18:12:00
2 1953-01-11 00:00:00 Temperatura 31.0 del 10-01-1953 18:00, Mayor que la Máxima 30.0 11-01-1953 00:00 31.0 -- 30.0 2013-12-05 18:12:00
2 1953-01-16 00:00:00 Temperatura 29.3 del 15-01-1953 20:00, Mayor que la Máxima 29.0 16-01-1953 00:00 29.3 -- 29.0 2013-12-05 18:12:00
2 1953-01-20 00:00:00 Temperatura 28.5 del 19-01-1953 19:00, Mayor que la Máxima 28.0 20-01-1953 00:00 28.5 -- 28.0 2013-12-05 18:13:00
2 1953-01-22 00:00:00 Temperatura 30.4 del 21-01-1953 17:00, Mayor que la Máxima 30.0 22-01-1953 00:00 30.4 -- 30.0 2013-12-05 18:13:00
2 1953-01-23 00:00:00 Temperatura 31.3 del 22-01-1953 19:00, Mayor que la Máxima 31.0 23-01-1953 00:00 31.3 -- 31.0 2013-12-05 18:13:00
2 1953-01-27 00:00:00 Temperatura 25.2 del 26-01-1953 20:00, Mayor que la Máxima 25.0 27-01-1953 00:00 25.2 -- 25.0 2013-12-05 18:13:00
2 1953-01-29 00:00:00 Temperatura 23.1 del 28-01-1953 17:00, Mayor que la Máxima 23.0 29-01-1953 00:00 23.1 -- 23.0 2013-12-05 18:13:00
2 1953-01-30 00:00:00 Temperatura 28.0 del 29-01-1953 19:00, Mayor que la Máxima 27.0 30-01-1953 00:00 28.0 -- 27.0 2013-12-05 18:13:00
2 1953-02-14 00:00:00 Temperatura 27.0 del 13-02-1953 19:00, Mayor que la Máxima 26.0 14-02-1953 00:00 27.0 -- 26.0 2013-12-05 18:21:00
2 1953-03-01 00:00:00 Temperatura 29.0 del 28-02-1953 18:00, Mayor que la Máxima 28.3 01-03-1953 00:00 29.0 -- 28.3 2013-12-05 18:22:00
2 1953-03-15 00:00:00 Temperatura 28.5 del 14-03-1953 18:00, Mayor que la Máxima 27.0 15-03-1953 00:00 28.5 -- 27.0 2013-12-05 18:32:00
2 1953-03-16 00:00:00 Temperatura 32.0 del 15-03-1953 18:00, Mayor que la Máxima 31.0 16-03-1953 00:00 32.0 -- 31.0 2013-12-05 18:32:00
2 1953-03-19 00:00:00 Temperatura 29.0 del 18-03-1953 18:00, Mayor que la Máxima 28.0 19-03-1953 00:00 29.0 -- 28.0 2013-12-05 18:32:00
2 1953-04-02 00:00:00 Temperatura 24.0 del 01-04-1953 20:00, Mayor que la Máxima 23.0 02-04-1953 00:00 24.0 -- 23.0 2013-12-05 18:39:00
2 1953-04-07 00:00:00 Temperatura 23.5 del 06-04-1953 18:00, Mayor que la Máxima 23.0 07-04-1953 00:00 23.5 -- 23.0 2013-12-05 18:40:00
2 1953-04-08 00:00:00 Temperatura 30.5 del 07-04-1953 18:00, Mayor que la Máxima 30.0 08-04-1953 00:00 30.5 -- 30.0 2013-12-05 18:40:00
2 1953-04-22 00:00:00 Temperatura 29.0 del 21-04-1953 18:00, Mayor que la Máxima 28.0 22-04-1953 00:00 29.0 -- 28.0 2013-12-05 18:40:00
2 1953-04-24 00:00:00 Temperatura 24.0 del 23-04-1953 17:00, Mayor que la Máxima 21.0 24-04-1953 00:00 24.0 -- 21.0 2013-12-05 18:40:00
2 1953-04-28 00:00:00 Temperatura 24.5 del 27-04-1953 18:00, Mayor que la Máxima 24.0 28-04-1953 00:00 24.5 -- 24.0 2013-12-05 18:40:00
2 1953-05-04 00:00:00 Temperatura 26.0 del 03-05-1953 18:00, Mayor que la Máxima 25.0 04-05-1953 00:00 26.0 -- 25.0 2013-12-05 19:05:00
2 1953-05-10 00:00:00 Temperatura 26.0 del 09-05-1953 19:00, Mayor que la Máxima 25.0 10-05-1953 00:00 26.0 -- 25.0 2013-12-05 19:05:00
2 1953-05-13 00:00:00 Temperatura 21.0 del 12-05-1953 19:00, Mayor que la Máxima 19.0 13-05-1953 00:00 21.0 -- 19.0 2013-12-05 19:06:00
2 1953-05-15 00:00:00 Temperatura 26.5 del 14-05-1953 19:00, Mayor que la Máxima 25.0 15-05-1953 00:00 26.5 -- 25.0 2013-12-05 19:06:00
2 1953-05-19 00:00:00 Temperatura 24.0 del 18-05-1953 18:00, Mayor que la Máxima 23.0 19-05-1953 00:00 24.0 -- 23.0 2013-12-05 19:06:00
2 1953-06-06 00:00:00 Temperatura 21.0 del 05-06-1953 20:00, Mayor que la Máxima 20.0 06-06-1953 00:00 21.0 -- 20.0 2013-12-05 19:14:00
2 1953-06-16 00:00:00 Temperatura 18.2 del 15-06-1953 18:00, Mayor que la Máxima 16.0 16-06-1953 00:00 18.2 -- 16.0 2013-12-05 19:15:00
2 1953-06-29 00:00:00 Temperatura 13.5 del 28-06-1953 19:00, Mayor que la Máxima 13.0 29-06-1953 00:00 13.5 -- 13.0 2013-12-05 19:15:00
2 1953-06-30 00:00:00 Temperatura 16.3 del 29-06-1953 20:00, Mayor que la Máxima 16.0 30-06-1953 00:00 16.3 -- 16.0 2013-12-05 19:16:00
2 1953-07-04 00:00:00 Temperatura 21.5 del 03-07-1953 19:00, Mayor que la Máxima 21.0 04-07-1953 00:00 21.5 -- 21.0 2013-12-26 19:53:00
2 1953-07-05 00:00:00 Temperatura 22.5 del 04-07-1953 20:00, Mayor que la Máxima 22.0 05-07-1953 00:00 22.5 -- 22.0 2013-12-26 19:53:00
2 1953-07-10 00:00:00 Temperatura 18.2 del 09-07-1953 19:00, Mayor que la Máxima 18.0 10-07-1953 00:00 18.2 -- 18.0 2013-12-26 19:53:00
2 1953-07-26 00:00:00 Temperatura 17.2 del 25-07-1953 19:00, Mayor que la Máxima 17.0 26-07-1953 00:00 17.2 -- 17.0 2013-12-26 19:54:00
2 1953-08-04 00:00:00 Temperatura 22.2 del 03-08-1953 20:00, Mayor que la Máxima 22.0 04-08-1953 00:00 22.2 -- 22.0 2013-12-26 20:02:00
2 1953-08-05 00:00:00 Temperatura 25.0 del 04-08-1953 19:00, Mayor que la Máxima 22.5 05-08-1953 00:00 25.0 -- 22.5 2013-12-26 20:02:00
2 1953-08-13 00:00:00 Temperatura 19.1 del 12-08-1953 19:00, Mayor que la Máxima 19.0 13-08-1953 00:00 19.1 -- 19.0 2013-12-26 20:02:00
2 1953-08-25 00:00:00 Temperatura 21.5 del 24-08-1953 19:00, Mayor que la Máxima 20.0 25-08-1953 00:00 21.5 -- 20.0 2013-12-26 20:03:00
2 1953-08-31 00:00:00 Temperatura 21.1 del 30-08-1953 19:00, Mayor que la Máxima 21.0 31-08-1953 00:00 21.1 -- 21.0 2013-12-26 20:03:00
2 1953-09-02 00:00:00 Temperatura 14.6 del 01-09-1953 17:00, Mayor que la Máxima 14.5 02-09-1953 00:00 14.6 -- 14.5 2013-12-26 20:12:00
2 1953-09-19 00:00:00 Temperatura 14.5 del 18-09-1953 20:00, Mayor que la Máxima 14.0 19-09-1953 00:00 14.5 -- 14.0 2013-12-26 20:12:00
2 1953-09-21 00:00:00 Temperatura 23.0 del 20-09-1953 18:00, Mayor que la Máxima 22.0 21-09-1953 00:00 23.0 -- 22.0 2013-12-26 20:12:00
2 1953-09-25 00:00:00 Temperatura 14.5 del 24-09-1953 13:00, Mayor que la Máxima 14.2 25-09-1953 00:00 14.5 -- 14.2 2013-12-26 20:13:00
2 1953-10-01 00:00:00 Temperatura 21.5 del 30-09-1953 20:00, Mayor que la Máxima 21.0 01-10-1953 00:00 21.5 -- 21.0 2013-12-26 20:13:00
2 1953-10-03 00:00:00 Temperatura 17.1 del 02-10-1953 17:00, Mayor que la Máxima 17.0 03-10-1953 00:00 17.1 -- 17.0 2013-12-31 12:17:00
2 1953-10-04 00:00:00 Temperatura 17.1 del 03-10-1953 19:00, Mayor que la Máxima 17.0 04-10-1953 00:00 17.1 -- 17.0 2013-12-31 12:17:00
2 1953-10-10 00:00:00 Temperatura 23.6 del 09-10-1953 20:00, Mayor que la Máxima 22.4 10-10-1953 00:00 23.6 -- 22.4 2013-12-31 12:18:00
2 1953-10-13 00:00:00 Temperatura 16.0 del 12-10-1953 17:00, Mayor que la Máxima 15.0 13-10-1953 00:00 16.0 -- 15.0 2013-12-31 12:18:00
2 1953-10-21 00:00:00 Temperatura 21.5 del 20-10-1953 17:00, Mayor que la Máxima 20.0 21-10-1953 00:00 21.5 -- 20.0 2013-12-31 12:18:00
2 1953-10-25 00:00:00 Temperatura 22.0 del 24-10-1953 20:00, Mayor que la Máxima 20.0 25-10-1953 00:00 22.0 -- 20.0 2013-12-31 12:18:00
2 1953-11-06 00:00:00 Temperatura 24.5 del 05-11-1953 21:00, Mayor que la Máxima 24.0 06-11-1953 00:00 24.5 -- 24.0 2013-12-31 12:28:00
2 1953-11-13 00:00:00 Temperatura 23.1 del 12-11-1953 20:00, Mayor que la Máxima 23.0 13-11-1953 00:00 23.1 -- 23.0 2013-12-31 12:28:00
2 1953-11-23 00:00:00 Temperatura 18.5 del 22-11-1953 21:00, Mayor que la Máxima 18.1 23-11-1953 00:00 18.5 -- 18.1 2013-12-31 12:29:00
2 1953-11-29 00:00:00 Temperatura 24.5 del 28-11-1953 17:00, Mayor que la Máxima 24.0 29-11-1953 00:00 24.5 -- 24.0 2013-12-31 12:29:00
2 1953-12-06 00:00:00 Temperatura 19.5 del 05-12-1953 21:00, Mayor que la Máxima 19.0 06-12-1953 00:00 19.5 -- 19.0 2013-12-31 12:39:00
2 1953-12-20 00:00:00 Temperatura 26.5 del 19-12-1953 21:00, Mayor que la Máxima 26.0 20-12-1953 00:00 26.5 -- 26.0 2013-12-31 12:40:00
2 1955-01-08 00:00:00 Temperatura 28.0 del 07-01-1955 21:00, Mayor que la Máxima 25.2 08-01-1955 00:00 28.0 -- 25.2 2013-05-09 06:46:00
2 1955-01-14 00:00:00 Temperatura 23.5 del 13-01-1955 21:00, Mayor que la Máxima 15.0 14-01-1955 00:00 23.5 -- 15.0 2013-05-09 06:46:00
2 1955-01-15 00:00:00 Temperatura 28.0 del 14-01-1955 21:00, Mayor que la Máxima 25.0 15-01-1955 00:00 28.0 -- 25.0 2013-05-09 06:46:00
2 1955-01-21 00:00:00 Temperatura 29.0 del 20-01-1955 21:00, Mayor que la Máxima 28.0 21-01-1955 00:00 29.0 -- 28.0 2013-05-09 06:46:00
2 1955-01-27 00:00:00 Temperatura 25.6 del 26-01-1955 15:00, Mayor que la Máxima 3.4 27-01-1955 00:00 25.6 -- 3.4 2013-05-09 06:46:00
2 1955-01-28 00:00:00 Temperatura 34.0 del 27-01-1955 18:00, Mayor que la Máxima 3.4 28-01-1955 00:00 34.0 -- 3.4 2013-05-09 06:46:00
2 1955-03-12 00:00:00 Temperatura 29.1 del 11-03-1955 18:00, Mayor que la Máxima 29.0 12-03-1955 00:00 29.1 -- 29.0 2013-05-09 06:46:00
2 1955-03-15 00:00:00 Temperatura 28.8 del 14-03-1955 21:00, Mayor que la Máxima 24.7 15-03-1955 00:00 28.8 -- 24.7 2013-05-09 06:46:00
2 1955-03-17 00:00:00 Temperatura 22.0 del 16-03-1955 21:00, Mayor que la Máxima 21.0 17-03-1955 00:00 22.0 -- 21.0 2013-05-09 06:46:00
2 1955-04-07 00:00:00 Temperatura 18.8 del 06-04-1955 21:00, Mayor que la Máxima 18.6 07-04-1955 00:00 18.8 -- 18.6 2013-05-09 06:46:00
2 1955-04-19 00:00:00 Temperatura 23.4 del 18-04-1955 18:00, Mayor que la Máxima 23.0 19-04-1955 00:00 23.4 -- 23.0 2013-05-09 06:46:00
2 1955-05-11 00:00:00 Temperatura 24.7 del 10-05-1955 18:00, Mayor que la Máxima 20.4 11-05-1955 00:00 24.7 -- 20.4 2013-05-09 06:46:00
2 1955-05-26 00:00:00 Temperatura 13.6 del 25-05-1955 18:00, Mayor que la Máxima 12.8 26-05-1955 00:00 13.6 -- 12.8 2013-05-09 06:46:00
2 1955-05-27 00:00:00 Temperatura 16.5 del 26-05-1955 18:00, Mayor que la Máxima 16.0 27-05-1955 00:00 16.5 -- 16.0 2013-05-09 06:46:00
2 1955-06-30 00:00:00 Temperatura 17.7 del 29-06-1955 18:00, Mayor que la Máxima 17.2 30-06-1955 00:00 17.7 -- 17.2 2013-05-09 06:46:00
2 1955-07-20 00:00:00 Temperatura 23.6 del 19-07-1955 21:00, Mayor que la Máxima 22.0 20-07-1955 00:00 23.6 -- 22.0 2013-05-09 06:46:00
2 1955-07-22 00:00:00 Temperatura 19.2 del 21-07-1955 21:00, Mayor que la Máxima 18.9 22-07-1955 00:00 19.2 -- 18.9 2013-05-09 06:46:00
2 1955-09-09 00:00:00 Temperatura 17.7 del 08-09-1955 21:00, Mayor que la Máxima 16.0 09-09-1955 00:00 17.7 -- 16.0 2013-05-09 06:46:00
2 1955-09-20 00:00:00 Temperatura 19.0 del 19-09-1955 18:00, Mayor que la Máxima 15.8 20-09-1955 00:00 19.0 -- 15.8 2013-05-09 06:46:00
2 1955-10-04 00:00:00 Temperatura 19.2 del 03-10-1955 21:00, Mayor que la Máxima 19.0 04-10-1955 00:00 19.2 -- 19.0 2013-05-09 06:46:00
2 1955-10-06 00:00:00 Temperatura 18.9 del 05-10-1955 18:00, Mayor que la Máxima 18.5 06-10-1955 00:00 18.9 -- 18.5 2013-05-09 06:46:00
2 1955-10-07 00:00:00 Temperatura 19.5 del 06-10-1955 18:00, Mayor que la Máxima 11.8 07-10-1955 00:00 19.5 -- 11.8 2013-05-09 06:46:00
2 1955-10-14 00:00:00 Temperatura 26.0 del 13-10-1955 18:00, Mayor que la Máxima 25.0 14-10-1955 00:00 26.0 -- 25.0 2013-05-09 06:46:00
2 1955-10-16 00:00:00 Temperatura 17.1 del 15-10-1955 15:00, Mayor que la Máxima 16.2 16-10-1955 00:00 17.1 -- 16.2 2013-05-09 06:46:00
2 1955-10-17 00:00:00 Temperatura 22.2 del 16-10-1955 21:00, Mayor que la Máxima 20.5 17-10-1955 00:00 22.2 -- 20.5 2013-05-09 06:46:00
2 1955-11-02 00:00:00 Temperatura 23.8 del 01-11-1955 18:00, Mayor que la Máxima 22.2 02-11-1955 00:00 23.8 -- 22.2 2013-05-09 06:46:00
2 1955-11-26 00:00:00 Temperatura 23.5 del 25-11-1955 21:00, Mayor que la Máxima 23.3 26-11-1955 00:00 23.5 -- 23.3 2013-05-09 06:46:00
2 1955-12-02 00:00:00 Temperatura 26.5 del 01-12-1955 18:00, Mayor que la Máxima 21.0 02-12-1955 00:00 26.5 -- 21.0 2013-05-09 06:46:00
2 1955-12-05 00:00:00 Temperatura 29.1 del 04-12-1955 18:00, Mayor que la Máxima 29.0 05-12-1955 00:00 29.1 -- 29.0 2013-05-09 06:46:00
2 1955-12-07 00:00:00 Temperatura 21.1 del 06-12-1955 18:00, Mayor que la Máxima 21.0 07-12-1955 00:00 21.1 -- 21.0 2013-05-09 06:46:00
2 1955-12-14 00:00:00 Temperatura 22.4 del 13-12-1955 15:00, Mayor que la Máxima 22.0 14-12-1955 00:00 22.4 -- 22.0 2013-05-09 06:46:00
2 1955-12-22 00:00:00 Temperatura 37.7 del 21-12-1955 15:00, Mayor que la Máxima 31.4 22-12-1955 00:00 37.7 -- 31.4 2013-05-09 06:46:00
2 1955-12-27 00:00:00 Temperatura 25.0 del 26-12-1955 21:00, Mayor que la Máxima 24.7 27-12-1955 00:00 25.0 -- 24.7 2013-05-09 06:46:00
2 1956-01-07 00:00:00 Temperatura 27.6 del 06-01-1956 18:00, Mayor que la Máxima 27.0 07-01-1956 00:00 27.6 -- 27.0 2013-05-09 06:46:00
2 1956-01-22 00:00:00 Temperatura 29.9 del 21-01-1956 18:00, Mayor que la Máxima 28.5 22-01-1956 00:00 29.9 -- 28.5 2013-05-09 06:46:00
2 1956-02-16 00:00:00 Temperatura 24.5 del 15-02-1956 18:00, Mayor que la Máxima 24.0 16-02-1956 00:00 24.5 -- 24.0 2013-05-09 06:46:00
2 1956-03-12 00:00:00 Temperatura 16.7 del 11-03-1956 21:00, Mayor que la Máxima 16.4 12-03-1956 00:00 16.7 -- 16.4 2013-05-09 06:46:00
2 1956-04-05 00:00:00 Temperatura 22.1 del 04-04-1956 18:00, Mayor que la Máxima 2.4 05-04-1956 00:00 22.1 -- 2.4 2013-05-09 06:46:00
2 1956-04-11 00:00:00 Temperatura 21.1 del 10-04-1956 18:00, Mayor que la Máxima 2.2 11-04-1956 00:00 21.1 -- 2.2 2013-05-09 06:46:00
2 1956-04-19 00:00:00 Temperatura 23.1 del 18-04-1956 18:00, Mayor que la Máxima 2.4 19-04-1956 00:00 23.1 -- 2.4 2013-05-09 06:46:00
2 1956-04-23 00:00:00 Temperatura 23.6 del 22-04-1956 18:00, Mayor que la Máxima 2.3 23-04-1956 00:00 23.6 -- 2.3 2013-05-09 06:46:00
2 1956-04-25 00:00:00 Temperatura 19.3 del 24-04-1956 21:00, Mayor que la Máxima 2.1 25-04-1956 00:00 19.3 -- 2.1 2013-05-09 06:46:00
2 1956-04-28 00:00:00 Temperatura 15.5 del 27-04-1956 21:00, Mayor que la Máxima 1.7 28-04-1956 00:00 15.5 -- 1.7 2013-05-09 06:46:00
2 1956-05-01 00:00:00 Temperatura 18.4 del 30-04-1956 21:00, Mayor que la Máxima 2.0 01-05-1956 00:00 18.4 -- 2.0 2013-05-09 06:46:00
2 1956-05-02 00:00:00 Temperatura 20.7 del 01-05-1956 21:00, Mayor que la Máxima 2.2 02-05-1956 00:00 20.7 -- 2.2 2013-05-09 06:46:00
2 1956-05-05 00:00:00 Temperatura 18.4 del 04-05-1956 18:00, Mayor que la Máxima 2.0 05-05-1956 00:00 18.4 -- 2.0 2013-05-09 06:46:00
2 1956-05-09 00:00:00 Temperatura 19.7 del 08-05-1956 18:00, Mayor que la Máxima 2.0 09-05-1956 00:00 19.7 -- 2.0 2013-05-09 06:46:00
2 1956-05-10 00:00:00 Temperatura 24.5 del 09-05-1956 21:00, Mayor que la Máxima 2.5 10-05-1956 00:00 24.5 -- 2.5 2013-05-09 06:46:00
2 1956-05-13 00:00:00 Temperatura 18.4 del 12-05-1956 21:00, Mayor que la Máxima 2.0 13-05-1956 00:00 18.4 -- 2.0 2013-05-09 06:46:00
2 1956-05-16 00:00:00 Temperatura 20.5 del 15-05-1956 18:00, Mayor que la Máxima 2.2 16-05-1956 00:00 20.5 -- 2.2 2013-05-09 06:46:00
2 1956-05-20 00:00:00 Temperatura 18.1 del 19-05-1956 21:00, Mayor que la Máxima 2.1 20-05-1956 00:00 18.1 -- 2.1 2013-05-09 06:46:00
2 1956-05-24 00:00:00 Temperatura 18.2 del 23-05-1956 18:00, Mayor que la Máxima 1.8 24-05-1956 00:00 18.2 -- 1.8 2013-05-09 06:46:00
2 1956-05-25 00:00:00 Temperatura 10.2 del 24-05-1956 15:00, Mayor que la Máxima 1.5 25-05-1956 00:00 10.2 -- 1.5 2013-05-09 06:46:00
2 1956-05-28 00:00:00 Temperatura 16.7 del 27-05-1956 18:00, Mayor que la Máxima 1.7 28-05-1956 00:00 16.7 -- 1.7 2013-05-09 06:46:00
2 1956-05-30 00:00:00 Temperatura 12.9 del 29-05-1956 21:00, Mayor que la Máxima 11.2 30-05-1956 00:00 12.9 -- 11.2 2013-05-09 06:46:00
2 1956-06-02 00:00:00 Temperatura 17.5 del 01-06-1956 21:00, Mayor que la Máxima 2.1 02-06-1956 00:00 17.5 -- 2.1 2013-05-09 06:46:00
2 1956-06-03 00:00:00 Temperatura 22.5 del 02-06-1956 21:00, Mayor que la Máxima 2.3 03-06-1956 00:00 22.5 -- 2.3 2013-05-09 06:46:00
2 1956-06-14 00:00:00 Temperatura 17.5 del 13-06-1956 21:00, Mayor que la Máxima 1.8 14-06-1956 00:00 17.5 -- 1.8 2013-05-09 06:46:00
2 1956-06-17 00:00:00 Temperatura 14.5 del 16-06-1956 18:00, Mayor que la Máxima 1.5 17-06-1956 00:00 14.5 -- 1.5 2013-05-09 06:46:00
2 1956-06-18 00:00:00 Temperatura 14.6 del 17-06-1956 21:00, Mayor que la Máxima 1.5 18-06-1956 00:00 14.6 -- 1.5 2013-05-09 06:46:00
2 1956-06-20 00:00:00 Temperatura 12.3 del 19-06-1956 21:00, Mayor que la Máxima 1.3 20-06-1956 00:00 12.3 -- 1.3 2013-05-09 06:46:00
2 1956-06-21 00:00:00 Temperatura 10.5 del 20-06-1956 18:00, Mayor que la Máxima 1.3 21-06-1956 00:00 10.5 -- 1.3 2013-05-09 06:46:00
2 1956-06-26 00:00:00 Temperatura 15.2 del 25-06-1956 21:00, Mayor que la Máxima 1.9 26-06-1956 00:00 15.2 -- 1.9 2013-05-09 06:46:00
2 1956-07-01 00:00:00 Temperatura 17.6 del 30-06-1956 18:00, Mayor que la Máxima 1.8 01-07-1956 00:00 17.6 -- 1.8 2013-05-09 06:46:00
2 1956-07-05 00:00:00 Temperatura 19.4 del 04-07-1956 21:00, Mayor que la Máxima 19.0 05-07-1956 00:00 19.4 -- 19.0 2013-05-09 06:46:00
2 1956-07-27 00:00:00 Temperatura 16.0 del 26-07-1956 18:00, Mayor que la Máxima 14.0 27-07-1956 00:00 16.0 -- 14.0 2013-05-09 06:46:00
2 1956-08-29 00:00:00 Temperatura 12.9 del 28-08-1956 15:00, Mayor que la Máxima 12.2 29-08-1956 00:00 12.9 -- 12.2 2013-05-09 06:46:00
2 1956-08-31 00:00:00 Temperatura 14.0 del 30-08-1956 18:00, Mayor que la Máxima 13.0 31-08-1956 00:00 14.0 -- 13.0 2013-05-09 06:46:00
2 1956-09-09 00:00:00 Temperatura 20.3 del 08-09-1956 18:00, Mayor que la Máxima 20.2 09-09-1956 00:00 20.3 -- 20.2 2013-05-09 06:46:00
2 1956-10-02 00:00:00 Temperatura 16.0 del 01-10-1956 18:00, Mayor que la Máxima 15.0 02-10-1956 00:00 16.0 -- 15.0 2013-05-09 06:46:00
2 1956-10-29 00:00:00 Temperatura 23.2 del 28-10-1956 21:00, Mayor que la Máxima 23.1 29-10-1956 00:00 23.2 -- 23.1 2013-05-09 06:46:00
2 1956-11-06 00:00:00 Temperatura 18.1 del 05-11-1956 21:00, Mayor que la Máxima 18.0 06-11-1956 00:00 18.1 -- 18.0 2013-05-09 06:46:00
2 1956-11-17 00:00:00 Temperatura 25.0 del 16-11-1956 18:00, Mayor que la Máxima 16.8 17-11-1956 00:00 25.0 -- 16.8 2013-05-09 06:46:00
2 1956-11-25 00:00:00 Temperatura 29.0 del 24-11-1956 18:00, Mayor que la Máxima 27.9 25-11-1956 00:00 29.0 -- 27.9 2013-05-09 06:46:00
2 1956-12-08 00:00:00 Temperatura 23.6 del 07-12-1956 18:00, Mayor que la Máxima 21.9 08-12-1956 00:00 23.6 -- 21.9 2013-05-09 06:46:00
2 1956-12-17 00:00:00 Temperatura 25.5 del 16-12-1956 21:00, Mayor que la Máxima 25.0 17-12-1956 00:00 25.5 -- 25.0 2013-05-09 06:47:00
2 1957-01-30 00:00:00 Temperatura 25.0 del 29-01-1957 18:00, Mayor que la Máxima 23.9 30-01-1957 00:00 25.0 -- 23.9 2013-05-09 06:47:00
2 1957-03-22 00:00:00 Temperatura 20.0 del 21-03-1957 18:00, Mayor que la Máxima 19.3 22-03-1957 00:00